GEFSSGP_500_meanwind_000.txt.gz
Wind_Speed
8 9 11 12 11 13 13 13 14 12 12 13 13 14 15 14 15 13 11 11 12 11 10 9 9 7 5 4 4 4 4 2 1 4 7 7 6 4 5 6 7 7 7 7 6 4 1 1 1
5 6 8 9 10 12 11 11 11 10 9 10 10 10 12 11 12 12 11 9 7 7 7 6 6 5 2 1 1 1 2 2 2 5 8 9 8 5 4 4 5 5 5 5 4 3 2 2 3
8 7 5 5 7 10 11 8 5 6 6 6 7 6 7 8 7 8 10 8 7 6 4 4 4 3 2 2 3 2 2 4 5 6 8 9 8 6 6 6 7 7 7 7 5 3 3 3 5
9 7 4 3 3 6 6 3 3 7 4 2 2 3 2 4 5 5 7 7 7 6 5 5 5 4 5 6 5 4 4 8 9 9 8 8 7 7 7 7 9 11 10 8 6 4 3 4 6
10 7 4 3 0 1 2 2 4 2 1 1 2 4 4 5 6 7 7 6 6 5 5 6 6 6 6 7 7 5 7 12 13 12 9 6 5 6 6 8 11 12 11 10 7 4 4 6 7
9 7 7 5 5 4 6 4 5 6 5 5 6 7 6 6 6 5 5 5 6 7 9 10 9 8 8 9 10 10 12 15 16 14 10 7 7 8 8 9 9 9 10 9 8 7 6 8 10
8 6 6 6 7 6 5 4 6 8 10 10 10 10 9 7 5 3 3 5 6 7 8 11 12 12 11 12 14 14 15 16 15 14 11 9 10 10 10 8 8 6 9 9 8 8 8 8 9
8 7 6 5 5 2 2 4 5 8 10 12 12 10 9 10 9 7 7 7 7 7 8 9 11 13 14 14 15 15 15 15 15 14 13 13 13 13 11 10 10 8 8 9 8 8 8 8 9
11 10 10 9 8 5 2 1 3 6 7 8 8 7 8 10 10 9 8 8 7 8 8 9 10 12 12 14 15 16 16 16 17 17 17 17 17 18 17 15 15 14 12 11 10 8 7 7 9
15 14 17 14 12 10 8 6 6 7 7 7 6 7 7 9 9 9 9 8 9 10 10 11 12 11 11 12 13 15 16 17 19 20 21 22 22 21 21 20 20 19 18 16 14 11 9 8 9
20 21 22 21 17 15 13 13 11 10 12 11 9 8 8 9 9 10 11 11 12 13 14 15 16 15 15 15 16 16 15 16 17 17 18 20 22 23 23 23 24 23 22 21 20 17 13 10 11
26 26 25 25 23 21 21 19 16 15 18 16 14 13 11 11 13 15 15 17 16 17 19 20 21 20 21 22 21 19 19 20 20 20 20 22 24 24 24 24 26 27 26 25 25 23 18 15 13
32 30 29 29 29 28 27 25 20 22 22 21 21 20 19 19 21 21 22 23 24 24 25 26 26 26 28 29 29 27 27 28 27 26 24 22 23 25 25 25 26 27 28 27 25 25 22 20 19
36 34 33 33 34 34 32 31 26 30 26 26 26 26 27 28 28 27 27 28 29 31 31 33 35 35 36 36 36 36 36 36 33 31 31 29 28 27 27 28 28 27 28 28 27 27 26 24 22
40 38 37 38 37 38 36 35 38 36 33 32 32 31 31 32 33 33 33 33 35 36 37 39 41 41 41 40 40 40 40 38 37 37 38 37 34 32 31 31 30 31 31 30 31 30 29 28 25
41 39 40 44 41 42 39 36 48 43 40 38 37 36 36 36 37 37 37 39 41 42 42 44 45 46 46 45 44 45 43 42 42 41 42 43 42 40 37 34 33 34 35 35 33 32 33 32 29
40 39 42 44 43 44 42 42 50 45 45 44 43 42 42 42 43 43 43 44 46 47 47 46 46 47 46 45 45 50 48 45 46 44 44 47 49 50 45 38 37 39 39 38 38 36 35 35 33
32 31 37 39 43 43 45 48 48 46 45 45 45 46 47 47 47 48 49 49 50 51 51 51 51 51 50 48 48 54 55 52 56 52 49 53 54 54 53 50 46 45 43 41 42 39 38 37 36
24 24 27 31 34 35 41 44 45 46 46 46 45 45 45 46 47 48 50 50 50 50 50 51 51 52 52 55 54 57 61 63 59 59 61 60 57 56 59 66 62 54 49 45 42 39 37 37 36
24 25 27 27 28 28 32 34 36 39 41 43 43 43 43 43 44 45 45 45 45 47 48 50 51 53 54 53 51 57 65 63 53 57 64 67 60 55 58 62 69 63 55 50 45 41 39 37 36
27 29 31 31 31 31 35 32 34 34 36 38 39 40 40 39 38 40 41 42 44 45 46 47 46 48 48 47 49 50 53 59 61 66 71 66 57 52 51 61 63 58 56 48 46 43 38 36 33
29 32 32 32 31 32 36 35 37 39 37 39 41 42 42 41 40 41 42 42 42 43 43 43 43 44 44 44 45 47 48 47 51 56 59 60 57 51 47 48 36 48 54 45 44 49 44 39 36
32 32 31 30 29 30 30 32 30 35 34 36 39 40 39 38 38 39 39 38 37 37 36 36 38 40 41 40 42 45 49 49 49 50 50 49 49 49 44 43 31 32 42 45 39 49 55 51 45
23 24 25 26 25 24 26 26 23 28 29 31 31 31 31 30 31 31 31 31 32 33 34 35 38 40 42 42 42 44 47 49 49 48 47 45 43 45 43 39 41 39 37 38 42 47 47 52 48
15 16 16 16 15 18 25 24 25 27 27 28 29 29 28 28 29 30 31 32 34 37 38 39 40 41 41 43 45 47 48 50 51 49 45 42 42 43 42 40 38 42 43 40 41 41 39 40 38
14 14 15 14 13 15 18 20 23 24 26 27 28 29 30 30 31 32 32 32 34 37 39 40 39 39 42 44 47 49 48 51 52 48 40 33 32 35 32 28 31 37 34 33 35 35 37 36 34
11 11 13 15 17 17 18 19 22 24 28 28 29 30 32 32 33 34 34 34 36 37 38 38 38 40 44 47 49 45 47 47 46 43 36 28 26 26 24 25 27 29 25 25 29 32 35 34 34
13 15 18 21 22 25 24 25 27 30 33 33 31 31 33 33 34 35 36 36 37 36 37 38 39 41 45 44 42 41 38 36 37 37 38 32 25 21 19 22 20 18 21 26 29 29 30 32 33
20 22 24 26 29 32 34 31 29 33 38 40 37 34 35 35 36 37 38 38 38 37 36 37 38 41 40 37 35 29 29 27 32 37 35 32 26 22 21 21 18 21 25 29 31 30 28 28 28
24 23 27 31 33 35 38 36 32 36 42 44 40 36 36 35 36 36 37 38 37 35 31 34 37 38 37 36 29 25 21 22 23 23 23 21 28 29 26 22 23 26 26 27 28 28 27 27 27

GEFSSGP_500_meanwind_006.txt.gz
Wind_Speed
13 13 12 13 11 12 10 4 2 3 5 7 7 7 8 8 9 9 9 9 9 8 6 3 1 2 4 5 6 6 7 7 9 12 15 15 13 10 9 9 10 11 12 12 12 11 10 9 9
11 11 10 10 9 10 8 4 2 3 4 5 5 5 4 5 5 7 7 9 10 9 6 4 2 3 5 6 6 6 5 6 9 11 13 14 13 10 9 9 10 11 12 11 11 11 11 10 10
9 10 9 5 14 12 6 3 3 2 2 2 2 3 2 1 2 2 5 7 8 8 7 5 4 4 6 7 7 6 4 5 8 11 13 14 13 10 8 7 10 12 11 11 11 10 11 11 11
10 9 8 11 11 5 3 3 3 3 2 2 3 3 4 3 2 2 4 6 7 7 7 7 6 6 7 8 8 7 6 6 9 13 14 14 12 10 9 10 12 12 12 11 10 9 10 10 11
10 10 10 11 3 4 4 2 1 1 2 3 5 5 6 6 7 7 7 7 8 8 9 9 9 9 10 11 11 9 9 10 12 14 15 15 13 13 12 11 12 12 12 11 10 9 8 10 10
12 11 11 7 3 6 6 4 1 3 4 4 5 7 6 7 8 10 11 11 11 12 13 13 13 13 14 15 15 14 14 14 14 15 15 15 15 15 14 13 12 12 11 11 11 10 9 9 10
12 12 10 6 6 10 11 7 6 7 5 5 7 10 6 7 8 9 11 11 12 13 14 15 16 16 16 17 17 17 16 16 15 16 16 17 17 17 17 17 15 14 13 13 12 12 11 9 9
12 10 8 6 4 14 11 7 7 6 7 6 6 8 5 7 8 10 12 12 13 14 14 15 15 15 16 17 17 17 16 16 15 16 18 18 19 20 20 20 20 19 17 17 17 15 14 12 11
14 11 9 6 5 13 7 5 5 5 8 8 9 9 8 7 7 9 11 13 12 12 13 13 14 14 16 17 18 18 18 17 17 18 19 21 22 24 24 23 23 24 22 22 21 21 19 17 14
16 15 12 13 17 15 8 7 8 8 11 16 15 14 13 11 9 10 11 12 12 12 13 13 14 16 18 20 21 21 21 21 22 23 24 25 26 26 27 26 25 24 24 24 25 26 26 23 20
19 19 19 17 17 17 13 12 13 12 11 20 19 17 15 15 15 14 14 14 15 15 16 16 18 20 21 23 24 25 25 26 28 30 30 29 29 31 31 31 29 27 26 27 27 28 28 28 26
25 24 22 20 19 19 18 18 17 18 21 26 25 24 20 20 20 21 20 20 21 23 22 22 24 25 26 24 24 26 28 29 31 31 31 32 32 32 31 31 32 32 31 31 31 29 28 30 30
30 28 27 26 25 25 25 23 22 25 30 31 27 27 27 26 26 26 27 27 27 29 30 28 28 29 29 28 27 29 31 31 32 32 31 32 34 35 35 34 34 33 31 31 31 32 30 30 31
33 33 31 29 29 30 32 29 26 28 36 36 33 31 30 30 30 31 32 33 33 34 36 34 33 34 34 34 34 34 36 36 36 34 33 33 35 38 38 38 38 37 35 33 32 32 32 32 31
37 35 32 31 32 33 35 33 30 29 39 41 38 34 33 34 35 36 37 38 39 39 41 41 39 39 40 41 41 42 42 41 41 41 39 37 38 40 41 41 42 42 40 39 36 34 33 33 34
36 36 35 31 31 35 36 33 29 35 42 45 44 38 36 38 40 41 42 42 43 44 45 46 46 46 46 47 47 48 48 48 47 46 44 43 42 43 45 46 47 49 48 46 42 38 36 36 37
28 28 27 21 29 36 37 31 33 39 44 48 48 45 43 43 44 45 46 47 47 48 49 49 50 50 50 50 51 50 49 47 46 46 46 46 46 47 48 49 52 54 54 53 50 46 43 41 42
11 11 11 11 25 37 38 30 28 39 45 48 48 49 47 45 44 44 45 46 46 46 47 48 48 48 48 48 48 48 46 44 44 45 47 48 49 49 50 52 54 56 57 58 58 54 49 47 47
16 19 20 20 23 37 40 33 26 31 41 41 40 41 41 40 40 40 41 40 40 40 41 41 41 42 42 42 42 42 43 43 43 44 45 47 49 50 51 53 54 55 57 59 60 58 54 52 53
13 14 17 18 24 32 33 30 26 26 35 40 37 38 39 39 38 39 39 40 40 40 40 41 42 43 43 44 44 43 43 43 43 45 46 47 48 49 50 51 53 54 53 54 55 57 56 56 57
16 15 19 24 29 30 30 32 27 25 35 38 37 37 37 37 37 37 39 41 42 43 43 43 44 45 45 46 46 45 44 44 45 46 47 47 49 50 51 51 51 51 51 50 51 54 54 56 57
20 21 28 30 30 31 30 34 28 25 35 37 36 34 33 34 35 36 37 38 39 40 41 42 43 43 43 45 45 45 44 45 46 47 48 49 51 52 53 52 51 50 49 49 50 51 52 51 50
26 27 29 29 28 28 23 24 22 22 30 33 33 32 29 30 33 34 35 36 37 37 38 38 38 38 39 40 41 42 43 44 45 47 48 49 49 50 52 53 52 51 50 49 48 48 48 47 42
19 18 18 17 17 18 17 18 16 22 26 31 35 36 35 34 33 33 34 34 35 36 36 37 38 38 38 39 40 42 43 44 45 46 47 48 49 49 50 53 54 54 53 51 49 48 46 43 39
14 13 12 9 9 15 17 16 16 25 29 32 35 38 39 38 37 37 37 37 36 37 37 38 39 40 41 42 45 46 47 47 47 48 49 50 50 50 50 51 53 54 54 52 49 47 45 42 38
11 10 10 12 10 12 14 17 20 28 30 29 31 34 38 40 42 42 41 40 40 40 39 39 40 41 43 45 46 48 50 49 49 50 51 50 50 49 49 48 49 48 49 49 48 45 43 41 39
12 10 11 15 14 14 13 14 21 30 33 34 36 37 38 40 42 44 44 44 44 43 42 42 42 43 44 45 46 47 48 48 48 49 49 50 50 49 48 46 45 43 42 41 40 38 36 35 37
16 16 18 20 21 20 19 17 21 31 35 39 38 38 39 39 40 41 43 43 44 44 44 44 44 44 44 44 44 45 45 46 46 46 48 49 48 45 42 39 37 35 33 32 30 29 29 31 33
19 21 21 22 23 25 25 21 19 28 32 34 34 34 34 35 36 39 41 42 43 43 43 43 43 42 43 43 42 42 43 43 43 44 44 43 39 37 34 32 30 28 27 27 28 27 27 27 26
16 19 21 24 24 25 26 21 19 25 27 31 33 35 35 35 36 38 40 41 42 42 42 41 40 39 40 40 40 39 39 39 39 39 36 33 31 29 26 26 26 26 26 26 26 24 22 22 22

GEFSSGP_500_meanwind_012.txt.gz
Wind_Speed
13 12 10 8 5 2 7 11 10 7 10 10 8 9 9 7 2 1 2 2 1 2 3 4 6 7 8 9 10 10 8 9 11 13 16 18 17 15 14 14 17 18 18 18 16 14 14 14 15
10 9 6 4 4 4 7 9 9 6 6 7 6 6 8 8 4 2 3 3 3 4 5 6 6 7 7 8 9 8 6 6 8 11 13 16 16 15 13 13 15 17 18 18 17 15 14 15 15
9 8 5 3 3 5 7 5 5 3 3 3 2 4 5 5 3 2 3 3 5 7 8 9 9 9 9 8 9 8 6 6 7 9 11 13 14 14 13 13 15 15 16 17 17 17 15 14 15
9 6 5 5 1 5 5 4 4 2 2 0 2 1 2 3 3 2 2 3 4 6 8 9 10 10 10 10 10 10 10 9 10 11 11 11 12 13 13 13 14 14 14 15 16 16 16 15 14
10 6 5 8 2 6 4 2 3 4 6 5 5 5 4 4 6 6 5 5 6 7 8 9 10 11 12 12 13 13 14 13 13 13 12 12 12 13 13 14 15 15 14 14 15 15 16 16 16
12 8 8 7 3 4 6 6 7 8 7 6 7 8 7 5 7 8 8 7 7 8 10 10 11 11 12 13 14 14 14 13 13 12 12 11 12 12 13 14 15 15 16 15 15 16 16 16 15
14 10 11 9 4 2 3 7 8 9 10 9 7 8 8 6 7 8 9 8 7 9 11 12 12 11 11 11 10 11 11 12 12 11 11 11 11 11 11 12 14 15 15 15 16 16 17 17 17
18 15 15 12 7 4 4 8 9 9 9 9 7 6 7 6 5 6 9 10 9 10 12 13 13 11 10 9 9 9 10 10 10 10 10 11 11 11 11 12 13 14 14 14 14 15 16 17 18
20 19 19 18 13 8 6 8 10 10 8 6 6 6 7 7 6 6 8 10 11 11 12 13 13 12 11 11 12 13 13 13 13 14 14 14 14 13 13 13 13 13 13 13 14 15 15 16 17
20 22 22 20 16 10 7 9 11 13 13 12 10 9 9 10 9 7 8 11 12 12 12 14 14 15 15 16 17 18 19 19 20 20 21 20 19 19 17 17 16 15 15 15 16 17 17 18 18
19 21 22 21 17 12 9 10 14 18 19 20 19 16 15 15 15 14 12 14 16 17 17 18 20 21 21 22 23 24 25 25 24 25 26 26 25 25 24 23 22 20 19 18 18 18 19 19 19
22 22 23 23 20 17 13 13 17 21 23 25 26 24 22 20 21 21 20 20 21 22 23 24 26 27 27 27 27 28 29 30 29 29 30 31 30 29 29 29 28 27 26 24 22 22 21 21 21
25 25 26 24 23 21 19 18 19 25 29 31 31 30 27 25 24 24 25 26 27 27 28 28 29 32 33 32 32 32 33 34 35 35 35 35 35 34 33 32 31 30 30 29 27 26 25 25 24
29 29 27 25 25 25 25 25 26 29 34 36 36 35 33 31 28 28 29 30 31 32 33 32 32 34 36 37 37 37 37 38 39 40 40 40 38 37 36 35 33 32 32 31 30 30 29 29 28
33 31 29 28 28 29 31 31 32 32 35 37 38 38 38 36 35 34 34 34 34 36 37 37 37 38 39 40 41 41 41 40 40 40 39 39 39 38 37 37 36 34 34 33 32 33 33 33 32
34 33 31 31 31 31 33 34 34 33 34 35 37 38 38 38 38 38 37 36 36 36 37 38 39 39 40 40 41 41 41 40 40 39 38 38 38 37 37 37 36 36 36 36 36 36 37 38 37
32 31 30 30 30 31 32 33 32 32 32 32 34 36 36 36 36 36 36 35 34 33 34 35 37 38 38 38 38 39 39 39 39 38 38 39 39 38 38 38 38 39 40 39 39 39 40 40 40
25 24 21 21 21 22 24 25 26 28 29 31 33 34 34 33 32 31 32 34 34 34 33 34 35 36 37 37 37 38 39 39 39 39 39 39 39 40 40 41 42 43 43 42 41 41 41 41 40
16 15 15 16 16 16 18 22 26 28 30 33 35 35 33 30 28 27 29 31 32 33 34 34 35 36 38 38 39 39 40 40 40 40 40 40 41 41 41 41 42 42 43 43 43 42 41 40 40
13 17 21 23 22 23 25 28 30 31 32 33 36 36 33 28 26 27 29 31 31 32 33 35 35 35 36 37 38 38 38 38 38 38 38 39 39 39 39 39 40 40 41 41 41 42 41 41 41
15 19 23 27 26 27 28 30 32 33 34 35 36 35 30 26 27 29 31 31 32 33 35 36 36 36 36 37 38 38 38 36 35 36 36 36 36 36 36 37 38 39 40 41 41 42 42 42 42
20 22 22 22 27 32 34 36 34 35 35 34 32 30 27 26 27 29 30 32 32 34 36 36 36 36 37 38 38 39 40 39 39 38 38 38 37 37 38 38 39 40 41 41 42 42 42 42 42
20 20 19 18 19 23 28 33 28 25 25 25 25 23 22 22 24 28 30 31 32 33 34 36 38 39 40 41 41 41 41 42 42 41 41 40 40 40 41 41 42 42 42 42 43 43 43 43 43
11 11 11 12 13 14 17 19 17 16 16 16 18 19 20 23 26 28 29 29 30 31 33 34 37 38 40 42 43 43 43 43 43 42 42 41 41 41 41 42 42 42 43 43 44 45 44 44 44
6 6 6 8 10 10 12 15 15 15 15 17 20 22 25 26 27 27 28 28 29 29 31 32 34 36 38 40 41 43 43 44 44 44 43 42 41 40 40 40 41 41 42 43 44 44 45 45 46
8 8 7 5 6 7 12 16 17 17 19 22 25 27 28 28 27 27 29 30 31 31 33 34 36 37 38 39 39 40 41 42 43 44 45 44 43 42 41 41 41 41 42 43 43 44 45 46 46
9 9 9 9 9 9 11 18 21 22 24 26 27 28 28 28 28 30 32 33 34 35 36 38 38 39 39 40 40 39 39 40 41 42 43 44 44 43 42 42 42 42 43 43 43 42 42 42 41
10 10 11 12 12 11 8 11 19 23 25 27 28 29 29 29 30 32 33 33 34 35 37 38 39 40 40 41 41 40 39 38 39 40 40 40 41 41 41 42 42 42 41 40 39 37 35 34 32
12 10 11 12 14 15 13 9 16 21 24 27 28 28 29 30 31 33 35 35 35 36 37 39 39 40 41 41 41 40 38 37 37 38 38 38 37 38 39 39 39 38 36 34 32 29 27 26 24
13 14 15 16 16 18 19 15 18 22 25 27 29 31 32 33 34 36 39 40 39 38 38 39 40 40 41 42 41 40 38 36 34 34 34 33 34 34 34 33 33 32 30 28 25 24 23 22 21

GEFSSGP_500_meanwind_018.txt.gz
Wind_Speed
4 3 2 2 3 5 7 7 8 11 12 11 10 9 8 7 5 4 5 6 7 8 7 7 7 8 9 10 10 10 9 9 10 11 12 12 12 13 13 13 14 15 16 16 16 15 15 14 14
5 3 0 2 2 3 5 6 7 9 9 9 9 9 8 8 6 5 4 4 6 6 6 5 6 7 8 8 9 9 8 8 8 9 9 9 9 10 10 11 12 12 13 13 13 13 13 12 12
6 5 4 2 2 1 3 5 6 7 6 7 7 7 7 7 7 6 4 4 4 4 3 4 5 6 6 7 7 7 7 7 6 6 6 6 6 7 8 9 10 10 10 11 10 10 10 10 9
9 8 6 4 3 3 2 3 5 5 4 4 5 7 8 8 8 8 8 7 6 5 5 5 5 5 6 6 6 6 6 6 5 5 4 4 4 5 6 7 8 8 8 8 9 9 8 7 7
12 10 8 6 5 5 4 3 4 3 2 3 5 7 8 9 9 10 11 10 9 9 9 8 8 7 7 6 5 4 5 5 5 5 4 4 4 5 6 7 8 9 9 9 9 9 9 8 8
16 14 11 9 8 7 6 4 4 1 1 3 5 6 7 7 8 9 9 10 10 10 10 10 9 9 8 7 5 4 4 5 5 5 6 6 7 8 9 10 11 11 12 11 10 10 10 10 10
19 18 15 12 11 10 9 6 5 3 1 2 3 4 5 6 7 7 7 8 9 10 10 11 10 10 9 8 7 6 6 6 6 7 8 9 11 12 13 13 14 15 15 14 13 12 12 11 11
22 21 18 15 13 12 10 9 6 3 1 2 2 3 3 4 6 7 8 8 8 9 10 10 11 10 10 10 10 9 9 10 10 11 12 14 15 16 17 17 17 17 18 18 17 16 15 14 14
24 22 20 17 15 13 12 11 8 4 4 3 1 2 4 6 8 10 12 13 13 12 11 11 11 12 12 13 14 15 15 16 16 17 17 18 19 19 20 20 20 20 20 20 20 20 19 19 17
25 25 22 19 17 15 13 12 11 6 5 4 3 3 7 11 13 15 16 17 18 18 17 17 16 17 17 18 19 20 21 22 22 23 23 23 23 24 24 25 25 24 24 23 23 24 23 23 21
27 27 25 22 19 17 15 14 13 11 9 9 9 9 11 15 18 21 22 22 22 23 23 23 23 23 23 24 25 26 26 27 27 28 28 28 28 29 29 29 30 29 29 28 28 27 27 27 26
26 29 27 24 21 20 18 17 16 15 14 15 16 17 18 21 24 25 26 26 26 26 27 27 28 28 29 29 30 30 30 31 32 32 32 32 33 33 33 33 33 34 34 34 33 32 31 30 30
24 27 26 24 23 22 22 22 20 20 20 20 21 23 25 27 28 29 29 29 29 29 30 31 32 33 33 34 34 34 34 34 35 36 36 37 37 37 37 37 36 37 38 38 38 37 36 35 34
26 25 25 25 26 26 26 26 25 24 26 27 27 28 30 31 31 31 31 30 30 31 31 32 33 34 35 36 37 38 38 38 38 39 40 41 41 41 40 39 37 37 38 38 38 39 39 38 37
30 28 28 30 31 31 31 30 29 29 31 32 33 33 34 34 33 33 32 31 31 32 32 32 32 32 33 34 35 37 38 39 39 39 39 41 41 41 40 39 38 39 39 38 38 38 38 38 38
35 34 34 35 35 35 34 33 32 34 35 36 37 36 36 36 34 33 31 30 30 30 30 30 29 30 30 30 31 32 34 35 36 36 37 38 40 40 40 40 39 40 41 40 39 38 38 37 37
37 37 38 39 40 39 38 37 37 38 39 39 38 37 36 34 31 29 29 29 30 30 31 30 30 29 28 29 29 30 31 33 35 37 38 39 40 41 41 41 40 40 41 41 41 41 41 40 39
34 37 39 40 41 41 41 40 39 38 38 38 37 35 32 29 27 28 30 32 33 33 33 33 31 29 29 29 30 30 32 34 35 37 38 39 40 41 42 42 42 42 41 41 42 42 42 42 41
30 33 35 37 38 39 39 38 37 36 35 34 32 30 28 28 29 31 32 34 35 35 34 33 31 30 30 30 30 31 32 33 35 36 37 38 38 39 40 40 40 40 40 39 39 40 41 40 40
27 30 32 34 34 34 35 35 35 34 33 31 30 30 30 31 32 33 34 34 34 34 33 33 32 30 30 30 31 32 33 35 36 37 38 39 39 39 39 39 39 38 38 37 37 38 38 37 38
23 26 29 30 31 31 32 32 32 33 32 32 32 32 33 34 34 33 33 33 31 32 32 32 32 31 31 31 31 31 32 33 35 36 38 40 41 41 40 40 40 40 39 38 38 37 37 36 37
21 23 25 27 27 28 30 32 31 32 34 35 36 36 37 36 34 33 30 28 29 31 31 32 32 30 29 28 28 28 29 30 32 34 36 37 39 40 41 41 41 41 41 40 39 38 38 37 37
20 21 23 24 25 26 29 32 32 33 36 37 38 37 34 32 29 26 25 26 28 30 31 31 29 27 25 24 23 23 25 27 29 32 34 35 37 38 39 40 41 41 42 41 40 39 38 38 37
14 16 18 18 18 20 22 23 24 26 28 29 29 29 28 27 25 23 23 25 28 29 30 28 25 23 22 21 21 22 24 26 28 30 33 34 35 37 37 38 39 41 41 42 41 40 39 38 38
12 13 14 14 14 15 17 18 18 20 21 22 22 23 24 24 24 24 24 25 26 27 27 25 24 23 23 23 24 25 26 28 29 31 33 35 35 35 35 36 37 38 40 41 41 41 40 39 38
13 14 15 15 14 14 17 18 17 19 20 21 22 23 24 24 24 23 23 23 25 26 26 25 24 25 26 27 29 30 31 32 33 33 34 36 36 35 34 33 34 36 37 38 40 40 41 40 39
13 13 14 15 15 15 16 17 18 20 21 21 22 22 22 22 22 21 22 24 25 27 28 29 29 30 32 33 34 36 37 37 37 36 36 37 37 36 35 33 32 32 34 35 37 38 39 39 40
12 13 14 16 18 18 17 19 21 21 22 24 25 24 24 24 24 25 26 28 30 32 33 34 35 35 36 37 38 39 40 41 41 40 39 38 37 36 36 34 31 30 30 31 33 34 35 36 37
14 14 15 17 19 21 20 21 22 23 25 28 29 29 29 30 30 31 32 33 35 37 39 40 40 40 41 41 41 41 42 42 42 42 40 39 37 36 36 34 31 29 28 29 29 30 31 31 32
16 17 19 21 22 23 25 28 25 26 28 30 32 33 34 35 36 37 38 40 41 43 44 45 46 46 45 45 44 44 44 44 43 43 41 39 37 36 35 34 32 29 28 27 27 26 26 26 26

GEFSSGP_500_meanwind_024.txt.gz
Wind_Speed
7 8 9 9 9 9 5 6 7 9 10 10 9 8 7 6 6 5 4 3 3 3 3 4 3 2 1 2 3 4 5 5 5 5 5 5 5 6 6 6 7 6 6 5 5 5 5 5 6
4 5 6 8 10 6 3 3 5 8 9 9 8 8 8 7 6 5 4 2 1 1 1 2 1 1 2 3 4 5 6 6 6 6 6 6 6 6 7 7 8 8 7 7 5 4 4 4 4
2 2 3 5 6 3 3 3 2 3 4 5 5 6 6 5 5 4 3 3 3 3 3 3 3 3 4 5 6 6 6 6 6 7 6 6 6 6 7 8 9 10 10 10 9 8 7 6 5
3 2 1 2 1 2 3 4 4 3 2 1 1 2 3 3 3 2 2 3 3 3 4 4 5 5 6 6 7 7 7 7 7 7 7 6 6 7 8 10 11 12 12 12 11 11 10 9 8
6 4 2 2 3 3 4 4 4 4 5 4 3 2 1 1 1 1 1 2 3 3 3 4 4 5 5 6 6 7 7 7 7 7 7 7 8 9 10 11 12 13 13 13 13 12 12 11 11
10 8 5 6 7 5 5 4 5 6 6 4 3 2 1 1 1 1 1 2 3 3 4 4 5 5 5 5 6 6 7 7 7 8 9 9 10 11 12 13 14 14 14 14 14 14 13 13 13
14 12 10 11 10 8 6 6 7 7 7 5 4 3 2 1 1 1 2 3 4 5 6 7 8 8 8 8 8 8 8 8 9 10 11 12 13 14 15 16 16 16 15 15 15 16 16 16 15
18 15 14 14 13 11 8 7 7 6 6 5 5 3 2 1 2 2 4 5 7 9 10 12 13 13 13 13 13 12 12 12 13 13 14 16 17 17 18 19 19 19 19 19 19 19 19 19 19
20 18 18 18 16 13 11 9 7 6 5 5 5 6 5 6 7 8 9 11 12 14 16 17 18 19 20 20 20 19 19 19 19 20 20 20 21 21 22 22 23 23 23 23 23 23 22 23 23
21 21 23 20 18 16 13 11 8 6 7 8 8 8 9 10 12 13 15 17 19 20 21 22 23 23 24 25 25 25 25 25 26 26 25 25 25 25 25 26 27 27 28 28 28 28 27 27 27
22 24 24 22 21 19 16 13 11 9 9 10 11 12 14 15 17 19 21 22 24 25 26 26 26 26 27 28 28 29 29 29 29 30 30 30 30 30 30 31 31 32 33 33 34 33 32 32 31
22 24 24 24 23 21 19 16 14 13 14 14 14 16 18 20 22 24 26 27 28 29 29 29 30 30 30 30 31 32 33 33 33 34 34 35 34 34 34 34 35 36 37 38 38 38 37 36 35
24 24 24 24 24 23 21 19 18 17 18 18 19 20 22 24 27 29 30 32 33 33 33 33 33 33 33 33 32 32 32 33 34 35 36 36 37 37 37 37 37 38 39 40 40 41 40 39 38
27 25 24 26 26 25 24 23 21 23 22 22 23 24 26 29 31 33 35 36 36 36 37 37 36 34 33 32 31 30 30 31 32 33 34 34 35 35 35 35 35 36 36 37 38 39 40 40 39
31 28 27 28 28 27 25 25 27 27 26 26 27 29 31 34 35 37 38 38 38 38 38 37 35 33 32 31 30 30 30 29 30 31 31 31 31 31 31 32 33 34 36 36 37 37 38 38 39
33 31 30 33 30 29 28 27 33 29 30 31 32 33 35 37 38 39 39 40 39 39 38 37 35 34 33 32 31 31 30 30 30 30 30 29 29 29 30 31 32 34 36 37 38 38 38 38 38
32 33 33 36 34 33 32 34 38 33 34 35 36 37 38 39 39 40 40 39 38 38 37 36 35 35 34 32 30 29 29 29 29 28 28 27 27 28 28 30 31 33 35 37 38 38 39 39 39
28 31 34 36 38 36 37 39 41 40 39 40 39 39 38 37 37 37 37 36 36 37 36 37 36 35 34 31 29 27 27 27 26 25 24 23 23 24 25 27 29 32 35 37 38 39 39 39 39
27 29 31 37 39 39 41 42 43 43 41 39 37 35 33 32 33 34 34 35 36 37 38 38 37 36 33 30 28 26 25 23 21 20 19 19 19 19 21 23 26 29 32 35 38 40 40 40 40
19 21 24 30 35 36 38 38 38 38 36 33 31 30 30 30 32 34 35 36 37 38 39 39 38 36 32 29 27 25 22 19 17 16 16 16 17 18 19 21 24 26 29 32 35 38 40 41 41
11 13 17 21 25 26 29 27 29 30 29 28 28 28 28 30 32 34 36 38 39 40 40 39 38 35 31 28 26 23 19 17 16 16 17 17 18 19 19 21 23 25 27 29 32 35 37 39 41
11 15 16 18 19 18 23 19 22 26 25 27 29 30 31 32 34 36 38 39 39 39 38 37 35 33 31 28 25 23 21 20 19 20 21 21 22 22 22 23 24 26 27 29 30 31 34 36 39
14 15 15 16 17 16 18 15 16 23 23 25 28 30 31 32 33 35 37 37 37 36 35 36 36 34 32 29 27 25 24 24 24 25 25 26 26 25 25 25 25 26 27 28 29 30 31 33 35
12 12 12 13 13 12 15 11 14 19 19 20 22 23 25 26 29 31 32 34 35 35 36 36 35 34 33 31 30 29 28 29 29 29 29 28 28 27 26 25 26 27 28 29 29 29 29 30 32
12 12 11 11 10 11 17 14 18 19 18 19 20 21 23 24 26 29 31 33 35 36 36 36 35 35 35 34 33 32 32 32 32 32 31 30 29 28 27 26 26 27 28 29 29 29 29 29 30
11 12 12 12 12 13 17 17 20 19 20 20 21 23 24 26 28 30 33 35 36 37 36 37 37 38 38 38 37 36 35 35 35 34 34 32 31 29 28 27 27 27 27 28 29 28 28 28 28
10 11 12 14 14 15 14 20 21 20 22 23 24 26 27 29 30 32 33 35 37 38 39 39 41 42 42 42 41 40 39 39 38 37 36 34 32 31 29 28 27 26 27 27 28 28 28 28 27
11 12 13 13 15 15 15 18 23 21 23 25 27 30 32 34 36 37 38 39 40 41 43 44 45 46 46 46 46 44 43 42 41 40 38 36 34 32 30 29 27 26 26 27 27 28 28 27 27
14 14 14 16 17 18 18 21 24 25 27 29 32 34 36 38 40 42 43 44 45 46 47 48 49 50 50 51 50 50 49 48 46 44 42 39 37 34 32 30 28 27 26 27 27 28 28 27 27
17 17 17 18 20 22 22 27 24 27 30 32 35 37 39 41 43 44 46 48 49 50 52 53 53 55 55 56 56 56 56 54 52 50 47 43 40 37 34 31 29 28 27 27 27 28 28 28 27

GEFSSGP_500_meanwind_030.txt.gz
Wind_Speed
11 12 11 10 10 13 7 1 2 2 2 2 3 5 4 2 1 2 2 2 1 1 0 0 1 1 2 4 5 7 8 10 10 11 10 9 8 8 9 9 10 11 11 11 10 10 10 9 9
9 9 8 7 9 11 3 4 3 2 1 1 2 2 2 3 3 4 3 2 2 1 2 2 2 3 4 5 6 7 9 9 9 10 10 10 9 8 8 9 9 10 11 10 10 10 9 9 9
6 6 6 4 6 8 1 5 4 4 3 3 3 3 2 3 3 4 3 3 2 2 3 3 4 4 5 6 7 8 9 9 9 9 10 9 9 9 9 9 10 10 11 11 10 10 9 9 9
4 5 4 5 4 4 2 6 4 5 5 6 6 6 6 5 5 5 5 4 4 4 4 4 5 5 6 7 7 8 9 10 10 10 10 10 10 10 10 10 11 12 11 11 11 10 10 10 10
3 4 3 4 4 2 6 8 7 7 7 8 8 8 8 8 8 7 6 5 4 4 4 4 5 6 7 8 9 10 11 12 12 12 12 12 12 12 12 13 13 13 13 12 11 11 11 11 11
5 5 3 9 10 6 5 8 8 9 7 9 10 9 9 8 8 7 6 5 4 3 4 5 6 7 9 10 11 12 13 14 15 14 14 14 14 15 15 16 16 15 15 14 13 13 13 13 13
8 7 4 8 16 9 6 8 10 10 9 9 11 11 10 9 8 6 5 4 3 4 5 7 9 10 12 13 14 15 16 17 18 18 18 18 18 19 19 20 20 19 18 17 17 17 16 16 17
11 9 6 5 18 16 6 7 11 12 13 11 13 14 11 10 8 7 6 5 6 7 9 11 13 14 15 16 17 18 19 20 21 21 22 22 23 23 23 24 24 24 23 22 21 21 21 21 21
13 12 6 5 15 15 11 8 11 13 17 15 14 18 13 11 9 8 8 9 10 11 12 14 16 17 18 19 20 20 21 23 24 25 26 27 27 27 28 28 28 27 27 27 26 26 26 26 26
16 15 8 10 15 12 12 10 11 12 14 17 20 18 13 11 11 11 11 12 14 16 17 18 19 20 21 22 23 24 24 25 26 27 28 29 30 30 30 30 31 31 31 30 30 30 30 30 30
19 19 16 17 18 20 17 12 12 13 18 24 28 22 11 8 12 14 15 17 18 20 21 22 23 24 25 26 25 26 27 27 28 29 29 30 31 32 32 32 32 33 34 33 33 33 33 33 33
23 23 25 26 24 25 24 19 15 14 20 28 33 31 15 12 15 19 20 21 22 24 25 26 27 28 29 29 30 29 29 29 28 29 29 30 31 31 32 32 32 33 33 34 34 34 33 33 34
24 24 26 27 27 26 25 23 21 18 20 29 35 34 28 22 20 23 24 25 26 28 29 30 31 31 32 32 33 32 31 31 30 29 29 28 29 30 30 30 31 31 31 31 31 31 32 32 32
23 26 27 26 25 25 25 24 22 20 21 30 36 34 28 26 24 27 29 29 30 32 33 34 35 35 35 34 34 33 32 31 31 30 30 30 30 30 30 29 28 27 27 27 27 28 29 30 31
24 26 26 25 24 22 23 24 22 18 20 29 34 35 33 30 30 33 34 34 35 37 37 38 38 37 37 35 34 32 32 32 32 32 31 31 30 30 29 28 27 26 25 26 26 27 29 29 30
21 22 23 21 20 19 24 25 20 17 24 30 34 34 35 34 35 37 38 40 41 41 41 41 41 39 37 35 33 32 32 32 32 31 31 29 28 28 27 26 25 24 24 24 24 25 26 28 29
13 17 16 15 16 22 24 23 18 20 28 31 33 35 37 37 39 42 43 44 45 45 44 44 43 40 37 35 34 33 32 32 31 30 29 28 27 26 25 24 23 22 22 22 22 23 24 26 27
9 11 13 12 16 25 25 22 20 23 28 31 34 38 40 41 42 45 46 46 46 46 44 42 42 39 36 35 34 33 32 32 31 30 29 28 27 25 23 22 21 20 20 21 21 22 24 25 27
16 14 13 13 17 24 26 26 25 27 31 33 37 40 42 42 45 46 47 43 42 43 42 40 38 36 36 35 35 34 32 30 30 29 27 26 25 24 22 21 19 19 20 20 21 22 23 25 27
9 12 15 17 20 24 29 30 27 28 30 35 38 39 39 43 44 46 44 37 38 40 40 36 34 34 34 34 34 33 32 30 29 27 26 25 24 22 21 20 20 20 20 21 22 23 24 25 27
7 10 13 18 22 24 24 22 20 19 24 32 35 34 37 40 43 40 38 36 34 30 24 26 30 32 34 36 35 34 33 31 29 27 25 24 23 22 22 21 21 21 22 23 24 24 24 25 27
11 14 18 20 21 20 17 19 18 20 26 32 32 32 35 37 39 41 42 41 39 37 39 35 31 31 34 35 35 33 31 30 28 27 25 23 23 23 23 23 24 24 24 25 25 25 25 25 26
12 15 16 14 13 13 13 17 20 23 27 29 30 32 35 37 38 39 40 41 42 41 39 39 36 35 33 34 35 33 31 29 26 25 25 24 24 25 25 26 26 26 26 26 27 27 27 26 27
11 10 8 10 16 20 21 20 20 22 25 28 30 32 34 35 36 37 38 39 40 40 40 40 38 37 36 36 35 34 33 30 28 27 27 27 27 28 28 29 30 30 30 29 28 29 28 28 28
13 12 10 14 21 25 20 11 19 21 24 27 29 30 31 32 34 36 37 38 39 40 40 40 41 39 38 39 39 37 35 34 33 31 30 30 31 32 32 32 32 33 33 31 31 30 29 29 29
11 9 11 16 18 20 23 20 24 25 28 30 30 31 32 34 36 38 39 41 42 43 43 44 44 45 44 43 43 42 41 40 39 37 36 35 35 35 36 36 35 35 35 34 33 31 30 30 29
13 10 11 15 15 13 16 28 30 30 31 31 32 35 37 39 40 41 43 45 46 48 49 49 50 50 49 49 49 48 47 47 45 44 43 42 41 40 40 39 38 38 38 37 35 33 32 31 30
16 16 15 15 16 16 15 27 31 33 34 34 37 39 40 41 43 44 46 48 50 52 53 54 54 55 55 55 54 54 54 54 53 51 51 50 48 46 45 44 42 41 39 38 37 35 33 32 31
14 16 18 19 19 21 21 28 32 35 37 39 40 41 42 44 46 48 50 52 53 55 57 58 58 59 59 59 59 59 59 59 59 58 57 56 55 54 52 49 47 45 42 40 39 37 35 34 33
14 19 21 22 22 23 25 32 33 36 39 41 43 46 48 50 51 53 55 57 58 59 61 62 63 64 64 64 64 63 63 63 63 63 63 62 61 59 57 55 53 50 47 44 42 39 37 35 33

GEFSSGP_500_meanwind_036.txt.gz
Wind_Speed
9 9 9 8 7 5 2 4 3 2 5 5 6 6 4 1 4 6 4 5 5 5 4 4 4 3 3 3 3 3 4 5 5 5 6 6 7 7 8 9 9 10 11 11 10 8 7 6 6
8 8 7 6 6 5 2 1 1 2 2 2 3 3 3 2 2 4 4 5 6 6 6 6 5 5 5 5 5 5 5 5 5 5 5 6 6 7 8 8 9 10 10 10 10 9 8 6 5
7 7 6 5 6 5 3 3 2 2 2 2 2 3 3 3 4 4 5 6 7 7 7 7 7 6 6 6 6 6 6 5 5 6 6 7 7 7 8 8 9 9 10 10 10 9 8 7 6
8 9 7 7 7 5 4 4 3 3 3 4 4 3 4 5 6 6 7 8 8 8 8 8 7 7 7 7 6 6 6 7 7 8 8 9 9 9 9 9 10 10 10 10 10 9 8 8 8
10 9 9 10 11 8 7 7 5 4 5 5 5 5 5 7 8 8 9 9 9 9 9 8 8 8 8 7 7 7 8 9 9 10 11 12 12 12 12 12 12 13 13 12 11 11 10 10 10
11 10 10 12 13 9 10 10 8 6 6 6 7 7 6 7 8 9 9 10 10 9 9 8 8 8 8 8 9 10 11 12 12 13 13 14 14 15 15 16 16 16 16 15 15 14 14 14 13
14 11 10 11 11 8 10 12 13 12 8 6 7 9 9 8 9 9 10 10 10 9 9 9 9 10 11 11 12 13 14 15 15 16 16 16 17 18 19 19 19 19 19 19 18 18 18 18 17
16 15 12 12 11 8 8 12 14 14 13 9 9 12 14 11 10 10 11 11 10 10 10 11 12 13 14 14 15 15 16 16 17 17 18 19 19 20 21 22 22 22 22 22 22 21 21 21 21
17 16 15 14 14 11 8 11 15 15 14 13 13 15 15 15 13 11 12 13 12 12 14 16 17 17 17 17 17 17 17 18 18 19 19 20 21 22 23 24 24 25 24 25 25 24 25 25 25
18 17 18 19 18 16 12 10 15 15 15 16 16 18 20 18 15 12 12 14 16 17 19 20 21 21 21 20 20 20 20 20 21 21 21 22 22 23 24 25 26 26 26 26 26 26 27 27 27
19 19 22 24 22 21 18 15 18 19 18 18 18 20 22 22 19 17 15 17 21 24 24 25 25 25 24 23 23 22 23 23 23 23 23 23 23 24 24 25 26 26 26 26 27 27 27 27 27
20 19 25 28 28 27 24 21 21 22 23 23 23 24 25 25 24 22 22 22 24 27 29 29 29 28 28 27 26 26 25 26 26 25 25 24 24 24 23 23 24 25 26 26 26 26 25 25 25
19 20 24 27 30 30 29 27 26 26 26 28 28 29 30 30 30 28 28 29 28 29 31 33 32 32 31 30 30 29 28 28 27 25 25 24 24 25 25 24 24 24 24 25 25 25 25 25 24
21 21 20 21 25 28 30 30 29 28 29 30 30 31 31 32 32 31 31 32 32 34 35 36 35 35 34 32 32 30 29 28 27 25 25 25 25 25 26 25 25 24 24 24 24 24 24 23 23
20 18 16 17 20 22 26 27 25 25 25 26 27 29 31 32 34 34 35 36 37 39 42 41 40 40 38 35 33 32 30 28 27 26 26 26 25 26 25 25 25 24 24 24 24 23 23 22 21
18 16 13 12 14 16 21 21 19 21 23 25 28 30 32 33 36 37 38 39 40 43 47 47 45 39 37 36 35 32 30 29 27 27 27 27 26 26 25 25 24 24 23 23 23 22 21 20 19
16 14 13 12 12 13 16 15 15 20 23 25 29 31 34 35 38 39 40 41 43 45 47 47 43 38 36 36 34 32 30 29 29 27 27 27 26 26 25 25 24 23 23 22 22 21 20 19 18
13 12 11 11 12 12 14 16 19 23 26 29 31 33 35 38 39 41 42 43 43 44 46 44 41 39 33 29 28 27 26 27 26 26 26 25 26 26 25 25 24 23 22 22 21 20 19 18 17
10 11 13 14 13 13 14 18 23 27 30 33 36 37 39 41 42 42 43 43 43 43 44 45 41 35 28 25 27 27 25 24 23 25 25 24 25 25 25 24 24 23 23 22 21 20 19 18 17
10 14 18 19 19 18 20 24 27 30 33 35 36 37 38 40 41 41 41 41 42 43 45 43 38 32 28 25 22 21 20 22 24 24 24 25 26 25 24 24 24 24 23 22 22 21 20 20 18
12 15 18 21 24 24 25 28 30 32 34 36 36 35 35 34 35 37 39 40 42 43 41 39 35 32 29 26 22 21 20 21 22 21 21 23 24 25 25 24 24 24 24 23 23 22 22 21 20
8 12 14 17 21 24 27 29 32 33 34 36 35 32 30 31 33 36 38 39 40 40 38 36 35 33 31 26 24 23 21 22 21 21 22 22 22 24 25 25 26 25 25 26 25 25 23 23 23
6 8 11 12 14 17 19 23 26 28 31 32 33 32 30 31 33 35 37 38 40 40 40 38 37 34 33 30 28 27 26 25 25 25 24 24 24 25 26 27 28 28 28 28 29 28 26 25 25
10 11 11 11 10 11 15 18 21 24 25 24 27 30 31 31 32 35 38 40 42 43 43 43 41 39 37 35 34 33 32 31 31 29 28 27 28 28 29 29 29 30 30 31 31 31 30 29 27
9 11 10 8 10 12 15 18 20 22 22 22 21 23 25 27 30 34 38 41 44 46 47 47 46 45 44 42 41 40 39 38 37 36 36 35 34 33 33 34 33 33 33 33 33 33 33 32 30
10 12 13 13 15 16 17 19 20 22 24 26 26 28 30 31 34 38 41 44 46 48 49 50 50 50 49 48 48 47 46 45 44 43 42 42 42 41 40 40 38 37 37 37 37 36 36 35 34
14 15 15 17 17 18 20 21 22 25 28 30 32 34 36 39 42 46 48 50 52 53 54 55 55 54 54 54 53 52 52 51 50 49 48 48 47 47 46 46 45 43 42 42 41 40 39 39 37
17 18 18 19 19 21 22 24 27 29 31 34 37 40 42 45 48 51 53 55 57 59 61 61 62 61 60 59 58 58 57 57 56 55 55 54 53 52 52 51 51 50 48 47 46 44 43 42 40
15 14 16 18 20 23 26 28 30 33 36 39 41 43 46 49 51 53 56 58 60 62 64 66 67 67 66 65 64 64 63 62 61 61 60 59 58 58 57 56 56 55 54 52 50 49 47 45 43
16 16 18 19 22 25 29 32 34 37 40 43 45 48 50 53 56 58 60 62 64 66 68 69 70 70 69 68 67 65 64 63 62 62 63 63 63 63 62 62 61 59 58 57 55 53 51 49 47

GEFSSGP_500_meanwind_042.txt.gz
Wind_Speed
5 5 6 5 5 5 5 5 6 5 4 3 2 1 3 5 7 9 10 10 10 10 10 10 10 10 10 10 9 8 6 4 3 2 2 2 3 4 5 5 6 7 8 9 9 8 7 5 4
7 8 8 8 7 8 7 6 6 6 6 5 4 3 2 3 4 6 9 9 10 10 11 11 12 12 11 10 9 9 8 7 6 5 4 4 5 5 5 6 6 7 7 8 8 8 7 6 5
9 10 10 10 10 9 8 7 7 7 6 6 6 5 4 4 4 6 7 9 10 11 12 13 13 13 12 11 10 10 9 8 7 7 7 7 7 7 7 8 8 8 8 8 8 7 6 6 5
12 13 12 12 12 11 10 9 9 8 7 7 7 6 6 6 7 8 9 10 10 11 13 14 14 13 12 12 11 11 10 9 9 9 9 9 10 10 10 10 10 11 10 10 9 8 8 7 6
15 15 15 15 15 14 13 12 11 10 9 8 8 7 7 7 8 9 10 11 12 12 14 15 14 13 12 12 11 11 11 11 11 11 12 12 13 13 13 14 14 14 14 14 13 12 11 10 10
17 17 18 18 18 18 17 15 14 12 10 9 8 8 7 7 8 8 10 11 12 13 14 14 14 13 12 12 12 12 13 13 13 14 15 15 15 16 16 17 17 17 18 18 17 17 15 14 13
19 19 19 20 21 21 21 18 17 15 12 9 8 7 8 7 7 8 8 9 11 12 14 14 15 15 14 14 14 15 15 16 16 16 17 17 18 18 19 19 20 20 20 20 20 20 19 18 17
21 20 20 21 22 23 24 22 19 17 14 10 9 9 8 7 7 7 8 9 11 13 14 16 17 18 18 18 19 18 19 19 19 19 19 19 20 21 21 22 22 23 23 23 23 23 23 22 21
22 22 22 23 24 25 26 25 22 19 15 13 11 10 10 9 8 8 9 11 13 15 17 19 21 22 23 23 24 24 24 24 23 23 22 22 22 22 23 23 24 25 25 24 24 25 25 25 24
22 23 23 26 27 27 27 26 25 22 19 16 15 13 13 12 11 11 12 14 16 18 20 22 25 26 28 29 29 29 29 29 28 28 26 25 25 24 24 25 25 26 26 25 25 25 26 26 25
21 22 24 27 28 28 27 27 26 25 22 20 18 16 16 16 15 16 17 19 20 22 24 26 28 30 32 32 33 34 34 34 33 33 31 30 28 27 26 26 26 27 26 26 25 26 26 26 26
21 20 23 26 29 29 29 29 28 27 25 23 22 21 20 20 20 20 21 23 24 26 27 29 30 32 33 34 34 35 37 37 37 37 35 34 32 30 28 28 27 27 26 26 25 25 26 26 26
22 21 22 23 27 29 30 31 31 29 28 27 26 25 25 25 24 24 24 25 27 28 28 30 32 32 32 34 36 36 36 37 37 38 38 37 34 33 31 29 28 27 26 26 26 26 26 26 26
23 21 21 23 26 30 32 33 34 33 31 30 29 29 29 29 28 26 26 26 28 29 29 31 32 33 35 36 35 37 37 38 40 40 40 40 37 35 33 30 29 28 27 26 27 27 26 26 26
22 21 22 24 27 30 33 34 35 34 33 33 33 33 32 30 28 27 27 28 29 30 32 34 35 35 35 37 37 38 38 36 38 39 40 40 39 36 34 32 30 28 27 26 26 26 26 26 26
21 21 23 24 27 28 29 30 31 31 32 32 32 32 30 29 28 29 29 29 32 34 35 37 36 36 36 37 37 37 37 35 34 35 38 38 37 36 34 32 30 29 27 27 27 27 27 26 26
20 20 21 23 24 25 25 25 25 25 27 28 29 29 29 29 29 29 31 33 36 37 38 38 37 38 37 36 36 34 34 32 32 31 34 35 35 34 33 32 31 29 27 27 27 26 26 26 25
17 18 20 23 23 23 22 21 20 21 22 25 27 28 29 31 32 34 36 37 39 40 40 39 39 39 37 34 33 33 32 30 29 27 28 32 33 33 32 31 31 29 27 27 26 25 25 24 24
16 17 19 21 22 22 22 20 19 19 22 25 27 29 31 33 36 38 39 41 42 43 43 41 39 38 36 35 34 32 31 29 27 27 26 27 28 30 32 30 28 28 28 27 26 25 25 24 24
15 16 18 20 21 22 22 22 21 21 23 26 29 31 34 36 39 41 42 42 43 43 43 42 40 40 38 36 35 33 31 30 28 25 25 25 25 27 29 29 28 29 28 27 26 25 25 25 24
13 14 15 17 18 20 21 22 23 25 27 29 31 34 36 39 41 43 44 42 41 41 41 41 41 41 40 39 37 35 33 31 28 27 26 25 25 27 29 29 29 29 28 28 27 27 26 26 26
9 10 11 14 16 17 19 20 20 23 27 30 32 33 34 36 37 38 36 36 37 38 40 41 41 41 41 40 38 37 35 33 32 29 28 28 28 28 29 29 29 30 30 29 29 29 29 28 28
6 7 9 10 12 13 14 16 17 20 23 25 27 28 29 29 30 30 30 30 33 35 37 39 41 42 43 42 41 39 38 37 36 34 33 32 32 32 32 32 31 31 32 32 32 31 31 31 30
6 7 8 9 10 11 13 15 16 18 20 22 24 26 27 28 29 30 31 32 33 35 38 40 42 43 44 44 43 43 42 41 40 39 38 38 37 36 36 36 35 35 35 35 34 34 33 33 32
8 9 10 10 10 11 13 15 17 19 21 23 26 28 29 30 31 33 34 35 37 39 41 43 44 45 45 46 46 46 46 46 45 45 44 44 43 43 42 41 41 40 39 38 38 38 37 36 35
10 11 13 14 14 15 16 16 18 20 23 25 28 30 32 34 36 37 38 39 40 41 43 44 45 46 47 47 48 49 49 50 50 50 50 50 49 49 49 48 47 47 46 44 42 42 41 40 39
11 12 14 16 16 18 18 18 20 23 26 28 31 33 36 38 39 40 41 42 43 44 45 46 47 47 48 49 50 51 51 52 52 53 54 55 55 55 55 55 54 53 52 51 49 47 46 45 44
13 14 15 17 18 20 20 21 23 26 29 32 35 37 38 40 42 44 45 46 47 48 49 50 50 49 49 48 47 47 48 48 49 50 51 53 56 58 60 61 60 59 58 57 56 54 52 51 50
13 15 16 18 19 21 23 25 27 30 33 35 37 39 42 44 46 47 49 51 52 54 54 53 52 50 48 46 45 45 46 47 47 47 48 50 52 55 58 61 63 64 64 63 62 61 59 57 55
14 16 17 18 20 23 26 28 30 33 35 37 39 42 45 47 49 51 53 54 55 55 54 52 51 50 50 50 50 50 50 50 49 49 49 49 49 51 54 57 60 64 67 68 68 66 65 63 60

GEFSSGP_500_meanwind_048.txt.gz
Wind_Speed
3 2 3 3 3 5 6 6 6 6 6 5 4 4 5 6 7 7 7 7 7 7 7 7 7 7 7 8 9 10 10 10 10 9 9 8 7 6 5 5 4 4 4 4 4 4 4 3 2
5 4 4 4 4 6 9 8 7 7 8 7 6 5 6 6 7 7 6 7 7 7 7 7 7 7 8 9 9 10 10 11 11 11 10 9 9 8 8 7 6 5 4 4 3 3 3 3 2
7 7 6 6 6 7 10 9 9 9 9 9 8 8 7 7 8 8 7 7 6 7 7 7 7 8 9 9 10 11 11 12 12 12 12 11 11 11 11 10 10 9 8 7 6 5 4 4 3
10 10 9 9 10 11 11 11 11 11 11 11 11 11 10 10 9 9 8 8 8 7 7 7 7 8 9 10 10 11 12 12 13 13 13 13 13 13 13 13 13 12 11 10 9 9 7 6 6
13 12 12 12 14 15 14 13 13 13 12 12 13 14 13 11 11 10 10 10 9 9 8 7 8 9 9 10 11 12 12 13 14 14 15 15 16 16 16 16 16 15 15 14 13 12 11 10 9
15 15 14 14 17 17 17 16 14 13 13 13 13 14 14 12 12 11 10 9 9 8 8 8 9 10 11 11 12 13 14 15 15 16 17 17 18 18 19 19 19 18 18 18 17 16 15 14 13
17 17 17 17 19 21 20 18 16 15 14 13 13 14 14 13 12 11 10 10 9 9 9 10 11 12 13 13 14 15 16 17 18 19 20 20 21 21 21 22 22 22 21 21 20 19 18 18 17
19 19 19 20 21 23 21 20 18 16 15 14 14 14 14 13 12 12 11 11 11 12 12 13 14 16 17 17 18 19 20 21 22 23 24 24 24 25 25 25 25 25 25 24 23 22 22 21 20
21 20 20 22 23 23 23 22 21 18 17 16 15 15 15 14 13 13 13 13 14 15 16 17 19 20 21 22 23 24 25 25 26 27 28 29 29 29 29 29 29 29 28 27 26 25 25 24 23
22 21 22 23 23 24 25 25 23 22 21 19 18 17 17 16 16 16 16 16 17 18 20 22 23 24 25 27 27 28 29 29 29 31 32 33 33 34 33 33 33 32 31 30 29 28 27 26 26
23 22 22 23 24 25 26 27 26 25 24 22 21 20 19 19 19 19 19 20 21 22 24 25 26 27 28 29 30 30 32 32 32 32 33 34 35 36 36 36 36 36 35 33 32 31 29 28 28
23 22 23 24 25 26 27 28 28 27 26 26 25 23 22 22 21 22 22 23 24 25 25 27 28 29 30 31 32 33 33 33 34 34 34 35 36 37 38 38 39 39 38 36 35 33 32 30 29
23 22 23 23 25 26 27 28 29 29 29 28 28 27 26 25 25 25 25 26 27 27 28 29 31 32 32 33 34 34 33 33 33 32 33 35 37 38 39 39 40 41 40 39 37 35 34 32 30
22 22 22 22 24 25 26 28 29 29 29 30 30 30 29 29 28 28 28 28 29 29 31 31 33 34 34 34 35 34 34 33 33 33 34 36 36 37 39 40 39 40 41 41 40 37 35 33 32
20 20 21 22 23 24 25 27 28 28 29 30 30 30 31 31 31 30 30 30 30 31 33 34 36 37 37 37 37 36 35 33 33 34 34 35 35 35 36 38 38 39 41 42 41 37 35 35 33
17 16 17 21 21 21 22 25 25 26 27 27 27 28 28 29 30 30 31 31 32 33 35 37 38 39 40 40 40 38 36 35 33 32 33 33 33 34 36 37 37 39 40 40 39 38 37 36 34
11 10 13 18 18 19 20 23 23 23 23 23 23 23 24 26 27 29 30 32 34 35 37 39 40 42 42 43 42 39 38 36 34 32 32 32 31 32 35 35 34 36 39 38 39 39 37 35 34
8 9 11 15 17 18 20 21 22 22 22 22 22 22 23 24 27 28 30 32 34 37 39 41 43 44 44 44 42 41 39 38 37 35 34 33 32 32 34 34 33 34 35 36 38 38 37 36 34
9 8 10 14 15 17 18 20 20 21 22 22 22 22 23 25 27 29 31 34 36 39 41 43 44 44 43 43 42 41 40 39 38 37 37 35 34 33 34 33 33 34 35 36 37 37 37 37 35
6 7 9 12 13 15 16 17 18 18 19 20 21 23 24 26 28 30 32 35 37 39 40 41 41 40 40 40 40 40 40 40 40 39 39 37 35 34 33 32 32 33 33 34 34 37 38 37 35
5 6 8 10 11 11 13 13 14 14 15 16 18 20 23 25 28 30 32 34 35 36 37 38 38 38 39 40 40 41 41 41 41 41 40 38 37 35 35 33 32 33 32 33 34 35 37 36 35
6 7 7 8 9 11 9 11 13 14 15 17 18 20 22 24 26 28 30 32 33 34 36 37 38 39 40 42 43 43 44 45 45 44 43 41 40 38 36 36 35 35 34 33 33 34 36 35 35
6 6 7 8 9 10 10 11 16 15 16 18 20 21 23 25 27 29 31 32 34 36 38 40 41 42 43 45 46 47 48 48 48 47 46 45 44 42 40 38 36 36 37 36 35 34 36 36 36
5 7 8 9 9 10 14 12 18 17 18 20 22 24 25 27 29 31 32 34 37 39 41 42 43 45 47 48 49 50 51 51 51 50 49 48 47 46 44 42 41 39 40 40 39 37 38 38 37
6 7 8 9 9 13 17 15 17 18 20 22 24 25 27 28 30 32 34 36 38 40 42 43 45 46 48 49 50 51 52 52 52 52 52 51 51 50 48 47 46 45 44 43 43 42 41 39 39
7 7 7 8 10 14 16 15 16 18 20 22 24 26 28 30 32 34 36 38 39 41 42 44 44 45 46 48 49 49 49 49 49 49 49 50 50 51 51 51 50 50 50 49 48 47 45 44 43
7 7 8 9 10 10 14 15 16 19 21 23 25 27 29 31 34 36 38 40 41 42 42 43 43 43 44 44 43 43 43 43 44 45 46 48 49 50 51 52 53 54 54 54 54 53 51 50 48
6 7 8 8 9 10 13 18 20 21 23 25 27 29 31 33 36 38 40 41 42 42 42 42 42 41 40 39 38 39 40 41 43 44 45 47 48 50 51 52 54 55 56 58 59 59 58 57 54
7 8 9 10 10 12 12 18 20 22 24 26 28 30 33 35 38 40 41 42 42 42 42 41 41 39 38 38 39 40 42 44 45 46 48 48 49 50 52 53 54 55 58 59 61 63 64 64 62
9 10 11 12 13 14 16 20 20 23 25 27 30 33 35 37 40 42 42 42 42 42 42 41 40 39 40 40 42 43 45 47 48 49 49 50 51 52 53 53 55 56 57 59 62 65 67 68 68

GEFSSGP_500_meanwind_054.txt.gz
Wind_Speed
7 6 6 5 5 6 7 7 6 8 9 9 8 8 10 9 10 10 12 13 12 13 12 11 10 9 9 8 8 8 8 9 10 11 12 12 13 12 12 12 11 11 10 9 9 8 8 7 6
6 6 5 5 8 13 11 9 10 11 10 9 10 10 11 10 10 10 11 12 11 12 12 11 10 9 8 7 7 8 8 9 10 11 11 12 12 13 13 12 12 12 12 11 10 9 8 7 7
6 6 5 6 9 12 12 13 12 13 13 11 12 11 11 11 11 11 11 11 11 11 11 11 10 9 9 8 8 8 8 9 10 10 11 11 12 13 13 13 13 14 13 12 11 10 9 8 8
8 7 5 5 8 9 12 14 12 11 14 13 12 13 12 13 13 13 13 12 12 12 11 10 10 10 9 9 9 9 10 10 11 12 12 12 12 13 14 14 14 15 15 14 13 13 12 11 10
11 9 5 7 9 10 14 16 12 11 12 14 16 16 15 14 15 15 14 14 13 12 11 10 10 10 10 10 11 12 13 14 14 14 14 14 15 15 15 15 16 16 16 16 15 15 14 14 13
13 12 8 2 5 12 17 18 13 12 13 13 15 16 17 16 15 15 15 14 14 12 11 11 11 11 11 12 13 15 16 17 18 18 18 18 18 18 18 18 18 18 18 18 18 17 17 16 16
15 14 11 6 7 11 19 21 16 14 14 13 15 17 16 16 16 15 15 15 14 14 14 13 13 14 14 15 16 18 19 20 21 22 22 22 23 23 23 23 22 22 21 20 20 20 19 19 19
18 16 13 6 5 10 19 20 18 16 17 16 18 20 18 16 17 17 16 16 17 16 17 17 17 17 18 18 19 20 21 22 23 24 25 26 26 27 27 27 27 26 25 24 23 23 22 22 22
20 18 13 5 6 12 20 21 18 16 18 20 20 20 19 18 17 18 18 19 19 20 19 19 19 20 20 21 22 23 23 24 25 26 27 28 29 29 30 30 30 29 29 28 27 26 25 25 25
21 20 15 10 15 18 22 23 19 17 20 21 19 19 20 19 19 19 20 21 21 22 22 22 22 23 23 23 24 25 25 26 28 28 29 30 30 31 31 31 31 32 32 31 30 30 28 28 27
22 21 19 17 20 23 23 21 19 19 24 23 22 22 23 22 23 23 22 23 22 23 24 25 24 25 26 25 26 27 28 28 29 29 30 31 33 33 34 34 33 33 34 34 33 33 32 31 31
23 22 21 21 23 24 23 21 21 23 25 25 25 25 25 25 26 24 23 25 24 25 27 28 28 27 29 29 29 29 31 32 31 32 32 33 34 35 36 37 36 35 35 36 37 36 35 35 34
21 21 21 21 23 24 23 22 23 24 24 25 25 26 27 27 28 28 27 27 27 29 30 31 31 31 32 33 33 33 34 34 35 36 36 36 37 37 37 36 38 38 38 37 37 37 37 36 35
18 19 19 20 21 22 23 22 23 24 24 25 25 26 27 29 30 30 31 31 31 32 33 34 34 34 35 36 36 36 37 38 39 40 40 40 39 38 38 38 38 38 38 37 36 38 38 36 36
14 14 14 17 18 19 20 19 21 22 23 24 24 25 27 28 29 32 32 33 34 35 34 35 36 36 37 38 39 40 41 42 42 42 43 42 41 40 39 38 37 37 37 37 37 37 38 37 37
7 8 10 14 15 15 14 18 22 21 21 23 23 24 25 26 28 30 31 32 33 34 35 36 38 38 39 40 41 42 43 44 44 44 44 43 42 41 39 38 37 37 36 36 35 35 36 37 37
6 11 14 17 15 12 13 19 20 20 21 22 22 22 22 23 24 26 28 30 31 33 34 36 38 39 40 42 44 45 46 46 46 45 45 44 42 41 39 38 38 37 36 36 35 34 35 35 35
13 14 15 17 12 11 14 19 19 21 22 21 21 21 21 22 23 25 26 28 30 32 34 36 38 40 41 43 45 46 46 46 47 46 45 43 42 41 39 39 38 37 37 37 36 36 35 35 35
8 8 9 10 10 13 17 19 18 18 18 18 18 19 20 20 22 24 25 27 30 32 35 37 39 41 43 45 45 46 46 47 47 46 45 42 41 41 41 40 39 39 39 38 37 37 36 35 35
7 10 11 11 14 14 15 18 15 14 14 15 16 17 18 20 21 23 26 28 30 33 35 37 39 40 42 43 44 45 45 46 46 46 45 44 42 42 43 43 42 42 41 40 38 38 35 33 34
9 11 12 13 14 14 15 17 14 11 11 12 14 17 18 20 21 23 25 27 29 31 33 35 36 38 40 42 43 45 46 46 46 46 46 45 44 44 44 45 45 44 43 41 39 37 35 35 34
11 11 11 11 13 17 18 20 17 14 9 11 15 18 20 21 22 24 26 27 29 31 33 35 36 38 40 42 44 45 46 46 46 47 47 47 47 46 45 45 46 45 45 43 41 40 38 37 36
9 8 10 13 17 21 22 22 16 11 7 14 18 20 22 23 24 25 27 28 30 33 35 37 37 38 40 42 44 44 45 46 47 47 47 46 46 45 45 45 45 45 44 44 43 41 40 39 38
8 9 13 16 19 19 16 14 11 17 18 20 22 23 23 24 25 27 28 30 32 34 36 38 39 39 40 41 43 44 45 45 46 46 46 45 44 44 43 43 43 42 43 43 43 42 41 40 39
7 10 15 20 23 17 13 9 12 19 21 23 25 25 25 26 27 29 30 32 34 36 37 38 40 40 40 41 42 43 44 44 43 43 43 42 41 41 41 40 41 41 40 41 41 42 41 41 41
7 9 13 17 21 19 14 9 15 19 21 22 24 24 25 27 28 30 32 34 36 38 39 40 40 40 41 41 42 42 41 41 40 41 41 40 39 39 39 39 40 40 41 41 41 42 42 42 42
7 7 9 9 11 14 18 18 17 19 21 22 23 24 26 28 30 32 34 36 38 39 40 41 41 41 41 41 40 40 39 39 39 39 39 39 40 40 41 42 42 42 43 43 43 43 44 45 44
10 9 9 6 7 7 13 19 20 22 22 23 24 25 27 30 32 34 36 38 40 40 41 41 41 41 41 40 39 38 38 38 39 39 39 40 41 43 44 45 45 45 46 46 47 46 46 47 48
10 10 10 8 7 5 9 21 21 22 23 23 25 27 29 31 33 35 37 39 41 41 42 42 42 41 40 40 39 38 38 39 39 40 41 42 43 44 45 47 48 49 49 49 49 49 49 49 50
9 11 11 10 10 8 9 21 22 22 23 25 27 28 30 32 34 36 39 41 41 42 42 42 41 41 41 40 39 39 39 40 41 42 43 44 45 46 47 48 49 50 51 51 52 52 52 52 52

GEFSSGP_500_meanwind_060.txt.gz
Wind_Speed
6 5 5 5 5 4 6 8 8 9 8 8 6 4 4 6 6 6 6 6 6 6 6 6 5 5 5 5 5 5 5 5 5 6 6 7 7 7 7 8 8 8 9 9 9 9 10 10 10
7 4 3 4 4 5 6 9 10 11 13 11 10 6 5 5 5 5 6 6 5 5 6 6 5 5 5 5 5 5 5 5 6 6 7 7 8 8 8 8 8 8 8 9 9 9 9 9 9
8 5 3 3 1 3 6 9 12 14 15 15 14 11 8 7 6 6 6 7 6 6 6 6 5 6 6 6 6 6 6 6 7 8 8 9 9 9 9 9 9 9 9 9 9 10 9 9 9
9 7 3 1 3 3 5 9 14 16 17 18 18 15 10 8 8 8 7 7 6 6 6 6 6 6 6 6 7 7 7 8 8 9 9 10 10 10 10 10 10 11 11 11 11 11 11 10 10
10 8 5 4 6 5 5 8 13 17 20 21 20 17 13 10 10 9 8 7 6 6 6 6 6 7 8 8 9 10 10 10 10 10 10 11 11 11 12 12 12 13 13 13 13 13 13 13 12
12 9 5 4 6 5 3 8 14 19 22 22 21 18 15 11 9 9 8 7 6 6 6 7 8 9 10 11 12 12 12 12 12 13 13 13 13 14 14 14 15 15 15 15 15 15 15 15 15
14 9 4 6 7 4 3 9 16 20 23 24 22 19 17 13 11 10 9 7 7 7 7 8 9 10 12 12 12 13 13 14 14 14 15 15 15 16 16 17 17 17 17 17 17 17 18 18 18
16 11 8 12 12 10 9 11 16 21 24 24 23 21 19 16 14 10 9 8 8 8 9 10 11 12 12 13 14 15 15 15 15 16 16 17 17 18 18 18 19 19 19 20 20 20 20 21 21
18 12 13 17 17 15 14 15 19 22 25 25 25 23 20 17 15 12 10 10 10 10 11 12 12 13 14 15 15 16 16 17 17 18 18 18 19 19 20 20 21 21 22 22 23 23 23 23 23
19 15 18 21 21 20 18 17 20 23 25 25 25 23 22 20 19 16 14 13 13 13 14 14 14 14 15 16 17 18 18 19 20 21 21 21 22 22 23 23 23 24 25 25 25 25 25 25 26
21 18 21 23 24 23 21 21 22 25 26 27 27 26 24 23 22 20 18 17 15 15 16 18 17 17 18 19 20 21 21 22 23 23 24 24 25 26 26 27 26 27 28 28 27 27 26 27 28
22 21 23 25 26 25 24 24 25 27 28 30 30 29 27 26 25 24 22 20 19 19 20 22 21 21 21 23 23 24 24 25 26 26 27 27 28 28 29 30 29 29 29 30 30 30 28 27 28
22 22 23 25 27 26 25 26 27 28 29 30 30 29 28 28 27 26 25 23 23 23 23 24 23 24 25 26 26 26 27 27 28 29 29 30 30 31 32 31 31 31 30 31 32 31 29 28 28
19 20 21 22 24 24 24 24 25 26 26 28 29 28 27 27 25 25 24 25 26 26 25 25 26 27 28 29 28 29 29 30 31 32 32 32 32 33 33 33 34 33 32 32 31 30 30 29 29
16 17 18 18 19 20 21 23 22 22 23 24 25 25 25 25 25 25 26 26 26 27 27 27 27 29 30 30 31 32 33 34 35 35 35 35 35 35 34 35 35 34 34 33 32 30 29 28 29
12 14 14 15 16 18 20 21 20 19 19 20 21 23 23 24 24 24 25 25 26 26 27 27 28 29 29 30 31 33 34 36 37 37 37 37 37 36 36 36 36 36 36 35 33 32 31 29 29
8 10 11 13 14 16 18 20 20 18 18 19 20 21 21 21 22 22 23 24 25 25 26 27 28 29 30 31 33 35 36 38 39 39 39 39 39 38 39 38 38 37 36 35 34 33 31 30 29
7 8 9 11 13 16 19 21 22 21 19 18 17 17 16 17 18 20 21 23 24 25 26 27 29 30 32 33 35 37 38 39 40 41 41 40 41 41 40 40 39 38 37 36 36 34 33 32 31
6 8 9 9 12 17 19 21 22 21 19 16 14 13 14 14 15 17 19 21 23 24 25 27 29 30 32 34 35 37 38 40 40 41 41 41 42 41 41 41 40 39 39 38 37 36 35 34 33
6 7 8 7 7 11 15 19 18 19 16 13 12 11 11 11 13 15 18 19 21 22 24 26 28 30 32 34 36 37 39 40 41 41 42 42 42 41 41 40 40 40 40 40 39 38 36 36 36
7 9 9 9 10 12 14 16 16 17 14 10 9 9 8 10 12 14 16 18 19 21 23 25 27 30 32 34 36 37 39 40 40 41 41 41 41 41 41 40 40 40 40 40 40 39 38 36 36
8 10 10 11 13 15 17 15 13 11 5 5 5 5 5 7 10 12 15 17 19 20 22 24 26 29 31 33 35 37 38 38 39 39 39 39 39 39 39 39 38 38 38 38 39 39 38 37 36
8 9 9 10 12 14 14 13 10 7 5 2 1 2 5 8 10 12 14 17 18 20 22 24 25 27 29 30 32 34 36 37 38 38 39 39 38 38 37 36 35 34 34 34 35 36 36 36 36
8 7 8 10 11 13 14 12 10 8 7 7 6 7 9 11 12 15 17 19 21 22 25 26 27 28 29 31 32 33 34 35 36 37 37 37 37 37 36 35 34 33 33 32 32 32 33 34 35
7 7 7 8 10 12 13 12 12 10 8 8 9 11 13 15 17 19 21 23 25 27 29 30 32 32 33 33 34 35 35 35 35 36 37 37 37 37 36 35 34 33 33 33 32 32 32 32 33
6 7 8 8 9 9 10 10 11 12 10 9 12 14 16 19 21 23 26 28 30 31 33 34 35 35 35 35 36 36 36 36 36 37 37 38 37 37 37 36 35 35 35 34 34 33 34 34 34
6 8 9 9 9 9 9 9 11 12 11 12 15 17 20 22 25 27 29 31 33 34 36 37 37 37 37 37 37 37 37 38 38 38 39 38 38 38 38 38 38 37 37 37 36 36 36 36 36
8 9 9 8 9 10 10 11 13 14 15 16 18 21 23 25 27 29 31 33 35 36 38 39 39 39 39 38 38 38 38 39 39 39 39 39 39 39 39 39 39 39 39 39 39 38 38 38 38
8 9 10 10 11 12 14 15 15 16 17 19 21 24 26 27 29 30 32 34 36 38 39 40 40 40 39 39 39 39 39 39 39 39 39 39 39 39 39 39 39 40 40 41 41 41 42 41 41
8 9 10 11 12 14 16 17 18 19 20 22 24 26 27 28 29 31 33 35 37 39 40 40 40 40 40 40 40 40 40 40 40 39 39 39 39 39 39 40 40 41 41 42 43 44 44 45 44

GEFSSGP_500_meanwind_066.txt.gz
Wind_Speed
5 4 4 3 2 3 2 2 3 5 7 8 9 10 9 9 8 7 5 5 5 5 5 5 4 4 3 4 4 4 4 4 3 3 3 3 3 3 3 3 3 4 4 5 6 6 7 7 8
7 6 6 6 5 5 4 3 2 3 5 6 8 9 9 9 8 7 6 5 5 5 5 5 4 3 3 4 3 4 4 4 4 3 3 3 3 3 3 4 4 4 4 4 5 5 5 5 6
9 8 8 9 9 8 7 6 5 4 5 6 8 9 10 10 9 8 7 5 4 5 5 4 3 3 3 3 3 4 4 5 5 5 4 4 5 5 5 6 6 6 6 6 6 6 6 5 5
10 10 10 11 12 10 9 9 8 7 6 7 9 10 11 11 11 9 7 6 5 6 5 4 3 3 3 4 4 5 5 6 6 6 6 6 7 7 7 8 8 9 9 9 8 8 8 8 8
12 12 13 14 14 13 12 11 10 9 8 9 9 10 12 12 11 10 8 6 6 6 6 6 5 4 5 5 6 7 7 7 7 7 8 8 9 9 9 9 10 11 11 11 11 11 12 11 11
14 14 15 17 17 15 14 13 11 10 9 9 9 10 12 13 12 11 9 7 7 7 8 8 7 6 6 7 8 8 8 8 8 8 9 9 9 10 10 11 12 13 13 13 13 13 14 14 14
17 16 17 19 19 19 17 16 14 12 10 10 10 11 12 13 13 12 10 10 9 9 9 9 8 8 8 9 9 9 9 9 9 10 10 11 11 12 12 13 14 15 15 15 16 16 16 16 16
19 18 20 22 22 21 20 19 17 14 13 12 11 11 12 13 13 13 12 12 11 11 11 11 11 11 11 10 10 11 11 11 12 12 12 13 13 14 14 15 16 17 17 18 18 18 19 19 19
22 20 22 25 25 24 23 21 20 18 17 16 13 13 13 13 13 14 14 14 14 13 13 13 13 13 12 12 13 13 13 14 14 15 15 16 16 17 17 18 19 20 20 21 21 21 21 22 22
24 23 26 28 29 27 26 24 23 21 20 18 15 14 15 14 15 17 18 17 17 16 16 16 17 17 16 16 16 17 17 17 18 19 19 19 19 19 20 20 21 22 23 23 24 23 24 24 24
24 24 28 31 31 30 29 28 26 24 23 20 17 17 18 18 19 21 21 20 20 20 20 19 20 20 20 20 20 20 21 22 22 22 22 22 22 22 22 22 23 24 25 25 25 25 26 25 26
23 25 27 31 32 32 32 31 29 28 25 23 20 20 21 22 22 23 23 22 22 22 22 22 23 23 24 25 24 23 24 24 25 25 24 24 24 24 23 24 26 27 27 27 27 26 27 27 28
22 23 26 29 31 32 32 32 31 30 27 25 24 24 23 23 23 23 22 21 22 22 23 24 24 25 26 26 26 26 26 26 26 25 25 25 25 25 26 27 28 28 29 29 29 29 29 29 29
19 21 23 26 29 31 32 32 32 30 28 27 27 26 26 24 22 21 20 20 21 22 22 23 24 25 24 25 26 25 24 25 26 26 26 26 26 27 29 29 30 30 30 31 31 31 31 30 30
16 17 20 23 26 29 30 31 31 30 29 29 28 27 25 22 20 19 20 20 20 20 21 21 22 23 24 24 25 26 27 27 27 28 28 29 29 31 32 32 32 32 32 32 32 31 31 32 31
12 13 16 20 23 26 28 28 27 27 27 27 26 25 23 21 19 19 19 20 19 18 19 20 21 22 23 24 25 26 27 27 28 29 29 30 31 31 32 33 32 33 33 34 34 33 33 33 33
9 11 13 15 18 21 23 24 25 25 25 25 24 23 22 21 18 18 18 18 17 18 19 20 21 22 23 24 25 26 27 28 28 29 30 30 31 32 32 33 33 34 35 35 35 35 34 34 33
8 10 11 12 13 15 18 21 22 22 23 23 23 22 21 19 17 16 16 16 16 17 18 19 20 21 22 23 24 26 27 28 29 30 30 31 32 33 34 34 35 35 36 36 35 35 35 35 34
7 7 8 10 12 14 16 18 19 20 21 22 22 22 20 18 17 16 15 16 16 17 19 20 21 22 24 25 26 27 29 30 30 31 32 33 33 34 34 35 36 36 36 36 37 36 36 36 36
6 6 6 8 9 9 10 13 16 17 19 19 18 18 17 15 14 14 14 16 17 18 19 20 21 23 25 26 28 29 30 31 32 32 32 33 33 34 34 35 35 35 36 36 37 37 37 36 37
6 5 5 5 5 7 8 10 12 12 13 12 13 13 13 13 12 13 14 15 17 18 19 21 23 25 27 28 30 31 32 33 33 33 34 34 34 34 34 34 35 35 35 36 36 36 36 36 36
5 5 5 5 4 4 5 6 6 6 7 6 6 7 8 9 11 13 14 16 17 19 21 22 24 26 27 28 30 31 32 33 33 34 34 35 34 34 34 34 34 34 35 35 36 36 36 35 36
4 4 4 4 3 3 5 7 5 3 1 2 2 4 5 7 9 12 14 16 18 19 21 22 23 25 27 28 29 30 30 31 32 33 33 34 34 34 34 34 34 34 34 35 35 36 36 36 36
4 4 4 3 3 3 4 6 7 6 5 2 1 3 5 8 10 12 14 16 18 19 20 22 23 25 26 27 28 28 29 29 30 31 31 32 33 33 34 34 34 35 35 35 35 35 36 36 36
5 5 3 2 2 2 3 4 6 5 4 1 2 5 7 9 11 13 15 16 18 19 21 22 24 25 27 27 28 29 29 29 30 30 31 32 33 34 35 35 35 35 35 35 35 35 36 36 36
5 6 6 5 4 2 2 3 5 5 4 4 5 7 9 11 12 14 15 16 18 20 22 23 25 27 28 29 29 29 30 30 30 31 31 32 33 34 35 36 36 36 36 36 36 36 36 36 36
6 7 7 6 5 4 4 4 5 6 6 6 7 9 10 12 13 14 15 17 19 21 23 25 26 28 29 30 30 31 31 31 31 32 32 33 34 34 35 36 36 36 36 36 36 36 37 37 37
7 8 8 7 6 4 3 4 5 7 8 9 10 11 11 13 14 15 17 19 21 24 26 27 29 30 31 31 31 32 32 32 33 33 34 34 35 35 36 37 37 37 36 36 36 36 37 37 37
8 9 9 8 7 6 4 5 6 8 9 10 11 12 13 15 16 17 19 22 24 26 28 30 31 31 32 32 33 33 33 34 34 35 35 36 36 36 37 37 37 37 37 37 37 37 37 37 37
9 10 9 8 7 7 7 7 8 9 11 12 13 14 15 16 18 20 22 24 26 28 30 31 31 32 33 33 34 34 35 35 36 36 37 37 37 37 37 37 37 37 37 37 37 37 37 37 38

GEFSSGP_500_meanwind_072.txt.gz
Wind_Speed
6 5 5 4 4 5 5 4 3 2 2 2 2 2 1 2 2 2 1 1 0 1 1 1 1 2 3 3 4 3 3 3 3 3 3 3 3 2 2 2 2 1 1 0 0 1 1 1 2
8 7 7 7 6 5 7 6 5 4 3 3 2 2 2 2 2 1 1 2 1 1 1 1 2 3 4 5 5 5 5 4 4 4 4 4 4 4 4 3 3 3 3 3 3 3 2 2 1
10 10 10 10 9 9 9 8 7 6 5 4 3 3 3 2 2 2 2 2 2 2 3 3 4 5 6 6 6 7 6 6 6 6 6 6 6 6 6 6 5 5 6 6 5 5 5 5 4
12 13 13 12 13 13 11 10 9 8 7 6 5 4 4 3 3 3 3 3 3 3 4 5 6 6 7 8 8 8 8 8 8 9 9 8 8 8 8 8 7 7 7 7 7 8 8 8 7
15 15 15 16 16 15 14 13 11 10 9 8 7 6 5 4 4 4 4 4 4 4 5 6 8 9 9 10 10 10 10 10 10 10 10 10 10 10 9 9 9 9 9 9 9 9 9 9 9
18 18 18 19 20 18 16 15 13 13 11 10 9 8 6 6 5 5 5 5 5 6 7 8 9 10 11 12 12 12 12 12 12 12 12 12 11 11 10 11 11 11 11 11 11 11 11 11 11
20 21 21 22 22 22 20 17 16 15 14 13 12 11 8 6 6 6 6 7 7 8 9 11 12 13 13 14 14 14 14 14 14 14 13 13 13 12 13 13 13 12 12 12 13 13 13 13 13
22 23 24 25 25 25 23 20 19 18 17 16 15 14 11 9 8 8 9 10 10 10 12 14 15 15 15 16 16 16 16 16 16 16 16 16 16 16 15 15 15 15 14 14 15 14 15 15 15
24 24 26 27 28 28 25 24 22 20 20 19 18 17 14 11 11 11 12 13 13 13 15 16 17 17 17 18 19 19 19 20 19 19 20 20 20 20 19 18 18 18 17 17 17 17 17 17 17
23 25 27 29 28 28 27 26 24 23 22 21 19 19 16 14 14 14 15 16 16 17 17 18 19 20 20 20 21 21 21 21 21 22 22 23 24 24 23 22 21 21 20 20 20 19 19 19 19
20 23 26 27 27 27 27 27 26 25 24 22 21 18 18 17 17 17 18 19 20 20 20 21 22 23 23 23 24 24 24 24 24 25 26 27 27 28 27 25 25 24 24 23 22 22 21 20 20
16 18 22 24 24 24 25 26 25 26 25 24 23 21 20 20 20 21 21 21 21 21 22 23 23 24 25 25 25 25 26 27 27 28 29 28 28 28 29 27 26 26 25 25 25 24 23 23 22
11 13 16 18 20 21 22 24 24 25 25 25 24 23 23 22 22 22 22 22 22 23 23 23 23 24 24 24 24 24 25 26 27 28 27 26 26 26 26 27 26 25 25 25 25 25 25 24 24
9 10 10 13 15 17 19 21 22 24 24 24 23 23 22 22 22 22 22 22 22 22 22 22 22 24 24 22 22 22 21 21 22 23 24 24 25 26 26 26 26 26 26 26 26 27 27 27 26
9 7 7 9 11 13 15 18 20 22 23 23 23 23 22 22 22 22 21 21 20 21 21 21 21 21 21 19 19 18 19 20 21 22 22 23 23 24 25 25 25 26 27 27 28 29 29 29 29
10 8 6 8 9 11 13 16 19 20 21 22 23 23 22 22 21 20 20 19 19 19 19 19 17 17 16 16 18 18 19 20 21 22 23 23 23 22 23 24 25 25 26 28 29 29 30 31 31
11 8 7 9 8 10 12 16 18 19 20 21 22 22 22 21 20 19 18 18 17 17 17 16 16 15 15 16 17 18 18 19 20 21 22 23 23 23 24 25 26 27 28 28 29 30 31 32 32
6 7 8 9 9 9 12 14 16 17 18 19 20 20 20 20 19 18 18 17 15 15 14 15 15 15 15 16 16 17 18 19 21 21 22 23 23 23 25 26 26 28 29 30 30 31 31 32 31
6 6 8 9 9 10 11 13 14 15 17 19 19 19 19 17 17 16 14 13 13 12 12 13 14 14 15 16 17 18 19 20 22 22 23 23 24 24 25 26 26 27 28 29 30 31 31 32 32
7 8 9 9 8 9 10 10 11 12 14 16 16 16 16 15 14 13 12 12 11 11 11 12 13 14 15 17 18 20 21 22 23 23 23 24 24 24 25 25 25 26 27 28 28 29 30 31 31
7 7 8 8 8 8 9 9 9 8 8 8 10 10 10 10 10 9 9 9 9 10 12 13 15 16 17 19 20 21 22 23 23 24 24 24 24 24 25 24 25 26 27 28 28 29 29 30 31
7 7 7 7 8 8 9 10 9 6 4 4 4 4 5 6 5 6 7 8 9 11 13 15 16 18 20 21 22 22 23 23 24 24 24 24 24 24 24 24 25 26 27 28 28 29 30 31 32
6 6 7 6 6 7 8 9 8 6 3 1 2 2 2 3 5 6 8 9 11 13 15 17 18 19 20 21 22 22 23 23 24 24 24 24 24 24 24 25 26 26 27 28 29 30 31 31 32
6 6 6 6 7 7 7 8 8 7 5 3 2 2 3 4 6 8 10 11 13 15 16 18 19 20 20 21 21 22 23 23 23 23 23 24 24 25 25 25 26 27 28 29 30 30 31 32 33
6 5 6 7 8 8 7 6 7 7 6 5 5 5 5 7 8 10 12 13 14 16 17 19 20 20 21 21 21 22 22 23 23 23 24 24 25 25 25 26 26 27 28 29 30 31 32 33 34
6 4 3 3 5 7 8 7 8 7 7 7 7 7 7 9 10 12 13 14 15 17 18 19 20 20 21 21 22 22 22 23 23 23 24 24 25 26 26 27 27 28 29 30 31 32 33 34 35
6 4 4 5 6 7 8 9 9 8 8 8 8 8 9 10 12 13 15 15 16 17 18 19 20 20 21 21 21 22 22 22 22 23 24 25 26 27 27 28 29 29 30 31 32 33 34 34 35
7 7 6 4 4 5 8 9 10 10 9 9 9 10 11 12 13 15 16 17 17 18 18 19 20 20 21 21 21 22 22 23 23 24 26 26 27 28 29 30 31 31 32 32 33 34 34 35 35
9 9 8 6 6 4 6 10 11 10 10 10 10 11 12 13 14 15 16 16 17 17 18 19 20 20 21 21 22 23 23 24 25 27 28 29 30 31 31 32 33 33 34 34 34 35 35 35 35
10 9 8 7 9 8 7 11 12 12 11 11 11 12 13 14 15 15 16 16 17 17 18 19 20 21 21 22 23 24 25 26 28 29 30 31 32 33 34 34 35 35 36 36 36 35 35 35 35

GEFSSGP_500_meanwind_078.txt.gz
Wind_Speed
5 5 5 5 5 6 4 4 2 6 7 7 7 9 8 7 7 6 6 5 5 5 5 4 4 3 3 4 5 6 6 6 7 6 6 6 6 6 6 6 6 6 5 5 4 4 4 3 3
7 7 6 6 8 11 9 2 2 7 9 8 8 9 8 7 7 7 6 5 6 6 5 5 4 5 5 6 6 7 8 8 8 8 8 9 9 9 9 9 9 8 8 7 7 6 6 5 5
9 9 9 8 8 14 14 4 6 8 11 11 11 10 9 8 6 6 6 6 6 6 5 5 6 6 6 7 8 8 9 10 10 10 11 11 11 11 11 11 11 10 10 9 9 8 8 8 8
12 12 11 11 9 14 15 12 10 11 13 12 13 11 9 8 7 7 6 5 6 6 6 6 6 7 7 8 9 10 11 11 12 12 13 13 13 13 13 13 12 12 12 11 11 10 10 9 9
14 14 13 12 13 18 16 15 14 15 16 14 13 12 8 7 7 6 6 6 6 7 7 6 7 7 8 10 11 12 13 13 14 14 14 14 15 15 15 15 14 14 13 13 12 12 12 11 11
17 16 14 12 17 22 18 16 16 20 18 15 14 14 11 8 7 6 6 6 6 6 7 7 8 9 10 12 13 13 14 15 15 15 16 16 16 16 16 16 16 16 15 15 14 14 14 14 13
18 18 16 14 17 22 20 20 20 23 20 17 15 16 14 8 7 7 7 7 6 7 8 9 10 11 12 13 14 15 16 16 16 17 18 18 18 18 18 18 18 18 18 17 17 16 16 15 15
18 19 17 13 15 21 23 23 22 24 21 19 18 20 16 8 7 8 8 9 8 9 9 10 12 12 13 14 15 16 17 18 19 19 20 20 21 20 20 20 21 21 20 19 19 19 18 17 17
16 17 14 12 16 22 25 24 23 24 24 22 22 22 18 12 9 9 10 10 10 11 11 12 13 15 15 16 17 18 19 20 21 22 22 22 23 23 23 23 23 23 23 22 22 21 21 20 19
13 14 14 18 24 25 25 24 21 21 24 25 22 19 16 13 12 11 11 12 13 13 14 14 16 17 18 19 20 21 22 23 23 24 25 25 25 24 24 24 25 26 26 25 25 24 23 22 22
12 15 18 21 24 27 27 23 20 23 25 26 20 13 12 13 14 13 13 13 15 16 17 17 18 19 20 20 21 22 23 24 25 24 24 26 26 25 25 24 23 24 25 25 26 27 26 25 24
11 11 15 20 23 25 25 24 24 26 27 23 18 14 12 15 15 15 14 15 16 17 18 18 19 20 20 21 22 23 24 24 24 24 25 25 25 24 24 23 23 23 23 24 25 27 28 26 24
10 10 11 14 16 18 20 22 25 26 23 21 17 13 14 15 16 17 16 15 17 18 19 19 19 19 20 21 22 23 23 23 22 22 22 21 22 22 21 22 22 22 23 23 23 24 25 23 23
6 8 10 11 11 13 15 19 24 22 18 16 16 15 16 18 17 17 16 17 18 18 18 19 18 18 19 21 21 20 20 20 20 21 20 21 21 20 20 21 22 22 23 23 22 23 23 23 23
9 9 10 10 10 12 13 18 22 17 14 15 18 18 17 17 17 16 17 18 18 18 19 19 19 18 18 18 18 17 18 17 19 19 18 19 20 21 21 21 22 23 23 23 22 23 23 24 25
11 13 13 10 10 11 14 20 19 15 13 14 16 17 16 18 18 17 17 17 18 18 18 17 16 16 16 16 16 16 17 18 18 18 18 20 21 21 22 23 23 23 23 23 23 23 24 24 24
17 17 18 13 11 11 15 20 15 10 10 13 15 16 16 16 17 17 16 17 17 16 16 15 14 14 14 15 16 16 16 16 17 18 19 20 21 22 24 23 23 23 22 22 23 23 24 24 25
17 18 18 15 12 12 15 18 13 6 7 13 16 16 16 16 16 16 16 15 16 15 14 14 13 13 13 14 15 15 16 16 17 19 20 21 21 22 23 23 22 23 23 23 23 24 24 25 25
11 14 15 14 11 12 13 16 16 10 7 13 14 15 15 15 14 14 14 14 15 13 13 13 13 13 14 14 15 15 16 17 18 19 20 21 21 21 22 22 21 22 22 23 23 24 24 25 25
10 11 13 13 12 11 12 12 12 9 7 9 10 9 10 12 12 13 13 13 12 12 12 11 11 13 14 14 15 15 16 17 17 19 19 20 20 20 20 21 21 21 22 22 23 24 24 25 25
12 11 10 11 12 11 11 11 12 11 8 6 6 6 7 8 8 8 9 9 9 10 9 10 10 11 12 14 15 15 17 18 18 19 19 19 20 20 20 21 22 22 22 22 23 24 24 25 26
12 11 9 8 10 11 12 13 11 11 7 5 3 3 4 5 4 5 6 6 7 8 8 8 10 11 13 14 15 17 17 18 19 19 19 20 20 20 21 21 22 22 22 23 23 24 25 25 26
10 8 6 7 10 10 9 12 12 12 7 4 2 0 1 2 2 3 3 4 5 6 7 9 10 12 13 15 16 18 19 19 20 20 20 21 21 21 22 22 22 23 23 24 24 25 25 26 27
8 8 9 10 10 6 9 11 12 13 9 5 4 2 1 2 2 3 4 5 6 7 9 10 11 13 15 16 18 19 20 20 21 21 21 22 22 22 22 23 24 24 24 25 25 26 27 27 28
9 9 14 16 15 10 10 9 12 13 11 8 5 4 2 2 2 3 5 6 8 10 11 12 13 14 16 18 19 19 20 20 21 22 22 23 23 23 23 24 25 25 26 27 27 28 28 29 30
9 8 11 13 14 11 7 9 12 11 11 8 6 4 4 4 4 5 7 9 10 12 13 14 15 16 17 18 19 20 20 20 21 22 23 23 24 25 25 26 26 27 28 28 29 29 30 31 32
9 7 7 8 11 10 4 8 10 10 11 10 8 7 6 7 7 8 9 11 12 14 14 15 16 17 18 19 20 20 21 22 22 23 24 24 25 26 27 28 28 29 29 30 31 32 32 33 33
9 8 7 5 7 10 8 9 12 14 15 13 11 10 10 10 10 11 12 13 14 15 15 16 17 18 19 20 20 20 21 22 23 24 25 26 27 28 29 30 30 31 32 32 33 34 34 35 35
11 8 8 8 7 10 13 10 12 16 18 17 14 13 12 12 13 13 14 15 15 15 15 16 17 19 20 20 21 21 22 22 23 24 26 27 28 29 30 31 32 33 34 34 35 36 36 36 36
10 10 10 10 9 8 10 14 15 16 18 19 18 16 15 15 15 15 15 16 16 16 16 17 18 19 19 20 21 22 22 23 24 26 27 28 29 30 31 33 34 35 36 36 37 37 37 37 37

GEFSSGP_500_meanwind_084.txt.gz
Wind_Speed
8 9 9 7 7 7 9 11 11 10 5 4 4 6 5 4 2 1 2 3 3 3 3 3 3 3 2 1 1 1 2 3 4 5 6 7 8 8 8 9 9 9 9 9 9 8 8 7 7
11 11 11 10 8 9 9 12 11 11 7 5 5 6 5 4 2 2 3 4 3 3 3 3 4 3 3 2 2 2 3 4 4 6 7 8 8 9 10 10 10 10 10 10 10 9 9 8 7
14 13 13 12 10 10 12 11 10 12 11 9 6 6 6 5 3 4 5 5 3 3 3 3 4 4 3 3 3 4 4 4 5 6 7 8 9 10 10 10 10 10 10 11 11 10 10 9 8
15 15 14 13 12 12 13 12 12 15 16 12 9 7 8 7 6 5 5 5 4 3 3 4 4 4 4 4 4 5 5 5 6 6 7 8 10 11 11 11 11 11 11 11 11 11 11 10 10
17 16 15 14 14 15 15 15 15 16 19 15 12 10 11 10 8 5 4 4 3 3 3 4 4 4 5 5 5 5 5 6 7 8 9 9 10 11 11 12 12 13 13 13 13 13 13 12 11
18 16 15 13 14 16 16 17 17 19 18 18 15 13 13 10 8 6 5 4 3 3 3 4 4 5 5 5 5 6 6 7 8 9 10 11 12 12 13 14 14 15 15 15 15 15 15 14 13
17 15 14 13 13 14 15 17 18 21 23 22 18 15 13 12 11 8 6 5 4 3 3 4 4 5 6 6 6 7 8 9 9 10 11 13 14 15 15 16 17 17 17 17 17 17 17 16 15
15 15 15 15 16 16 16 17 21 23 24 24 20 16 15 13 10 9 8 6 4 4 4 4 5 6 6 7 8 9 10 11 12 12 13 14 15 16 17 18 18 19 19 20 20 20 20 19 18
14 14 16 18 20 19 18 20 22 23 24 22 20 15 14 15 11 10 10 7 5 5 5 5 7 7 8 9 10 11 13 14 15 15 16 16 17 18 18 19 20 20 20 21 21 21 21 21 21
13 13 14 17 19 20 21 22 24 25 27 25 24 19 16 15 13 11 11 9 7 6 6 6 7 8 10 11 12 13 14 16 17 18 18 18 19 19 19 19 19 19 20 20 21 21 21 23 23
10 10 12 15 17 19 21 23 26 28 27 25 22 18 18 15 14 12 11 10 8 6 6 7 8 10 10 12 13 14 15 16 17 18 18 19 20 20 18 18 18 18 18 18 19 19 21 22 23
7 7 10 13 16 19 22 24 26 28 29 27 22 20 21 17 15 14 10 9 8 7 7 8 9 10 11 12 13 14 14 15 17 17 18 18 18 18 17 17 17 18 17 17 18 18 19 20 22
8 8 9 11 13 17 20 23 24 26 25 24 23 20 18 17 15 12 12 10 8 7 7 8 9 10 11 12 13 14 14 15 15 16 16 16 15 15 15 15 16 16 16 16 17 18 19 19 20
9 10 11 10 11 14 16 17 19 21 22 21 20 18 17 18 15 10 12 10 8 7 8 8 10 11 12 12 12 13 13 13 14 14 14 14 14 14 13 13 14 15 15 16 17 18 18 19 20
10 11 12 12 12 13 15 17 17 18 18 18 18 17 16 15 13 10 10 9 8 8 8 9 10 11 12 12 12 12 12 12 12 12 12 13 12 12 12 13 14 15 16 17 17 17 18 18 19
10 12 13 14 15 15 16 15 16 15 16 15 14 13 13 11 11 10 10 9 8 8 9 10 9 9 10 10 10 10 9 9 10 11 12 12 12 12 13 14 15 16 17 16 17 18 18 18 18
12 14 16 16 16 15 15 15 14 13 13 12 11 10 9 10 11 10 9 8 7 7 8 8 8 8 8 8 8 8 9 9 10 10 11 11 12 13 13 14 15 15 16 16 16 17 18 18 17
14 16 17 16 16 15 14 14 14 14 11 7 6 6 7 9 9 9 8 8 7 7 7 7 7 7 7 7 8 8 9 9 10 10 11 12 12 12 13 13 14 14 14 14 15 15 16 16 16
15 16 17 15 15 14 14 14 14 14 10 4 1 3 6 7 9 9 8 8 7 7 6 6 6 6 6 7 8 8 9 9 9 10 10 11 11 11 12 12 12 13 14 14 14 14 15 15 15
15 16 15 14 14 14 14 14 13 12 8 6 2 3 4 5 8 9 8 7 7 6 4 4 5 5 6 7 8 8 8 9 9 9 10 11 11 11 12 12 13 13 14 14 14 15 15 15 16
14 15 15 15 15 14 13 12 12 10 6 4 3 3 5 6 7 7 6 5 5 4 3 3 3 4 5 6 7 7 7 8 8 8 9 10 11 12 12 13 13 14 14 15 15 15 16 16 17
13 13 12 12 13 14 12 11 10 10 8 4 3 4 6 7 7 6 5 4 2 2 1 2 2 3 4 5 6 6 7 7 8 8 9 10 11 12 13 13 14 15 16 16 16 17 17 17 18
11 11 9 9 11 10 9 9 9 9 9 6 5 6 6 7 6 6 4 3 2 1 1 1 2 3 4 5 6 6 7 7 7 8 9 10 11 12 13 14 15 16 17 17 17 17 18 18 19
10 8 8 8 8 9 7 8 8 8 9 7 7 6 7 6 6 5 4 3 2 0 1 1 2 3 4 5 5 6 7 8 8 9 10 11 12 13 14 15 16 17 18 19 19 19 20 20 21
10 9 9 8 9 9 7 5 6 6 7 7 7 6 5 4 5 4 3 2 1 1 2 2 3 4 4 5 6 7 7 8 9 10 11 12 13 14 15 16 17 19 20 20 21 21 21 22 22
9 9 10 10 10 10 8 3 4 5 5 6 6 5 4 3 3 2 1 0 1 2 2 3 3 4 4 5 6 7 8 9 10 11 12 13 14 15 16 17 18 20 21 21 22 23 24 24 24
8 9 10 10 10 9 6 4 3 2 3 4 5 3 2 2 2 0 1 2 2 2 3 3 4 4 5 6 7 8 9 10 11 12 13 14 16 17 18 19 20 21 22 24 25 26 26 26 27
11 11 11 12 12 10 10 7 6 3 2 2 3 3 1 1 1 1 2 2 3 3 3 3 4 4 5 6 8 9 10 11 12 13 14 16 17 18 19 20 22 23 25 26 28 28 29 29 29
14 15 14 14 14 13 11 10 8 7 6 4 4 3 1 1 1 2 2 3 3 4 4 4 5 5 6 7 9 10 11 13 14 15 16 17 18 20 21 22 24 26 28 29 30 30 31 31 32
16 16 16 16 15 14 14 12 11 10 9 7 5 4 3 2 2 3 3 3 4 5 5 6 6 7 8 9 11 12 13 14 15 16 17 19 20 22 23 25 27 28 29 31 32 33 33 33 34

GEFSSGP_500_meanwind_090.txt.gz
Wind_Speed
10 10 10 11 12 13 14 14 15 16 16 15 11 6 5 4 3 2 4 5 4 5 5 5 6 5 4 3 3 3 3 2 2 2 3 3 4 5 5 6 6 6 6 7 7 7 7 7 6
12 11 12 12 13 14 16 17 16 16 17 17 12 8 5 3 2 2 3 4 4 5 7 7 7 6 5 4 3 2 1 0 1 2 3 3 4 5 6 6 6 6 6 6 6 6 7 6 6
13 13 13 13 14 16 17 18 17 18 18 16 12 8 6 4 3 4 5 5 6 7 8 8 7 6 5 4 3 2 1 1 2 3 4 4 5 6 7 7 7 7 7 6 6 6 6 6 6
15 14 14 15 16 18 18 18 18 19 18 16 13 9 6 6 4 5 6 6 7 8 9 9 8 7 6 6 4 3 2 3 3 4 5 6 7 7 8 8 9 8 8 8 7 7 7 7 6
16 16 16 17 18 19 20 20 19 19 18 17 15 11 9 6 5 5 6 8 9 10 10 10 9 8 7 6 5 4 4 4 5 6 6 7 8 9 9 10 10 10 11 10 10 9 9 8 7
16 16 17 18 20 20 21 21 21 19 18 17 15 11 10 7 6 6 7 10 11 11 11 11 10 8 7 6 5 5 5 6 6 7 8 9 10 10 11 12 12 12 13 13 13 12 11 11 9
17 17 18 20 21 22 22 22 21 20 19 17 14 13 11 10 8 8 9 10 12 12 12 11 10 9 7 6 6 6 6 7 8 9 10 10 11 13 13 13 14 14 15 15 15 15 13 13 12
16 17 19 20 21 22 22 22 22 21 21 19 17 15 14 13 11 10 10 12 13 13 12 12 10 9 8 7 7 7 8 9 10 10 11 13 13 14 15 15 16 17 17 17 17 16 16 15 14
15 16 17 18 19 20 21 22 22 23 22 20 18 18 16 14 13 13 13 14 14 14 13 12 11 9 8 8 8 8 9 10 11 12 13 14 15 15 16 17 17 17 18 18 18 17 17 16 16
14 14 15 16 17 18 20 22 22 22 21 19 18 17 16 15 15 15 15 16 16 15 14 13 11 10 9 9 9 9 10 11 11 12 13 14 15 16 16 17 17 18 18 18 18 18 17 17 17
11 12 13 14 15 16 18 20 21 21 21 19 18 17 15 14 14 16 17 18 18 16 15 14 13 11 10 10 10 10 10 11 11 12 14 14 14 15 15 16 17 17 17 17 17 17 17 16 16
10 11 12 13 14 15 16 18 19 20 20 19 16 15 14 15 13 16 18 18 18 19 17 16 15 13 11 10 10 10 10 11 12 13 14 14 14 14 15 15 16 16 16 16 16 16 16 16 15
10 10 11 12 14 16 16 17 18 19 19 17 15 14 14 15 15 16 17 18 18 19 17 16 14 13 11 9 9 9 10 11 12 13 13 14 14 14 14 15 15 15 15 15 15 15 16 16 15
10 10 11 12 14 15 15 16 17 17 16 15 14 13 14 15 15 16 16 17 18 18 17 16 14 12 10 9 9 9 10 11 11 12 13 13 14 14 14 14 13 14 15 16 16 16 16 16 16
10 10 12 13 14 14 14 15 17 17 14 12 11 12 12 13 14 15 16 17 17 17 15 14 12 10 9 8 8 9 10 10 11 12 12 12 12 12 13 13 13 13 14 15 16 16 16 16 16
10 11 12 13 14 14 15 15 16 16 14 11 10 10 9 12 14 16 17 16 15 14 13 12 10 8 7 7 7 7 8 9 10 10 10 10 9 10 10 11 12 12 13 13 14 15 15 15 16
10 11 11 12 14 15 15 15 15 16 12 8 6 6 7 10 12 15 17 16 15 14 13 12 9 8 7 6 5 6 7 8 8 9 9 8 9 9 9 10 10 10 11 12 13 14 14 15 15
10 10 10 12 14 15 15 15 15 15 11 7 5 5 6 8 10 13 15 15 14 13 11 11 8 7 6 5 5 5 6 7 7 8 8 7 8 8 9 9 9 10 11 12 13 13 13 14 15
9 10 11 12 13 14 14 15 14 13 12 7 5 5 7 8 10 12 13 13 13 12 11 10 9 7 6 5 5 5 6 6 6 7 6 7 7 7 8 8 9 9 10 10 11 11 12 13 13
10 10 11 12 13 13 14 14 13 13 10 7 3 3 7 9 12 12 12 13 12 12 11 10 8 7 6 5 4 5 5 6 6 6 6 6 6 7 7 8 8 9 10 10 11 12 12 12 13
10 11 11 12 12 13 13 13 13 12 10 6 2 2 6 9 11 12 12 12 12 11 11 9 8 7 6 5 4 4 5 5 5 5 5 5 6 6 7 7 8 9 10 10 11 12 12 13 13
11 12 12 11 11 11 12 13 13 11 9 6 2 3 6 8 10 11 11 11 11 11 10 9 8 6 5 4 4 4 4 3 3 3 4 5 5 6 7 8 9 9 10 11 12 12 13 13 14
12 13 12 12 11 11 11 12 12 10 8 5 2 4 7 8 10 11 11 11 11 10 9 8 7 6 5 4 4 4 3 2 2 3 4 4 5 6 6 7 8 9 10 11 13 13 14 14 15
12 13 12 11 11 10 10 11 11 10 7 4 1 3 5 7 8 9 10 10 9 8 8 8 7 6 5 5 4 4 3 2 2 3 3 4 5 5 6 8 9 10 11 13 14 15 16 16 17
12 13 12 10 9 8 9 8 8 8 6 3 0 2 4 5 6 7 8 8 8 8 7 7 7 7 6 6 5 4 3 3 3 3 3 4 5 6 7 8 9 11 12 14 15 16 18 18 19
13 13 11 10 8 8 8 7 7 7 6 4 3 2 3 4 5 6 7 7 7 8 8 8 8 7 7 6 6 5 4 4 4 4 4 4 5 6 8 9 11 12 14 15 17 18 19 20 21
14 13 12 11 9 8 8 8 7 6 6 5 5 4 4 4 5 6 7 7 8 8 8 8 8 8 8 7 7 6 5 5 5 5 6 6 7 8 9 11 13 14 16 17 19 20 21 22 23
14 13 13 13 12 10 9 9 8 7 7 7 7 6 6 6 7 7 8 9 9 9 9 9 9 9 9 8 8 8 7 7 7 7 8 8 9 10 12 13 15 16 18 19 21 22 23 25 25
15 14 14 15 15 14 12 9 10 9 8 8 8 8 8 8 9 9 9 9 10 10 10 10 10 10 10 10 10 9 9 9 9 9 9 10 11 13 14 16 17 18 20 22 23 25 26 26 27
16 15 16 17 17 16 14 9 11 11 10 10 10 9 10 10 10 11 11 11 11 11 11 12 12 12 12 12 12 11 11 11 11 11 12 13 14 15 17 18 19 21 22 24 25 26 28 28 29

GEFSSGP_500_meanwind_096.txt.gz
Wind_Speed
9 9 10 10 11 12 12 13 12 12 11 11 11 10 9 10 11 12 11 11 11 10 10 10 9 9 9 8 7 6 5 5 5 4 4 4 4 4 3 3 3 3 3 3 3 3 2 2 2
9 10 10 11 11 12 14 14 13 12 12 11 10 9 7 8 9 11 11 12 12 11 11 10 10 9 9 9 8 7 6 5 4 3 3 3 2 2 2 1 1 1 1 1 1 1 1 1 1
10 10 10 11 11 12 14 14 14 13 12 11 9 8 7 7 9 10 12 12 13 12 11 11 10 10 10 9 8 7 6 5 4 3 2 2 2 1 1 0 1 1 1 1 1 1 1 1 1
10 9 10 10 12 13 14 14 14 14 13 11 10 8 7 7 8 10 12 12 13 13 12 11 11 11 10 10 8 7 6 5 4 4 3 3 2 2 2 2 2 2 2 2 2 2 2 2 2
9 9 10 10 12 13 14 14 13 13 13 12 10 9 9 8 9 10 11 12 13 13 12 12 12 11 11 10 8 7 6 6 5 5 4 4 4 4 4 4 4 3 3 3 4 4 4 4 3
9 9 9 10 12 13 14 14 14 13 13 12 11 11 10 10 11 11 12 12 14 13 13 12 12 12 11 10 9 8 7 7 6 6 5 5 6 5 5 5 5 6 5 5 5 5 5 5 6
9 9 9 10 12 13 14 14 14 14 13 13 12 12 11 11 12 13 13 13 15 14 14 13 13 12 12 11 10 9 8 8 7 7 6 6 6 6 6 6 7 7 7 7 7 7 7 7 7
9 9 9 10 11 13 13 14 14 14 14 13 13 13 13 13 13 15 15 15 15 15 15 14 14 13 12 11 10 9 9 8 8 8 8 7 8 8 8 8 8 8 8 8 9 9 8 8 8
10 9 9 10 11 13 13 14 14 14 14 14 14 14 14 15 15 16 16 16 15 15 16 16 15 14 13 12 11 11 10 9 9 9 9 9 8 9 9 9 9 9 9 9 9 9 9 9 9
10 9 9 10 11 13 14 15 15 14 14 15 15 14 14 15 16 17 18 19 18 17 18 18 17 15 13 13 12 12 11 11 10 10 9 9 9 10 10 10 9 9 9 9 10 10 9 9 9
9 9 10 11 12 14 15 15 15 15 15 16 16 16 16 15 17 18 19 20 21 20 20 19 17 15 14 13 13 12 11 11 10 10 10 10 10 10 9 10 10 10 9 10 10 10 9 8 8
9 10 11 12 13 15 15 15 15 15 16 16 16 15 15 16 17 20 21 20 21 22 21 20 18 16 15 14 13 13 11 11 11 11 10 10 9 9 9 9 9 9 9 10 10 9 8 8 8
9 10 11 13 14 15 16 16 16 16 16 15 15 15 15 16 18 19 22 23 23 23 22 22 20 18 16 15 14 13 12 11 10 10 9 9 9 8 8 9 9 9 9 9 9 9 8 9 9
9 10 12 13 15 16 16 16 16 16 16 15 15 14 14 15 16 18 21 24 24 24 23 22 21 18 17 15 15 13 12 10 9 9 8 8 8 8 8 8 8 8 8 8 8 8 8 9 9
9 10 12 14 16 16 17 16 16 16 16 15 14 12 12 15 16 18 20 23 24 25 24 22 21 19 17 16 15 13 11 9 9 8 8 7 7 7 7 7 7 7 7 7 8 8 8 9 9
9 11 13 16 16 16 16 17 16 16 14 14 12 9 10 13 16 19 21 23 24 25 24 22 21 20 18 16 13 11 10 8 7 7 6 6 6 6 6 6 6 6 6 6 6 7 8 9 10
11 11 12 16 17 16 16 16 16 15 15 14 11 8 9 11 14 17 20 21 23 25 24 22 20 19 18 15 12 10 9 8 6 6 5 5 5 5 5 5 5 5 6 6 7 7 8 8 8
9 11 13 16 17 16 15 15 17 16 15 14 11 9 9 10 13 16 18 20 21 22 22 21 19 18 16 13 12 10 8 7 6 5 4 4 4 4 4 4 5 5 5 5 6 7 7 7 8
11 12 13 15 16 15 15 15 17 16 15 14 11 9 7 9 11 15 18 19 20 21 21 20 18 16 15 13 11 10 8 7 5 4 4 4 3 3 3 3 3 3 3 4 5 6 7 7 7
12 13 14 15 14 14 14 15 16 16 15 13 10 8 5 6 8 12 15 16 17 19 19 19 17 16 14 12 11 9 8 7 5 4 4 3 3 2 2 2 1 2 2 3 4 6 6 7 7
12 13 13 15 15 14 14 14 15 15 13 12 10 6 4 3 6 10 12 15 16 17 17 17 16 15 13 11 10 9 8 7 6 5 4 4 3 2 1 0 1 1 2 3 5 6 7 7 8
11 12 13 14 14 15 14 12 13 13 13 11 8 4 2 3 6 9 11 14 14 14 15 15 15 15 13 11 10 9 8 7 6 6 5 4 3 2 1 0 0 1 2 3 5 6 7 8 8
11 12 12 13 12 12 12 11 12 11 11 10 7 3 1 2 5 8 10 12 13 13 14 15 15 14 13 12 11 9 8 7 7 6 6 5 4 3 2 1 0 1 2 3 5 6 8 9 10
12 13 12 12 11 10 11 9 10 10 9 8 5 3 0 2 5 7 9 10 11 12 13 13 14 13 12 11 11 10 9 8 8 7 6 5 4 4 3 2 2 2 3 4 6 7 8 10 11
12 12 11 11 10 10 11 9 9 9 8 7 5 3 2 1 4 6 8 9 10 11 11 12 12 12 11 11 10 10 9 9 8 7 7 6 5 4 4 4 4 4 5 6 7 8 9 10 12
13 12 10 10 10 10 11 9 9 8 8 6 5 3 2 0 2 5 7 8 9 9 10 12 12 12 11 11 11 11 10 10 9 8 8 7 6 6 6 6 6 6 7 8 9 10 11 12 13
15 14 12 11 11 9 10 10 10 9 8 6 5 3 2 2 3 4 6 8 9 9 10 11 12 12 11 11 12 12 11 11 10 9 9 9 9 9 9 9 9 10 10 11 11 12 13 14 15
18 17 15 11 10 9 10 10 10 10 9 7 6 5 4 4 4 5 7 8 9 9 10 11 12 12 12 12 12 12 12 11 11 11 11 11 11 12 12 12 13 13 13 13 14 15 16 17 18
19 18 16 14 12 10 10 11 13 11 10 9 8 7 6 5 5 6 7 8 9 9 10 11 12 12 13 13 13 13 13 13 13 13 13 14 14 14 15 15 15 16 16 16 17 18 19 19 20
19 18 16 15 14 12 10 11 14 12 11 10 10 9 9 8 8 7 8 9 9 10 11 12 13 13 14 14 15 15 15 15 16 16 16 17 17 17 18 18 19 19 19 20 20 21 21 22 23

GEFSSGP_500_meanwind_102.txt.gz
Wind_Speed
7 7 7 6 5 5 6 4 10 13 12 11 11 11 11 13 13 12 11 12 11 11 11 11 10 9 8 7 6 6 5 5 5 4 4 3 3 2 2 1 1 1 1 1 0 0 1 1 1
7 6 6 5 5 9 11 8 12 15 14 13 12 11 12 12 12 13 13 13 12 12 12 11 11 10 9 8 7 6 6 6 6 5 5 4 3 3 2 2 1 1 1 1 1 1 2 2 2
6 5 5 5 5 6 11 13 16 17 14 13 13 12 12 12 12 14 14 14 13 13 14 13 12 11 10 9 8 7 7 6 6 6 5 4 4 3 3 3 2 2 2 2 3 3 3 3 3
5 4 4 5 5 5 11 16 17 16 15 14 14 13 12 12 13 13 14 15 15 16 15 14 13 12 11 11 9 9 8 7 7 6 6 5 5 4 4 4 3 3 3 4 4 4 4 4 5
4 3 4 7 8 6 14 18 16 14 15 15 15 15 13 12 14 14 14 15 15 16 16 16 15 13 12 12 11 10 9 8 8 7 7 6 6 6 5 5 5 5 5 5 5 5 5 6 7
4 2 5 6 8 11 16 18 15 14 16 16 16 17 15 14 14 15 15 14 14 15 16 17 16 15 14 13 11 10 10 10 9 8 7 7 7 7 6 6 6 6 6 6 7 7 7 8 8
4 1 3 4 9 12 17 18 16 15 16 16 17 18 16 14 15 16 17 15 15 15 16 17 17 16 15 14 13 12 11 11 10 9 8 8 8 7 7 7 7 7 7 7 8 8 8 8 9
3 0 2 2 7 12 18 17 16 16 17 16 17 19 16 14 16 17 18 18 17 17 18 18 18 17 17 16 14 13 12 12 11 10 9 9 9 9 9 9 9 8 9 9 8 9 9 9 10
0 1 1 2 6 11 16 17 17 18 17 18 18 19 17 17 18 18 19 20 20 19 19 19 18 18 18 16 15 14 13 12 12 11 11 10 10 9 9 9 9 10 10 10 10 9 9 9 10
1 1 2 7 11 12 15 16 16 18 18 19 19 19 19 18 19 19 19 19 20 21 21 20 19 19 18 17 16 16 14 13 12 12 11 11 10 10 9 9 9 10 10 10 10 10 9 9 9
2 3 6 8 10 11 13 15 16 17 19 19 20 19 18 19 20 19 20 20 20 20 20 20 19 20 19 17 17 16 15 14 13 13 11 11 10 10 10 10 10 10 10 9 9 8 9 9 9
5 5 8 9 11 11 13 15 16 18 19 20 20 19 20 20 21 20 21 21 21 21 21 21 21 20 19 18 17 16 15 14 13 12 11 10 10 10 10 9 9 8 7 7 7 7 7 7 7
7 7 9 11 12 14 16 16 17 17 18 19 20 20 20 20 21 21 21 22 23 23 22 22 21 21 20 19 17 16 15 15 13 12 11 10 10 9 8 8 7 5 5 5 5 5 5 5 6
4 6 9 11 12 16 19 19 18 18 19 20 20 20 20 19 19 20 19 21 22 24 24 22 22 21 20 19 18 16 14 14 13 11 9 9 9 8 7 6 5 4 4 4 4 4 5 5 6
5 6 10 12 13 16 20 20 19 19 19 20 21 19 19 17 17 17 18 20 21 23 24 23 23 21 19 19 18 16 14 12 11 9 8 8 7 6 5 5 5 4 4 4 4 5 5 5 5
5 8 12 14 14 16 20 20 21 21 20 20 20 19 18 15 14 14 16 18 21 21 22 23 22 20 18 18 17 15 13 11 9 8 6 5 5 5 4 4 4 4 4 4 4 5 5 5 5
8 12 13 14 15 16 19 21 21 21 20 20 19 19 17 14 13 13 14 17 19 19 20 21 19 19 18 18 17 15 12 10 8 7 6 5 4 4 3 3 2 3 3 3 4 4 5 5 5
10 12 13 14 16 19 19 21 21 21 20 20 19 19 16 12 11 12 12 13 16 18 18 18 17 18 17 16 16 12 10 8 7 6 5 4 4 3 2 2 1 2 2 3 4 5 5 6 6
11 11 12 15 16 19 18 17 18 19 19 19 20 19 16 13 11 11 11 12 14 17 17 17 17 17 16 15 13 10 9 7 6 5 4 3 3 2 2 1 1 1 1 2 4 5 6 6 6
11 11 13 16 16 17 16 16 17 16 16 18 19 18 14 12 10 9 9 10 12 14 15 17 17 17 15 14 12 9 8 7 5 5 3 3 2 2 2 1 0 0 1 2 3 5 5 6 7
11 13 15 16 16 15 16 16 18 15 14 17 17 16 14 11 8 7 7 8 9 11 12 14 14 14 14 13 11 9 8 7 6 5 4 3 3 2 2 1 1 1 1 2 3 4 5 6 7
14 14 16 15 13 16 15 18 18 16 15 16 17 15 12 9 6 5 4 4 7 8 10 11 12 12 12 11 10 9 8 7 6 5 5 4 4 3 2 2 1 1 1 2 3 4 5 6 7
15 15 14 14 14 15 13 14 15 17 17 17 18 16 12 7 5 3 1 3 5 7 9 9 10 11 11 10 9 9 8 8 7 6 6 5 5 4 3 2 2 1 0 1 2 3 5 6 7
15 14 13 15 16 18 12 10 12 14 17 17 17 16 11 7 5 3 1 1 3 6 8 10 10 10 9 9 10 9 9 8 7 7 7 6 6 5 4 4 3 2 1 2 3 4 5 7 8
15 16 16 17 19 17 10 8 10 13 15 15 16 14 10 7 5 3 2 2 3 5 8 9 9 9 9 9 9 9 9 8 8 8 8 7 7 7 6 5 5 4 4 4 5 6 7 8 9
16 16 17 19 18 18 12 9 11 10 13 14 14 12 9 6 4 3 2 3 4 5 6 8 8 8 9 9 10 10 10 9 9 9 9 9 9 8 8 7 7 7 7 7 8 8 9 10 11
17 17 17 20 17 16 15 11 12 9 9 12 13 12 9 7 5 3 3 3 4 6 7 8 9 8 8 9 10 10 10 10 11 11 10 10 10 10 10 10 10 10 10 10 11 12 13 13 14
18 17 18 19 17 16 18 19 14 10 8 10 12 12 10 8 6 5 4 4 5 6 7 8 9 9 8 9 10 11 11 11 12 12 12 12 12 12 12 12 12 13 14 14 15 16 16 16 18
20 20 19 19 18 18 19 21 17 9 7 9 12 12 10 8 7 6 6 5 6 7 7 8 9 9 9 10 11 11 12 12 13 13 13 13 13 13 14 14 15 16 17 17 18 19 20 20 21
22 21 20 20 18 18 17 20 19 15 10 8 11 12 10 9 9 7 6 7 7 7 7 8 9 10 10 11 12 13 13 14 14 15 15 15 16 16 16 17 18 19 20 21 21 22 23 24 25

GEFSSGP_500_meanwind_108.txt.gz
Wind_Speed
6 5 4 4 4 3 5 6 8 9 13 13 13 14 14 12 10 8 6 5 6 7 7 6 6 6 5 5 4 3 3 3 3 4 4 4 4 4 4 4 4 4 4 4 3 3 3 3 2
6 5 4 4 4 5 6 7 9 13 15 15 15 14 13 12 9 8 7 7 7 8 8 7 7 7 7 6 5 4 4 4 4 4 4 5 5 5 5 5 5 5 5 5 5 5 4 4 3
6 5 4 3 3 5 7 9 11 16 16 18 18 17 14 11 8 7 7 7 7 7 8 9 8 8 8 7 6 5 5 5 4 4 5 5 6 6 6 6 6 6 6 6 6 6 5 5 4
6 4 3 3 3 6 7 10 15 18 19 19 19 18 14 10 9 8 7 8 8 8 9 10 10 10 9 9 8 7 6 6 5 5 5 6 6 7 7 7 7 7 7 7 7 7 6 6 6
6 5 4 4 4 6 8 11 16 18 18 19 18 17 15 12 10 9 8 8 8 9 10 11 12 11 12 10 9 8 7 6 5 5 5 6 7 8 8 8 8 8 8 8 8 8 8 8 8
6 5 6 6 6 7 9 12 15 19 20 19 18 16 15 12 11 10 10 9 9 10 11 12 13 12 13 12 11 9 8 7 6 6 6 6 7 8 8 9 9 9 9 9 9 9 9 9 9
6 6 7 6 5 7 9 13 17 20 21 21 19 17 16 14 12 10 10 10 10 11 12 13 14 14 14 13 12 11 9 7 7 6 7 7 8 9 9 9 9 10 9 10 10 10 10 10 10
7 8 8 6 4 7 10 14 18 20 21 21 19 18 18 15 13 12 11 11 11 12 13 14 14 15 15 15 14 12 10 9 8 8 8 8 9 9 10 10 11 11 10 10 10 10 11 11 10
8 8 8 7 5 7 10 14 18 20 21 20 20 19 18 16 15 14 13 12 13 13 15 16 15 15 15 15 14 13 11 10 9 9 9 9 9 10 10 11 11 11 11 11 11 12 12 11 10
8 8 8 7 8 8 10 14 18 20 20 19 20 20 18 18 16 14 13 13 14 15 16 17 17 16 16 15 15 14 13 11 10 10 10 10 10 11 11 11 12 12 12 12 12 12 12 11 10
9 8 8 8 8 8 10 13 16 18 19 19 20 20 19 19 18 15 15 15 15 15 17 18 19 18 17 16 15 14 14 13 11 11 10 11 11 11 11 11 11 11 11 11 11 10 11 10 10
10 10 8 7 7 9 10 12 14 16 17 18 19 18 19 19 19 17 15 14 15 16 18 19 20 20 19 18 16 15 14 14 13 12 12 11 11 11 11 10 9 9 9 8 8 8 8 9 8
10 9 7 7 7 9 10 11 13 14 16 18 20 20 20 19 18 17 13 12 14 16 18 20 22 21 20 18 16 16 15 15 13 12 12 12 11 10 9 8 7 7 6 5 5 5 6 6 7
8 7 6 6 8 9 10 11 13 14 16 18 19 19 19 18 17 16 13 13 13 15 18 21 20 21 20 19 17 16 16 14 13 12 12 12 11 9 8 7 6 5 5 4 3 3 4 4 5
7 5 5 5 8 10 10 11 14 16 17 17 17 18 18 17 15 14 12 11 11 14 18 20 20 20 19 18 17 16 15 13 12 11 10 10 9 7 7 6 5 4 4 3 3 2 2 3 4
7 5 4 6 10 10 11 13 15 17 17 16 16 18 17 16 14 13 11 10 11 12 15 19 19 19 19 19 18 16 14 13 12 10 9 8 7 6 5 5 4 4 3 3 3 2 1 1 2
7 5 5 7 12 13 13 14 15 16 18 17 15 17 17 16 13 12 10 8 9 11 14 17 18 19 17 18 17 16 14 11 10 9 8 7 7 6 5 5 4 4 3 2 2 1 0 0 0
7 6 5 10 13 14 16 15 16 18 19 18 18 17 16 15 11 9 8 7 6 9 12 16 17 18 16 17 17 14 13 12 10 10 9 8 7 7 6 6 5 4 4 3 3 3 3 2 2
8 7 7 10 14 17 17 17 17 18 19 19 18 16 15 13 9 7 6 5 4 9 12 14 17 16 15 16 16 14 13 12 11 10 10 9 8 7 7 7 7 6 5 5 4 4 4 4 3
8 7 8 11 15 17 18 18 18 19 20 18 17 14 12 11 9 6 5 3 3 7 11 13 16 17 16 15 14 14 12 12 12 11 11 10 9 8 8 8 8 7 6 5 5 4 4 4 3
7 7 10 13 15 17 19 18 18 18 18 16 13 11 11 10 9 6 5 2 2 6 10 12 14 15 16 15 13 13 13 12 13 12 11 10 10 10 9 9 8 8 7 6 5 5 4 3 4
9 8 11 13 16 18 18 18 15 16 15 12 9 9 10 9 8 6 5 1 3 6 10 12 14 15 14 14 13 13 14 14 14 13 12 11 11 10 9 9 9 8 7 7 6 5 4 3 3
9 10 12 15 17 19 18 18 16 15 12 9 8 8 8 8 7 6 5 1 5 7 9 10 13 14 14 15 14 14 15 14 14 13 13 12 12 11 10 9 9 9 8 7 6 5 4 3 2
12 13 14 15 18 19 19 19 17 13 9 8 6 6 7 6 5 4 4 3 5 6 8 9 10 12 14 14 15 15 15 15 14 14 14 14 13 12 11 10 10 9 8 7 6 5 4 2 1
15 15 17 17 16 17 19 17 15 12 9 7 5 5 5 5 4 3 2 2 3 5 6 8 9 11 12 14 14 15 15 16 15 14 14 14 13 13 12 11 11 10 9 8 7 6 5 4 3
15 17 19 19 17 17 19 18 14 13 9 6 5 4 5 4 3 2 2 2 3 4 6 7 9 11 11 12 14 15 15 15 15 14 14 14 14 13 13 12 12 11 10 10 9 8 8 7 7
16 17 18 20 19 20 18 17 14 11 9 7 7 6 4 3 2 2 1 2 2 4 6 7 9 11 11 12 12 13 14 13 14 15 14 15 15 14 14 14 13 13 12 12 12 11 11 10 10
18 17 19 21 21 21 19 17 15 9 9 9 8 6 3 2 1 1 1 1 1 3 5 7 8 10 11 12 12 13 13 13 14 15 15 16 16 16 15 15 15 14 14 14 14 14 14 14 14
21 20 20 21 23 23 21 18 15 13 12 10 8 6 4 2 1 1 0 1 2 3 5 7 8 9 11 12 12 12 13 13 14 15 16 17 17 17 17 17 16 17 17 17 17 17 17 17 17
24 23 23 23 23 23 23 21 17 15 14 11 8 6 4 2 2 1 2 2 2 3 4 7 8 10 11 12 12 12 13 13 14 15 17 18 18 19 19 19 19 19 19 19 20 20 20 20 20

GEFSSGP_500_meanwind_114.txt.gz
Wind_Speed
9 7 6 5 4 4 5 6 7 8 10 11 11 11 9 8 6 4 3 3 4 5 7 7 7 7 6 6 5 5 4 3 3 3 3 3 4 5 6 6 7 7 7 7 7 7 7 7 7
9 8 7 6 6 5 5 6 7 9 11 11 12 11 9 8 6 5 4 4 5 6 7 9 9 8 7 6 5 5 4 3 2 1 2 2 3 5 6 6 7 7 7 7 7 7 7 7 7
10 8 7 7 7 6 5 6 8 9 11 12 12 12 11 10 7 6 5 4 6 8 8 9 10 9 8 7 6 5 4 3 2 1 1 2 3 5 6 7 7 7 7 8 7 7 7 7 7
10 9 8 8 8 7 7 7 9 10 11 12 12 12 11 10 8 7 6 5 6 8 9 11 11 10 9 8 8 6 5 3 2 1 0 2 4 5 6 7 7 7 8 8 7 7 7 7 7
10 9 8 8 9 8 8 9 9 11 12 13 12 12 12 10 9 8 7 6 7 8 10 12 12 11 10 9 8 7 6 4 3 2 1 3 3 4 6 7 7 8 8 7 7 7 7 7 7
10 10 9 9 10 9 9 9 10 12 13 13 13 13 13 12 10 9 8 8 8 9 11 12 13 13 12 10 9 8 7 5 4 3 2 3 3 4 5 7 8 8 8 8 7 7 7 7 7
11 11 10 11 11 10 10 10 11 12 13 14 13 13 14 12 11 10 9 9 10 11 11 12 13 14 13 11 10 9 8 7 5 4 3 3 4 5 6 7 8 9 8 8 7 8 8 8 7
12 12 12 12 11 10 10 10 11 12 14 14 14 14 14 13 12 11 10 10 10 11 13 14 14 14 13 13 12 10 8 8 6 6 5 4 5 5 6 8 9 9 9 8 8 8 8 8 8
12 12 12 12 12 11 12 12 12 13 14 14 14 14 14 14 13 12 11 10 10 11 13 15 15 15 15 14 13 11 10 9 8 7 6 6 6 6 7 8 9 10 9 9 9 9 9 9 8
12 12 12 13 13 13 13 13 12 12 13 14 14 14 14 14 14 13 12 11 11 12 13 15 16 16 16 16 14 13 12 11 9 8 8 8 7 7 8 9 10 10 10 9 9 9 8 8 7
12 12 13 14 13 13 13 13 12 12 13 14 15 15 14 14 14 13 12 11 12 13 14 17 17 17 18 17 16 15 13 12 11 10 10 9 9 8 8 9 10 10 10 9 8 8 6 6 6
11 11 12 12 13 13 13 13 13 13 14 15 16 16 16 16 16 15 13 12 12 13 15 18 19 18 18 18 18 16 14 13 12 11 11 10 9 9 9 9 10 9 9 8 7 6 5 5 5
10 10 11 11 12 12 13 13 13 13 15 16 17 17 17 17 16 16 14 12 13 14 15 17 17 18 20 20 19 18 16 14 13 12 11 11 10 10 9 9 9 9 8 7 6 5 4 4 4
10 9 10 10 11 11 11 12 13 14 15 16 16 17 16 17 16 15 14 13 13 13 14 17 18 19 20 21 20 19 17 15 14 13 11 11 11 11 10 10 9 8 7 6 4 4 3 3 3
10 10 10 11 10 10 11 11 13 14 15 16 17 17 18 18 18 17 15 14 12 11 14 17 18 20 20 21 21 19 17 15 13 13 12 12 12 11 10 9 8 7 6 5 4 3 2 2 1
11 11 11 12 11 10 11 10 12 14 16 18 19 18 18 18 18 17 16 14 12 11 14 17 18 20 21 21 22 20 18 15 14 13 13 13 12 11 9 8 7 6 5 4 3 2 1 1 1
13 13 13 13 13 12 12 11 12 15 16 18 19 19 18 18 18 18 15 11 11 11 14 18 20 21 21 21 21 20 18 16 15 14 13 13 12 10 9 8 7 6 5 4 3 2 1 1 1
15 14 14 14 14 14 13 12 13 15 16 17 18 19 19 18 17 16 13 10 10 11 14 19 20 21 21 21 20 20 19 18 16 14 14 12 11 10 9 8 7 6 5 4 3 2 1 1 1
16 15 15 15 15 15 13 13 14 14 15 17 17 18 18 17 15 15 12 8 8 10 13 16 19 21 21 20 20 20 20 18 16 14 13 12 11 10 9 8 8 7 6 4 4 3 2 2 2
17 17 16 17 17 16 14 13 14 13 15 16 16 17 17 16 15 14 12 7 7 8 12 16 19 21 21 21 20 20 20 18 16 15 13 13 12 11 10 9 8 8 7 5 4 3 3 2 2
17 17 17 17 17 16 15 13 13 13 15 15 16 16 15 13 13 13 11 9 6 7 11 16 19 21 21 20 19 18 18 17 17 15 14 13 13 12 11 10 9 8 8 6 5 4 3 3 2
17 18 18 19 18 16 16 14 12 14 15 15 15 15 14 12 11 11 10 9 6 7 10 15 18 19 20 20 20 19 18 18 17 16 15 14 14 13 12 10 10 9 9 7 6 5 5 4 3
18 20 20 19 18 17 16 15 12 13 15 15 14 13 13 12 11 10 9 8 6 6 9 14 17 18 19 20 21 21 19 18 18 17 16 15 14 14 13 12 11 10 10 9 8 7 6 5 4
19 20 20 20 18 17 15 14 11 13 14 15 13 12 12 11 10 9 8 8 6 4 7 11 15 18 19 20 20 20 19 19 18 17 17 16 15 15 14 13 12 11 11 10 9 8 8 7 6
21 20 21 20 18 17 15 13 12 13 14 13 12 11 11 11 10 9 8 7 4 4 7 9 13 16 17 18 19 19 19 18 18 17 17 16 16 16 15 14 13 13 12 12 11 10 10 9 8
21 21 21 21 19 17 15 13 12 13 12 11 11 11 11 11 10 8 7 5 3 4 5 8 11 13 14 16 17 18 18 18 17 17 17 17 16 16 16 16 15 14 13 13 12 12 12 11 11
21 22 22 22 21 19 16 13 11 11 11 11 11 11 11 10 9 8 6 4 4 5 5 7 9 11 12 14 15 16 17 17 17 17 17 17 16 16 17 17 17 16 15 15 15 14 14 13 13
22 22 23 22 22 21 17 14 11 11 11 12 10 9 11 11 10 8 6 5 5 6 7 8 10 11 12 13 14 15 16 16 17 17 17 17 17 17 18 18 18 18 17 17 17 17 17 17 17
23 23 23 24 24 22 19 14 12 11 10 10 9 10 11 12 10 8 8 7 6 7 8 9 11 12 13 14 15 16 16 16 17 18 19 19 19 19 19 19 20 20 20 20 20 20 20 20 20
26 26 25 25 24 23 21 15 14 13 12 11 11 11 11 11 10 9 8 8 7 8 9 10 11 12 13 15 16 16 16 16 17 18 19 19 20 20 21 21 22 22 22 23 23 23 23 23 24

GEFSSGP_500_meanwind_120.txt.gz
Wind_Speed
9 8 7 7 7 7 6 5 5 5 4 3 2 2 2 1 0 2 4 5 6 7 10 10 10 10 10 9 9 9 8 8 7 7 7 7 6 6 6 6 6 6 6 6 6 5 6 6 5
9 8 7 7 7 6 6 5 5 5 4 3 2 2 2 1 1 2 3 5 7 8 10 10 11 11 11 10 10 9 9 8 7 7 6 6 6 6 5 6 5 5 5 5 5 5 5 5 4
9 8 7 7 6 4 4 5 5 5 4 4 3 3 2 2 2 3 4 5 7 8 10 11 11 11 11 11 11 10 9 8 7 7 6 6 5 5 5 5 5 4 5 4 4 4 4 4 3
8 8 7 6 5 4 4 5 5 5 5 4 4 4 4 3 2 3 4 5 7 9 10 11 11 12 12 12 11 11 10 9 8 7 6 5 5 4 4 4 4 3 4 3 3 3 3 3 2
8 8 7 6 5 5 6 6 6 6 5 6 5 5 5 4 3 3 3 5 7 9 11 11 12 13 13 13 13 12 11 10 9 8 6 5 4 4 3 3 3 3 2 2 2 2 2 2 2
8 7 6 4 6 6 7 7 6 6 7 7 7 6 6 5 4 3 4 5 6 9 10 12 13 13 14 14 14 13 11 10 9 8 7 5 4 3 3 2 1 1 1 1 2 1 1 2 1
8 7 6 5 6 6 7 7 8 8 8 8 8 7 6 5 5 5 4 6 7 9 10 11 12 14 14 15 15 14 13 11 10 9 8 6 4 3 2 1 0 0 1 1 1 2 2 2 1
8 7 7 6 6 6 7 7 8 8 8 8 8 8 7 7 6 6 6 6 8 9 11 12 13 15 16 16 16 15 14 13 11 10 8 7 5 3 2 1 1 1 1 1 2 2 3 3 2
8 7 6 6 5 6 7 7 8 9 9 9 9 9 9 9 9 8 7 8 9 10 12 13 15 16 17 17 17 17 16 14 13 10 8 7 5 3 2 2 2 2 2 2 2 3 4 3 3
8 6 7 6 6 6 7 7 7 9 9 9 10 10 10 10 10 9 9 9 10 11 12 14 15 17 19 19 19 19 17 15 13 11 9 7 5 4 4 3 3 3 3 3 3 3 3 3 3
9 8 8 7 7 7 7 7 8 9 10 11 11 11 11 11 11 11 10 11 12 13 14 15 16 18 19 20 20 19 18 16 14 12 10 8 7 5 5 4 3 3 3 4 3 3 3 3 2
10 9 8 7 7 7 6 7 8 9 10 11 12 12 12 12 12 12 11 12 12 13 14 16 17 19 20 21 20 20 19 17 15 13 11 9 8 6 5 5 4 4 4 4 3 3 2 2 2
10 9 8 8 8 7 7 8 9 10 11 12 13 13 13 13 13 13 13 13 13 13 14 16 19 19 21 22 21 22 20 19 16 14 12 10 9 7 6 5 4 4 4 4 2 2 2 1 2
10 9 9 9 8 8 8 9 10 11 12 14 14 14 14 14 13 14 14 14 14 14 15 17 19 19 21 23 23 23 22 20 18 16 13 11 9 7 6 5 4 4 4 3 2 2 2 2 2
10 9 10 10 10 9 9 10 12 13 14 15 15 15 15 15 15 15 15 14 14 15 16 17 19 20 23 25 25 24 23 20 19 16 14 12 10 8 7 6 5 4 3 3 3 2 2 2 2
10 10 10 12 11 11 10 11 14 14 15 15 15 15 15 15 15 15 15 15 15 16 17 16 17 20 22 24 25 24 23 21 19 16 14 12 10 9 8 7 5 4 3 3 3 2 2 1 1
11 10 11 13 12 12 11 12 14 15 15 15 16 16 16 16 16 15 15 15 14 14 14 15 17 19 23 24 24 23 22 21 19 16 14 12 10 9 8 7 6 5 4 3 3 2 2 2 1
13 12 12 13 13 11 12 12 14 15 15 15 16 16 16 16 16 14 13 13 12 12 12 12 17 20 22 23 23 22 22 21 19 17 14 12 10 9 8 7 6 5 5 4 3 3 2 2 2
12 12 13 14 13 12 12 13 14 15 15 15 16 16 16 15 15 13 12 13 11 11 11 12 15 19 22 23 22 21 21 20 19 17 15 12 11 9 7 7 6 6 6 5 4 4 3 3 2
12 12 12 13 13 12 11 12 15 15 15 15 15 15 15 14 14 13 11 11 9 10 11 12 14 18 22 23 21 20 20 20 18 17 16 14 12 10 8 7 7 7 6 6 5 5 5 4 3
12 12 13 13 12 12 11 12 14 14 14 14 15 14 13 13 13 11 10 9 8 9 9 11 14 19 21 21 21 21 20 19 18 17 16 14 13 11 9 8 8 8 7 7 7 6 6 5 4
13 13 13 13 12 12 12 10 13 14 14 14 13 13 13 12 12 10 10 9 8 7 7 9 13 17 21 22 20 21 20 19 18 17 16 14 13 12 10 10 9 8 8 8 8 8 7 6 5
14 15 14 13 12 12 12 11 11 13 13 13 12 12 12 11 10 11 10 9 7 6 7 8 12 15 19 20 19 20 20 19 19 18 16 15 14 13 12 11 11 10 9 10 9 8 8 7 7
14 14 13 13 12 12 12 11 10 12 12 12 12 11 11 10 9 9 9 8 6 5 5 7 11 13 17 19 19 19 19 19 18 18 17 16 15 14 13 13 12 11 11 10 10 9 9 9 8
15 13 13 12 12 12 13 12 10 11 11 11 11 10 10 9 8 9 8 7 6 4 4 5 9 12 15 17 19 19 18 18 18 18 17 16 16 15 14 14 13 13 12 11 11 11 11 10 10
16 14 14 13 12 12 15 13 10 10 10 10 11 10 10 10 9 8 8 7 6 5 3 5 7 9 12 15 18 19 18 17 17 17 17 16 16 16 15 15 14 14 13 13 13 13 13 13 12
16 16 15 16 15 14 14 14 12 11 11 10 11 11 10 10 9 9 8 7 6 4 3 4 6 8 10 13 15 17 18 16 16 17 17 17 17 16 16 16 15 15 15 14 15 15 15 14 14
18 18 17 16 16 15 13 13 12 12 11 11 11 10 10 9 9 9 9 7 6 3 3 4 5 8 10 11 13 15 17 16 16 17 16 16 17 16 15 15 16 17 16 16 16 17 17 17 17
20 19 19 18 18 16 14 13 14 12 12 12 11 11 10 10 10 9 9 8 6 5 4 4 5 7 9 10 11 13 15 17 17 17 16 16 17 16 16 17 18 18 18 18 18 19 19 19 19
21 21 20 21 20 19 17 15 16 14 13 12 12 12 12 11 10 10 9 8 6 6 5 5 6 8 9 10 11 12 14 15 16 16 17 17 17 17 18 18 18 19 19 20 21 22 22 22 22

GEFSSGP_500_meanwind_126.txt.gz
Wind_Speed
9 8 7 6 7 11 10 7 8 8 8 7 6 6 6 7 7 6 7 7 7 8 8 9 10 10 9 8 8 7 7 7 6 6 5 5 4 4 3 3 3 3 3 3 3 3 3 2 2
8 7 5 6 9 12 8 7 10 10 9 8 7 8 8 8 8 8 8 8 7 8 8 9 10 10 9 9 8 8 7 7 7 6 5 4 4 3 3 3 3 3 2 3 3 2 2 2 1
6 5 6 7 10 9 7 9 10 10 10 8 8 9 9 8 9 9 9 9 8 9 9 10 10 10 10 9 9 8 7 7 7 6 6 5 4 4 3 3 2 2 2 2 2 2 1 1 0
5 4 5 7 8 6 8 10 11 11 10 10 9 9 8 9 10 9 9 9 8 9 10 10 11 11 11 11 10 9 8 8 7 7 6 5 4 4 3 2 2 2 2 1 1 1 0 1 1
4 4 6 6 5 4 8 11 10 11 11 11 10 10 9 9 9 9 9 9 8 8 10 11 11 11 11 11 11 10 9 9 8 8 7 6 5 4 3 2 2 1 1 1 1 1 0 1 1
3 4 6 6 5 6 10 11 10 10 11 11 11 11 10 10 9 9 8 8 8 8 10 12 13 12 12 12 11 11 10 10 9 9 8 7 5 4 3 2 2 1 1 1 1 1 1 1 1
2 3 4 2 3 7 10 11 10 11 10 10 11 11 9 9 10 9 9 8 7 8 10 12 13 13 13 13 13 12 12 11 10 10 9 8 6 5 4 3 2 2 1 1 1 1 1 2 2
1 1 3 1 2 7 11 11 11 11 10 11 11 12 10 11 10 10 10 9 8 8 9 11 12 13 14 14 14 13 13 12 12 11 10 8 7 6 5 4 3 2 2 2 2 2 2 3 3
1 3 3 2 2 8 11 10 10 11 10 11 10 11 12 12 12 11 11 10 9 8 9 11 12 13 14 14 14 14 14 13 13 12 10 9 8 7 6 5 4 3 3 3 2 3 3 3 3
1 2 2 0 5 9 11 11 9 10 11 13 12 11 11 12 12 12 12 12 11 10 9 10 12 14 14 15 15 15 15 14 14 13 12 11 9 8 6 5 4 4 3 3 3 3 3 3 3
3 4 4 5 9 11 9 9 9 10 13 14 15 14 13 12 13 13 13 13 12 12 11 11 12 15 15 15 16 16 15 15 14 14 12 11 9 8 7 6 5 4 3 3 3 3 3 3 3
5 6 8 8 9 10 9 9 10 11 13 15 15 16 16 15 15 15 13 13 13 13 13 13 15 16 17 17 17 17 16 15 15 14 13 11 10 8 7 6 6 5 4 3 3 3 3 3 3
7 7 8 9 10 9 9 9 11 10 12 14 16 17 17 17 16 16 15 15 15 15 15 15 16 17 18 17 18 17 17 16 15 14 13 12 10 9 7 6 6 5 4 3 3 2 2 2 2
8 9 9 9 9 9 8 10 12 12 11 14 17 18 17 17 17 16 16 17 17 17 17 16 17 18 19 19 17 17 17 17 15 15 14 12 10 9 7 6 6 5 4 4 3 2 2 1 1
9 9 8 7 7 7 9 11 15 14 12 14 17 18 17 17 18 18 17 18 19 17 18 18 18 18 19 20 18 18 18 17 16 15 14 12 11 9 8 7 6 5 4 4 3 2 2 1 1
7 7 7 8 8 8 10 13 16 14 13 16 18 19 18 19 19 19 18 18 18 18 18 18 17 17 17 19 19 18 18 19 18 16 15 13 12 10 9 7 7 5 5 4 4 3 2 1 0
4 6 9 11 8 10 11 12 16 15 14 17 19 19 19 19 20 19 18 18 18 18 18 18 16 16 16 19 20 18 18 19 19 17 15 14 13 11 9 8 7 6 5 5 4 3 2 2 1
5 9 12 9 10 12 12 12 14 15 14 17 19 19 20 19 19 18 17 16 17 17 16 16 15 16 16 18 19 18 18 19 18 17 15 14 13 11 10 9 8 7 6 6 5 4 3 2 2
10 12 11 8 11 14 14 13 13 15 15 15 17 19 20 19 18 17 16 16 16 15 14 14 14 15 16 16 18 19 19 18 18 17 15 14 13 12 11 9 8 7 7 6 6 5 4 3 2
14 14 13 13 15 15 15 14 13 16 16 15 16 18 20 19 17 17 16 15 15 13 12 12 12 12 14 16 17 18 19 18 17 16 15 15 14 13 11 10 8 7 7 7 7 6 5 4 3
14 15 14 14 14 14 14 13 14 16 16 15 15 18 18 17 17 17 15 14 14 12 10 10 11 11 13 16 16 16 18 17 16 15 14 14 14 13 12 10 9 8 8 8 7 6 5 4 4
14 14 15 15 15 15 13 15 16 16 15 14 15 16 16 16 17 16 14 13 12 11 10 9 9 10 12 15 16 16 16 16 15 15 14 14 14 13 12 11 10 9 8 8 8 7 6 5 5
14 15 15 15 15 15 14 15 16 18 16 13 14 15 14 15 16 15 14 13 12 12 10 8 9 9 11 14 16 16 16 16 16 15 14 14 14 13 12 11 11 10 9 8 8 7 7 6 6
15 15 14 13 13 13 13 14 14 16 15 14 16 16 14 15 15 15 14 13 12 12 11 8 8 9 11 13 15 17 17 17 16 14 14 14 14 13 13 13 12 11 10 9 9 9 8 8 7
14 13 11 12 13 13 12 12 12 13 15 17 17 16 15 15 15 14 13 13 12 11 10 8 7 8 9 12 15 16 17 16 16 15 14 14 14 14 14 14 13 12 11 10 10 10 10 10 9
14 13 13 13 15 16 13 12 9 10 14 16 17 16 16 15 14 13 13 12 11 10 8 6 5 5 7 10 13 15 15 16 16 16 15 15 15 15 15 14 14 14 13 12 12 12 12 12 12
16 15 13 15 16 17 16 12 7 10 14 16 16 16 16 15 14 13 13 11 10 9 7 6 4 5 6 8 11 14 15 15 15 16 16 15 16 16 16 15 15 14 14 13 14 14 14 14 14
17 16 15 17 17 15 14 15 13 14 14 15 16 17 17 15 14 13 12 11 10 8 7 5 3 4 5 7 10 13 14 15 15 15 16 15 15 16 15 15 15 15 14 15 15 16 16 16 16
16 18 19 19 18 17 16 17 17 17 15 16 16 17 17 16 15 14 12 11 10 8 7 6 4 5 6 7 9 10 12 14 14 15 15 15 15 16 16 16 16 15 15 15 15 16 17 17 18
17 18 19 21 21 20 19 19 18 16 15 16 16 19 18 16 15 14 13 12 10 8 7 6 6 5 6 7 9 10 12 12 14 14 15 15 15 16 16 16 16 15 15 15 16 17 18 18 19

GEFSSGP_500_meanwind_132.txt.gz
Wind_Speed
4 4 5 6 6 7 10 13 14 14 12 10 10 9 9 9 7 4 3 1 1 2 3 4 5 5 5 5 4 3 3 3 3 3 3 4 4 4 3 3 2 2 2 2 2 2 2 2 3
3 3 4 5 5 6 9 13 14 14 13 11 10 10 8 7 6 4 3 1 1 2 3 5 5 6 6 6 5 4 3 3 3 3 3 3 4 4 3 3 3 2 2 2 2 2 3 2 3
1 2 2 3 4 6 10 13 14 14 14 12 11 10 8 7 5 4 3 1 1 2 3 4 5 6 6 6 5 4 4 4 3 3 4 4 4 4 3 3 3 3 3 3 3 3 3 3 3
1 1 1 2 2 5 8 11 13 14 14 14 12 11 10 8 6 4 4 3 1 1 3 4 6 6 7 7 6 5 4 4 4 4 4 4 4 4 4 3 3 3 3 3 3 3 3 3 3
2 1 0 1 2 3 6 10 12 14 14 14 13 12 11 9 8 5 4 4 2 0 1 4 6 7 7 8 7 7 6 5 4 4 4 3 4 4 3 3 4 3 3 4 4 4 4 3 3
2 2 2 0 1 2 5 7 11 14 16 14 13 12 11 10 9 6 5 4 3 2 1 3 5 7 7 8 8 8 7 6 5 5 4 4 4 4 4 4 4 4 3 4 4 4 4 3 3
3 2 2 2 2 3 4 7 9 12 15 14 13 13 12 11 8 6 5 4 4 3 3 3 5 7 8 8 9 8 8 7 6 6 5 4 4 4 4 4 4 4 4 4 5 5 4 4 3
3 3 3 3 3 3 3 6 10 12 14 14 14 14 13 11 9 8 6 4 4 4 4 4 5 7 8 9 9 9 8 8 7 6 5 5 5 5 5 5 5 5 5 5 5 5 4 4 3
4 5 4 2 2 3 4 7 10 11 13 14 14 14 13 11 10 9 7 5 4 4 4 4 5 6 7 9 10 10 9 8 7 6 6 5 5 5 5 5 5 6 6 5 5 5 4 3 3
7 7 5 3 2 3 5 9 10 12 14 15 14 14 13 11 10 9 7 6 5 5 5 4 5 6 8 9 10 10 10 9 8 8 7 6 6 6 5 5 6 6 6 6 6 5 4 3 3
9 10 9 7 6 6 7 10 11 12 13 13 14 13 13 12 11 8 7 7 6 6 6 6 6 8 9 10 10 11 12 11 10 9 8 8 7 7 6 6 6 6 6 6 6 5 4 3 2
12 12 11 10 8 9 10 10 11 13 13 13 13 12 13 12 11 8 7 8 8 7 7 7 8 9 10 11 12 12 13 13 12 10 9 8 8 7 6 6 6 6 5 6 5 4 3 2 2
13 14 13 12 11 11 10 11 12 14 14 14 14 14 13 12 11 9 8 8 9 9 9 8 9 11 12 12 13 14 14 14 13 12 11 9 8 8 8 7 6 5 5 5 5 4 3 2 2
13 14 13 12 11 11 11 12 12 14 13 14 14 13 14 13 12 11 10 11 10 9 10 9 10 12 12 13 14 15 15 15 14 13 12 11 9 8 7 6 6 6 5 4 4 4 3 2 2
13 12 11 9 10 11 11 10 10 11 13 15 16 15 13 12 12 12 13 13 11 10 11 11 11 12 12 14 15 15 16 16 15 14 13 12 10 8 7 6 6 6 5 4 4 4 3 3 2
12 10 9 8 8 9 11 10 10 11 14 17 18 17 14 12 13 13 14 13 12 12 12 13 11 12 13 14 14 15 17 16 16 16 14 14 12 10 8 7 6 6 5 5 5 5 4 4 3
10 10 10 8 7 9 12 11 10 12 15 17 18 17 15 14 13 13 14 13 13 13 13 12 10 11 11 13 14 16 17 18 18 17 16 15 14 11 9 8 7 6 5 6 6 6 5 5 4
12 13 12 8 7 10 12 12 12 12 16 17 16 17 15 15 15 14 14 13 13 12 12 12 10 11 12 12 14 15 17 18 19 18 18 17 15 13 11 9 9 7 6 7 7 7 6 5 5
15 15 13 8 7 9 11 11 12 14 15 17 17 15 14 15 15 14 14 13 12 12 11 10 11 10 11 11 13 14 17 18 18 18 18 17 15 14 13 12 10 9 7 7 7 8 7 6 6
17 17 13 9 8 10 11 11 13 15 17 19 19 16 13 14 13 12 12 12 12 11 10 10 9 8 9 11 13 14 18 18 18 18 17 16 15 15 14 13 12 10 8 8 8 8 8 7 7
17 16 14 12 12 13 14 14 14 16 19 19 19 15 12 14 13 12 11 12 12 11 10 10 9 8 8 10 13 16 18 18 18 17 16 15 15 16 15 13 12 11 10 8 8 9 8 8 8
17 15 15 15 16 16 17 18 17 18 19 19 16 14 13 12 11 11 11 11 11 10 10 9 9 8 8 9 11 14 16 18 19 18 17 16 15 16 16 15 13 12 11 9 9 9 9 9 9
16 15 16 17 18 19 20 20 18 18 17 16 15 13 11 9 9 10 10 10 10 10 10 9 8 8 8 10 11 13 17 18 19 19 18 16 16 16 16 16 15 14 12 11 10 10 11 10 10
14 15 17 19 19 18 18 20 19 19 18 15 13 10 7 8 8 9 10 10 9 10 10 9 8 7 6 8 11 13 16 18 19 19 17 16 16 16 16 15 16 16 14 13 12 12 12 12 11
15 16 17 18 17 14 14 16 17 17 17 15 12 8 6 6 8 9 10 10 9 9 9 8 7 6 7 9 11 13 15 17 19 19 18 17 17 17 17 16 16 16 15 14 14 14 13 12 12
15 16 16 16 15 13 12 13 13 14 15 13 10 7 6 6 7 8 9 9 10 9 9 8 7 5 5 8 11 13 15 17 20 20 19 18 18 18 18 18 17 17 16 16 15 15 14 13 13
15 16 15 15 15 15 14 13 13 13 13 10 9 8 7 7 8 8 8 9 10 10 9 8 6 5 6 8 9 12 15 18 20 20 20 19 19 19 19 19 19 18 17 16 16 16 16 16 15
14 14 16 18 18 17 16 15 13 12 12 11 10 9 8 8 8 9 9 9 9 9 8 7 6 6 6 8 9 11 14 18 20 21 21 20 19 19 19 19 19 19 18 17 16 17 17 17 17
16 17 19 20 21 21 19 16 15 14 13 12 11 11 11 10 10 10 10 10 9 9 8 7 6 6 6 7 9 10 12 15 17 19 20 20 20 19 19 19 19 19 19 18 18 18 18 18 18
19 19 20 21 21 22 22 19 17 17 16 15 14 13 13 12 12 13 12 11 10 9 7 7 6 6 6 7 8 8 10 13 16 17 19 20 20 20 20 19 19 19 19 19 20 20 20 20 20

GEFSSGP_500_meanwind_138.txt.gz
Wind_Speed
5 5 5 5 6 8 10 12 13 14 14 14 13 12 11 9 7 5 2 0 1 2 3 4 4 4 4 4 4 5 6 6 6 6 6 6 7 7 6 6 7 7 7 7 7 7 6 6 6
5 4 5 5 6 9 10 11 13 14 14 14 14 13 12 10 7 5 3 1 1 2 3 4 5 4 4 4 4 4 5 5 5 5 5 5 6 6 6 6 7 7 7 7 7 6 6 6 6
4 4 4 4 5 8 10 11 13 13 14 14 14 13 13 11 8 6 4 2 1 2 4 4 5 5 4 4 3 3 3 4 4 4 4 4 5 5 6 6 6 6 6 6 6 6 6 5 5
4 4 4 3 4 6 7 10 11 12 13 13 13 13 12 11 9 6 4 3 1 2 3 4 4 5 5 4 4 4 3 3 3 3 3 4 4 5 5 6 6 6 6 6 6 6 5 5 5
4 3 3 3 3 4 5 8 9 11 13 13 12 12 12 11 10 7 5 3 1 1 2 3 4 5 5 5 4 4 3 2 2 2 2 2 3 4 4 4 5 6 6 6 5 5 5 5 5
3 3 3 4 4 3 4 6 8 10 11 12 12 11 11 11 10 8 5 3 1 1 2 3 4 5 5 5 4 4 3 2 2 2 1 1 2 3 3 3 4 5 5 5 5 5 5 4 4
4 4 4 4 4 3 4 5 6 9 11 12 12 11 11 11 10 8 6 4 2 2 2 3 4 5 5 5 5 5 4 3 3 2 1 0 1 2 3 3 3 4 5 5 6 6 5 4 4
5 5 6 6 6 6 5 5 6 7 10 11 12 11 11 11 10 8 7 5 3 2 2 3 4 5 6 6 5 5 5 4 3 2 1 1 1 2 3 3 3 4 5 5 6 6 5 4 3
7 7 8 7 7 7 6 6 6 8 9 11 11 12 11 11 10 9 7 6 4 3 3 3 3 5 6 6 6 7 6 5 4 3 2 2 1 1 2 3 3 4 4 5 5 5 4 3 3
9 9 9 9 9 8 7 7 7 8 9 10 10 11 11 11 11 9 8 6 5 4 4 3 4 4 6 7 7 8 7 7 6 4 4 3 2 2 3 3 4 4 4 4 5 5 4 3 2
10 11 11 11 11 10 10 8 8 8 9 10 11 11 11 12 11 10 8 7 6 5 5 5 4 5 7 8 8 9 9 8 8 6 5 4 3 3 3 4 4 4 4 4 5 5 4 3 2
11 12 13 12 12 12 12 11 10 8 8 9 10 12 12 12 12 10 8 8 6 6 6 6 6 7 7 9 10 10 10 11 10 9 7 7 5 4 4 5 5 4 4 4 4 4 3 2 1
12 13 13 13 13 13 13 12 10 8 8 9 10 11 11 12 11 9 9 9 8 7 7 8 8 9 9 10 11 11 12 12 12 11 10 9 7 6 6 6 6 5 4 4 4 4 3 2 2
13 13 13 13 14 14 14 13 11 9 8 8 9 10 11 11 10 10 10 10 9 9 10 10 10 10 11 11 12 13 13 14 14 13 12 11 9 8 7 7 6 6 5 4 4 3 2 2 2
13 13 13 14 15 15 14 12 11 9 8 8 9 10 9 10 10 11 11 11 11 11 12 12 11 11 12 13 14 14 14 15 15 13 14 13 11 9 8 8 7 6 5 4 3 2 1 1 1
14 13 14 15 16 16 14 12 11 10 8 8 9 9 10 10 11 12 12 12 12 12 12 13 12 13 13 11 13 15 16 16 16 15 15 14 13 11 10 9 8 7 6 5 4 3 2 2 2
14 14 15 16 16 17 15 13 11 10 9 9 10 10 12 12 12 13 13 13 13 12 12 12 12 12 12 13 13 14 15 16 17 16 16 16 15 13 11 10 9 8 7 6 5 4 3 3 3
16 15 15 16 16 16 15 12 11 10 9 9 10 11 13 13 12 12 13 13 14 14 13 11 10 9 11 12 13 14 13 15 16 16 17 18 16 14 12 11 10 9 8 7 6 6 5 5 4
17 16 15 16 17 16 15 14 12 11 10 10 10 12 12 12 13 13 13 13 13 13 12 10 10 10 10 12 14 14 14 14 16 17 18 19 18 15 13 13 12 10 9 8 7 7 7 6 6
17 16 16 17 18 17 16 15 13 12 11 12 11 11 12 13 13 13 14 14 14 13 12 11 9 8 8 11 14 15 15 15 16 17 18 19 18 17 15 15 14 12 11 10 9 8 8 8 7
17 16 17 18 20 19 18 16 14 14 13 12 12 12 13 14 14 15 15 15 16 15 13 11 8 7 7 9 12 15 15 16 17 18 19 19 18 17 15 16 16 14 13 11 10 9 9 9 8
17 17 19 20 21 21 20 17 15 14 13 12 12 12 13 14 14 15 15 15 15 14 11 8 7 7 7 9 11 13 15 16 17 18 20 20 19 18 16 16 16 15 14 12 11 10 10 10 9
18 20 20 21 22 21 20 19 15 15 14 13 12 12 13 13 14 14 14 14 13 11 8 7 8 7 7 7 10 12 15 17 17 18 19 20 20 18 17 16 16 16 15 13 12 11 11 10 10
20 21 22 21 22 21 19 19 16 14 14 13 13 13 13 12 12 12 12 12 12 10 9 8 7 7 7 8 10 11 13 16 18 19 19 20 19 18 17 17 16 17 15 14 14 13 12 12 11
21 21 22 22 22 20 18 18 16 14 14 13 12 12 12 10 10 10 11 12 11 11 10 9 8 7 7 8 10 12 14 16 17 20 20 20 20 19 18 17 17 17 16 16 15 14 14 14 13
20 21 22 22 20 18 18 17 14 13 11 11 11 10 10 10 9 10 10 11 11 11 11 9 9 8 7 8 10 12 14 16 17 19 21 21 21 21 20 19 18 18 18 17 17 16 16 15 15
21 21 21 21 19 18 17 15 13 12 10 10 9 8 9 9 9 10 10 11 12 12 11 9 9 8 8 8 10 11 13 15 17 19 21 22 22 21 21 20 19 19 18 18 17 17 17 17 17
22 21 21 20 19 17 15 14 12 12 12 10 10 10 10 10 11 11 11 12 13 13 12 10 9 8 9 10 11 12 13 15 16 18 19 22 22 22 22 21 21 20 20 19 18 18 18 18 18
21 21 21 20 19 18 16 13 12 12 12 11 11 12 12 12 12 12 12 13 13 13 12 11 10 9 9 9 10 11 13 15 16 16 18 20 21 22 22 22 22 22 21 20 20 20 20 20 20
22 20 19 19 19 18 17 14 14 14 13 12 12 12 13 13 13 14 13 12 12 12 11 10 9 9 9 9 10 10 10 12 13 14 17 19 21 22 22 22 23 23 22 22 22 22 22 22 22

GEFSSGP_500_meanwind_144.txt.gz
Wind_Speed
10 11 11 11 12 12 10 9 9 9 9 9 9 8 8 7 6 5 4 4 5 5 6 7 7 7 7 7 7 8 9 9 9 9 10 10 10 9 9 9 8 8 7 7 7 7 6 6 6
9 10 10 10 13 10 9 9 9 9 9 9 9 9 8 7 6 5 4 4 4 4 6 7 7 7 8 8 8 8 8 9 9 9 9 9 9 9 9 9 8 7 7 7 7 6 6 6 6
8 9 9 10 10 8 8 8 8 8 8 8 9 9 9 7 6 5 4 4 4 4 5 6 7 8 8 8 8 8 8 8 8 8 8 8 8 8 8 8 8 7 6 6 6 6 6 6 6
7 8 8 9 7 7 7 8 8 8 9 9 8 9 9 8 6 5 4 3 3 4 5 6 7 8 8 8 8 8 8 8 8 8 8 8 8 7 7 7 7 6 6 6 6 6 5 5 5
7 7 8 7 5 6 7 8 8 8 8 8 8 8 8 8 7 6 4 4 3 4 4 5 6 7 8 9 9 8 8 8 8 8 7 7 7 7 6 6 6 6 6 6 6 5 5 5 4
7 7 7 3 4 5 6 7 7 7 7 7 7 7 7 7 7 6 5 4 3 2 3 4 6 7 8 9 9 9 8 8 8 8 7 7 6 6 6 5 5 6 5 5 5 5 4 4 4
6 6 4 3 3 4 5 5 6 6 6 6 6 7 7 7 7 6 5 3 2 1 1 3 6 7 8 9 9 8 8 7 7 7 7 7 6 5 5 5 4 4 4 4 4 4 4 3 3
4 4 4 3 3 3 4 4 4 5 5 6 5 6 6 7 6 6 5 4 2 0 1 2 5 6 7 8 8 8 8 7 7 7 7 6 5 5 5 4 4 3 3 3 4 3 3 3 3
4 3 2 2 2 2 3 3 4 4 5 5 5 6 6 6 6 5 5 4 2 1 1 2 4 6 7 8 9 9 8 8 8 7 7 6 5 5 5 4 3 3 2 3 3 3 3 2 2
4 3 2 3 3 3 3 3 3 4 5 6 6 6 6 6 6 5 5 4 3 2 2 3 4 5 6 7 9 9 9 9 9 8 7 6 5 4 4 4 3 2 2 2 3 3 2 2 2
5 4 4 4 3 3 3 3 3 4 5 6 6 6 6 5 5 4 5 5 4 3 3 3 5 6 7 8 9 10 10 10 9 9 8 7 6 5 5 4 3 2 1 2 2 2 2 2 1
5 5 5 4 4 3 2 2 3 3 4 6 6 6 6 5 5 4 5 5 5 5 4 4 5 6 7 8 10 11 11 11 10 10 9 8 7 6 5 4 3 2 1 1 1 2 2 2 1
6 6 6 6 5 3 3 3 3 4 5 6 6 6 6 6 6 5 5 6 6 5 5 6 7 8 8 9 11 13 13 12 11 11 11 10 8 8 6 5 4 3 2 1 0 1 1 1 1
7 7 7 7 6 5 4 4 4 5 6 6 6 6 6 6 6 6 7 7 8 7 6 7 8 9 9 10 11 13 14 14 13 13 12 11 10 9 8 6 5 4 3 2 1 1 1 1 1
8 8 8 8 7 6 5 5 6 6 6 6 6 6 6 6 7 8 8 8 9 8 8 9 10 10 10 11 12 13 14 15 14 14 13 13 12 11 9 8 6 4 4 3 2 1 1 1 1
9 9 10 9 8 6 5 6 7 6 6 6 7 7 7 7 8 9 9 9 9 10 10 10 11 11 12 11 12 14 15 15 15 15 14 14 13 12 11 9 7 6 5 4 3 2 2 2 2
10 9 10 11 9 7 6 7 7 7 7 7 7 8 8 8 9 9 10 10 10 11 11 11 11 11 11 12 13 14 14 15 16 15 15 15 15 13 12 11 9 7 6 6 5 4 3 3 3
11 10 11 12 10 8 7 7 8 7 7 8 8 8 9 10 10 11 10 10 11 11 11 11 10 10 11 11 12 14 14 14 15 16 15 15 15 14 13 12 10 9 8 7 6 5 5 4 4
12 12 12 13 11 9 8 8 8 8 8 9 9 9 10 11 10 10 11 11 12 12 12 11 10 10 11 12 12 13 15 14 15 16 16 15 16 15 14 13 12 10 9 8 7 7 6 6 5
13 13 13 13 11 9 8 8 8 8 9 9 10 10 10 10 11 13 12 12 12 12 13 13 11 11 12 12 12 12 15 15 15 17 16 16 16 16 15 15 13 12 10 10 9 8 8 7 7
15 14 14 13 11 10 8 9 10 10 11 11 11 11 11 12 12 13 13 12 12 13 13 13 12 10 9 10 11 12 14 15 15 15 16 17 17 17 16 15 14 13 12 11 10 10 9 9 8
16 15 15 13 11 11 9 8 12 11 11 11 11 12 13 12 13 13 12 12 11 12 13 12 10 10 10 10 11 12 14 15 16 16 17 17 17 17 17 15 15 14 13 12 12 11 11 10 10
17 16 15 13 12 11 11 9 11 12 12 13 13 13 13 12 12 11 11 11 11 12 12 11 11 10 9 9 10 12 14 15 17 18 17 16 17 18 18 16 15 14 14 13 13 13 12 11 11
18 16 15 13 13 13 12 10 11 12 13 13 13 13 12 11 10 10 10 10 10 11 11 11 11 10 9 9 10 12 13 15 16 17 17 17 17 17 18 17 16 16 15 15 14 14 13 12 12
19 16 15 14 14 13 14 11 12 13 12 12 12 11 10 10 10 9 9 9 10 11 11 11 11 10 10 10 11 12 13 15 16 17 18 18 18 18 18 18 17 17 17 16 15 15 15 14 13
19 18 16 14 13 13 15 12 13 12 11 11 11 10 9 9 8 8 8 8 9 10 11 11 11 10 10 11 12 13 13 14 15 16 17 19 19 19 19 19 19 18 18 17 17 17 17 16 15
20 18 17 16 15 13 14 13 12 12 11 10 9 9 8 8 8 8 9 9 10 11 12 11 11 10 10 11 11 12 13 13 15 16 17 18 18 19 20 20 20 20 19 18 17 18 18 17 16
21 19 19 17 15 14 13 12 12 12 11 10 9 9 8 8 9 9 9 10 11 12 12 11 12 11 11 11 12 12 13 14 15 17 17 18 19 19 20 21 21 21 21 20 20 19 19 18 18
21 20 19 17 16 14 12 13 14 13 12 11 10 10 10 10 11 11 11 12 12 13 12 11 12 12 11 10 11 12 13 14 15 16 18 19 20 20 20 22 22 22 22 22 22 21 21 20 20
21 20 19 18 17 15 13 15 15 13 12 12 11 11 11 11 11 11 12 13 13 12 12 12 11 11 11 10 11 12 12 13 15 15 16 18 19 20 20 21 22 22 23 23 23 23 23 23 22

GEFSSGP_500_meanwind_150.txt.gz
Wind_Speed
12 13 13 13 16 15 11 9 8 7 7 6 5 4 4 3 2 1 1 1 2 2 3 4 5 5 5 5 4 4 4 4 5 5 5 5 5 5 5 5 5 5 5 5 5 5 5 5 5
12 12 12 14 16 14 9 8 8 8 8 6 5 5 5 4 3 2 2 1 2 2 3 4 4 5 5 5 5 4 4 4 5 5 5 5 5 5 5 5 5 4 4 5 5 5 5 5 4
12 11 14 16 15 11 8 8 7 8 8 6 6 7 5 4 4 3 2 1 2 2 3 3 4 4 5 5 5 5 5 4 5 4 5 4 4 4 4 4 4 4 4 4 4 4 4 4 4
11 12 15 15 12 9 8 8 8 7 8 7 7 7 5 5 4 3 2 1 1 1 2 3 3 4 4 5 5 5 5 5 5 5 5 4 4 4 3 3 3 3 4 4 4 4 4 4 4
10 11 12 13 9 6 7 7 7 8 7 8 8 7 7 6 5 3 2 1 1 1 1 2 3 4 4 5 5 5 5 5 5 5 5 5 4 4 3 3 3 3 3 4 3 4 4 4 3
7 9 12 11 6 4 7 7 7 8 8 8 9 8 7 7 5 4 2 1 1 1 1 1 2 4 5 5 5 6 6 6 6 6 5 5 4 4 3 2 2 2 2 2 3 3 3 4 3
5 9 9 7 3 4 7 8 6 9 10 10 10 8 7 6 6 4 3 1 1 1 1 1 2 3 4 5 6 6 6 6 6 5 5 5 4 4 3 2 2 2 2 2 3 3 3 3 3
6 8 8 5 2 4 6 7 6 7 7 8 9 9 9 7 6 5 3 2 1 2 1 2 2 3 4 5 6 6 6 6 6 5 5 5 4 4 3 2 2 1 2 1 2 2 2 2 3
8 9 7 4 2 5 6 6 7 7 7 6 8 10 10 8 6 5 4 4 2 2 2 2 2 3 4 5 7 7 7 7 7 6 5 5 5 4 3 3 2 1 1 1 2 2 2 2 2
6 8 5 0 2 5 7 6 7 8 9 7 7 10 9 8 6 5 5 5 3 3 3 3 4 4 4 5 7 8 8 8 8 7 7 6 5 5 4 3 2 1 1 1 1 2 2 2 2
4 3 1 5 7 7 5 6 7 8 11 10 9 9 8 8 6 5 6 5 5 5 5 5 5 5 5 6 7 8 9 9 9 8 7 7 6 5 4 4 3 2 1 0 1 2 2 2 2
2 2 5 5 6 6 5 6 7 8 9 11 10 10 9 8 7 5 5 6 7 6 6 6 6 6 6 6 7 8 9 9 9 8 8 7 6 6 5 4 3 3 2 1 1 1 1 1 1
3 3 4 6 5 5 6 6 8 8 9 11 11 10 9 8 7 7 7 7 8 8 7 7 7 7 7 8 8 8 9 10 10 9 9 8 7 7 6 5 4 3 2 2 2 1 1 1 1
4 4 4 5 6 7 6 6 8 8 10 12 11 10 10 8 7 7 8 8 9 10 9 9 8 8 9 10 10 9 10 10 10 10 10 9 9 8 6 5 5 4 3 3 2 2 1 1 1
6 5 4 4 6 7 6 7 9 9 9 12 12 11 10 9 9 8 9 9 10 11 10 10 9 10 10 10 10 9 10 10 11 11 11 10 9 9 8 7 6 5 4 4 3 3 2 2 2
6 5 5 6 7 8 8 9 11 7 9 12 12 12 11 9 10 9 9 10 11 12 11 10 10 11 11 11 11 10 10 11 11 10 10 11 10 10 9 8 7 6 5 5 4 3 3 3 2
4 4 6 8 10 9 9 10 11 7 9 13 13 12 11 11 10 10 10 10 11 12 12 11 11 12 12 12 11 10 10 11 11 11 11 11 11 10 9 10 9 7 7 6 6 5 4 3 3
4 6 8 10 12 11 10 10 11 8 11 14 14 13 12 12 10 10 11 12 12 13 12 12 12 12 12 11 10 10 10 10 10 11 11 11 11 10 10 10 10 9 8 8 7 6 5 5 4
9 9 11 11 13 13 11 10 12 11 13 14 14 14 13 13 12 12 13 13 13 13 13 13 13 12 12 11 10 10 10 11 10 11 11 11 11 11 11 11 11 10 10 9 8 8 7 6 5
12 11 10 12 14 14 12 12 13 14 14 14 15 14 13 14 14 14 14 14 14 14 14 14 13 12 11 10 10 9 9 10 10 10 11 11 11 12 12 11 12 11 10 10 10 9 8 8 7
13 12 11 12 14 14 11 11 12 15 15 15 15 14 14 14 14 13 14 14 14 13 13 13 13 12 11 10 10 9 9 9 9 10 12 12 12 12 12 12 12 12 11 11 11 10 10 10 9
15 14 14 14 14 13 11 12 14 14 14 15 15 15 14 14 15 13 13 14 13 12 12 12 13 12 12 11 10 9 9 10 10 11 13 13 13 13 13 13 12 13 12 12 12 12 12 11 11
16 15 15 15 14 13 12 12 15 16 16 14 14 15 15 15 15 14 13 12 12 12 12 12 12 12 11 11 10 9 9 9 10 11 13 14 14 14 14 14 14 13 13 13 13 13 13 12 12
17 16 15 14 13 15 13 13 16 18 18 16 16 16 16 15 16 15 12 12 12 12 12 12 12 12 11 11 11 10 10 10 11 12 13 14 14 15 15 15 15 14 14 15 14 14 14 14 13
18 16 13 12 12 12 12 13 17 19 18 17 17 16 15 15 15 14 13 12 12 12 12 12 11 11 11 11 10 9 10 10 11 12 13 14 15 15 16 16 16 16 16 16 15 15 15 14 14
18 16 15 11 11 12 13 15 17 20 18 17 17 17 16 15 14 14 13 13 12 12 12 12 12 11 11 11 11 10 10 10 10 11 12 13 15 16 17 17 17 17 17 17 17 17 17 16 16
19 18 15 15 13 13 14 13 18 20 19 18 19 18 16 16 15 15 14 13 13 13 12 12 12 12 12 12 11 10 10 10 10 11 11 13 15 16 17 17 18 18 19 19 19 18 18 18 18
21 19 18 19 18 16 15 17 19 18 18 18 17 17 17 16 15 15 15 14 14 13 13 13 13 13 13 12 11 11 10 10 11 12 13 14 16 17 18 18 19 19 19 19 19 19 19 20 20
22 22 21 20 19 17 17 19 20 20 19 17 18 17 16 17 15 15 14 14 14 14 15 14 13 13 13 12 12 13 12 11 11 12 14 15 16 18 19 20 20 20 19 21 21 21 21 21 21
21 22 22 23 22 20 19 22 22 19 17 18 18 17 17 16 15 15 13 14 15 15 15 15 14 14 14 13 13 13 13 12 12 13 14 15 16 18 19 20 20 19 19 21 21 22 22 22 23

GEFSSGP_500_meanwind_156.txt.gz
Wind_Speed
11 11 11 12 12 13 16 17 15 14 14 13 13 11 10 9 6 5 4 3 3 4 4 3 3 3 3 3 2 1 1 2 2 2 2 2 2 2 2 2 2 2 2 2 3 3 3 3 3
11 11 11 12 14 17 17 17 15 14 14 14 12 11 9 7 6 6 4 3 3 3 3 3 2 2 3 2 1 0 1 2 2 2 2 2 2 2 2 2 2 2 1 1 2 2 3 3 3
9 10 11 11 15 17 17 16 16 15 14 14 12 11 9 7 6 5 4 3 3 3 2 2 2 2 2 3 2 1 1 2 2 2 2 2 2 2 2 2 2 2 1 1 1 2 2 3 3
8 9 10 11 14 16 15 15 16 15 14 13 13 11 10 8 7 6 5 4 4 3 3 2 3 3 3 3 2 1 1 2 2 2 2 2 1 1 2 2 2 1 1 1 1 1 2 2 3
6 7 8 11 12 13 12 13 16 16 15 14 13 12 11 10 8 7 6 5 4 3 3 3 3 3 2 2 2 2 2 2 2 2 2 2 2 1 1 1 1 1 2 1 0 1 1 2 2
6 5 7 9 11 12 12 14 16 16 15 15 14 13 12 10 9 7 6 5 4 2 2 2 2 2 2 1 2 2 2 2 2 2 2 2 2 2 1 2 1 2 2 1 1 1 1 2 2
4 5 6 9 10 11 11 13 15 14 14 15 14 14 12 11 9 8 6 5 4 2 2 2 1 1 1 1 1 2 2 2 2 2 2 1 2 2 2 2 2 2 1 1 1 1 1 1 2
5 5 7 9 9 9 10 12 13 14 14 15 14 14 12 11 9 8 6 6 5 3 2 2 2 1 0 1 1 2 2 3 2 1 2 1 2 2 2 1 1 2 1 1 1 1 1 1 1
4 5 6 9 8 6 7 10 12 12 13 14 14 14 13 12 10 8 7 6 5 4 3 2 2 1 1 1 2 2 3 4 3 2 2 2 2 2 1 1 1 1 1 1 1 1 2 2 1
4 3 3 5 5 5 7 10 12 12 13 14 13 13 13 11 10 8 8 7 6 4 4 3 2 1 1 1 1 2 3 4 4 3 3 3 3 2 2 2 2 1 1 0 0 1 2 2 2
5 3 0 2 3 5 7 10 11 12 13 13 13 13 12 10 8 7 8 8 8 6 4 3 3 2 1 1 1 2 3 4 5 5 4 4 4 3 3 3 3 2 2 0 0 1 2 2 1
6 4 2 2 4 5 7 8 9 11 13 13 13 12 11 10 8 7 7 7 8 8 6 4 3 2 1 2 2 3 4 4 5 5 5 5 5 4 3 4 4 3 2 1 1 1 1 1 1
7 4 2 3 4 5 7 9 9 10 12 12 12 12 11 10 8 7 6 6 6 6 5 4 3 2 3 4 4 4 4 4 5 6 6 6 6 5 4 4 4 3 2 2 1 1 1 1 1
7 5 3 3 4 5 7 9 9 11 12 12 12 11 11 10 9 9 7 5 5 5 4 3 3 3 4 5 5 5 5 5 6 7 8 8 7 5 5 4 4 3 2 2 2 1 1 1 0
8 6 5 4 3 3 6 8 9 11 12 11 12 10 9 9 9 8 7 6 5 5 5 4 4 4 5 4 4 4 4 6 6 7 8 8 7 7 6 6 5 4 4 3 3 2 2 2 1
8 7 6 5 4 5 6 9 10 12 12 12 12 10 10 9 9 8 8 7 6 6 6 6 6 6 5 4 4 4 5 6 7 7 8 9 9 8 8 7 6 5 4 4 4 3 3 3 2
8 7 6 5 5 6 8 10 13 11 10 11 11 11 10 10 9 8 8 9 8 8 7 6 7 7 6 5 4 5 6 7 8 7 7 9 10 9 8 8 7 7 6 5 5 5 4 4 4
9 8 7 6 5 7 8 11 13 12 11 12 11 11 11 10 9 8 9 10 8 7 8 7 7 7 7 6 5 5 5 6 7 7 7 8 10 10 9 8 8 8 8 7 7 6 6 6 5
12 11 7 5 7 8 9 11 12 14 12 11 11 12 12 11 10 9 9 10 9 8 8 7 8 7 7 6 6 6 5 5 5 7 8 9 10 10 10 9 9 9 9 9 8 8 7 7 7
14 12 8 7 8 9 10 11 12 13 13 12 12 13 14 12 11 9 9 9 10 8 7 8 8 7 7 7 7 6 5 5 6 6 8 9 10 10 10 10 10 10 10 9 10 10 9 9 8
14 12 11 11 11 11 11 11 12 12 14 13 13 13 14 15 13 9 9 10 10 10 9 9 8 7 8 7 7 7 6 6 6 7 8 10 10 11 11 11 11 11 11 10 10 11 11 10 10
15 14 13 14 14 13 13 13 11 12 13 13 13 14 15 15 13 11 10 10 9 10 9 9 8 8 7 7 7 6 6 6 7 8 9 11 11 12 12 12 12 11 11 11 12 12 12 11 11
16 16 16 16 16 15 15 16 14 14 13 13 13 14 15 15 14 12 11 10 10 10 9 8 8 8 7 7 7 7 7 7 8 8 9 10 12 13 13 13 13 13 12 12 12 13 12 13 13
17 18 18 18 17 16 15 16 14 14 14 13 13 13 14 15 14 12 10 11 10 8 7 8 8 7 7 7 7 7 7 8 8 9 9 11 13 14 14 14 15 14 14 13 13 13 14 14 14
20 19 19 18 17 15 15 16 14 15 15 14 14 14 14 15 14 12 11 11 10 8 8 8 8 7 7 8 8 8 8 8 9 9 10 11 13 15 16 15 16 15 15 15 15 14 15 15 15
20 20 19 18 16 15 15 13 12 13 14 14 14 14 13 15 14 11 11 11 10 9 8 8 9 8 8 9 9 9 8 8 9 10 10 10 12 14 15 15 16 16 16 16 16 16 16 17 16
21 20 19 20 19 18 16 14 14 13 14 14 15 15 14 13 12 12 11 10 9 9 9 9 9 9 9 9 8 8 9 9 8 9 10 11 12 14 15 16 17 17 18 17 18 18 17 18 18
21 20 21 22 21 20 18 17 15 15 15 15 16 15 13 12 12 12 11 10 9 9 10 10 11 10 10 9 9 8 9 8 8 9 10 10 12 13 15 16 18 18 19 19 19 19 18 18 19
21 21 22 23 23 22 20 17 16 14 15 17 17 15 14 13 12 11 11 10 9 10 10 11 11 10 10 10 10 9 8 8 9 9 10 11 12 13 14 16 18 19 20 20 21 21 20 20 21
21 21 22 24 24 24 24 21 19 18 18 18 17 15 13 12 10 10 11 11 10 10 11 11 10 10 10 10 10 10 10 10 10 10 10 11 12 13 14 16 17 19 20 21 22 22 22 22 23

GEFSSGP_500_meanwind_162.txt.gz
Wind_Speed
10 11 11 13 15 16 18 20 20 19 17 15 13 12 10 9 8 6 6 5 5 4 4 4 5 6 6 7 8 9 9 8 8 8 7 7 7 7 7 7 6 6 6 6 6 5 5 5 5
9 10 10 13 16 17 19 20 20 19 17 16 15 13 10 8 7 6 6 6 5 3 3 4 4 5 6 6 7 7 7 8 8 8 7 7 7 7 7 6 6 6 6 6 6 5 5 5 5
8 9 10 12 14 16 19 20 20 18 18 17 16 13 11 9 7 6 6 6 4 3 3 4 4 5 5 5 6 7 7 7 7 7 7 6 6 6 7 6 6 6 6 5 5 5 5 5 5
7 8 9 12 13 15 18 19 20 19 18 17 16 14 12 9 7 6 5 5 4 3 3 4 4 5 5 5 6 6 6 6 6 6 6 6 5 5 6 6 6 6 6 5 5 4 4 4 4
5 7 9 10 12 14 16 18 19 19 18 17 16 15 12 10 8 6 5 4 3 3 3 4 5 4 4 5 5 5 5 6 6 6 6 5 5 5 5 6 6 6 6 5 4 4 4 4 4
5 6 8 10 12 14 15 16 17 18 16 16 15 14 13 11 8 7 6 5 3 3 3 4 5 4 4 4 4 4 4 4 4 5 5 5 5 5 5 5 6 5 5 4 4 4 4 4 4
3 4 6 8 10 12 15 15 16 17 16 15 15 14 13 11 9 7 6 5 4 3 4 5 5 4 4 4 4 4 4 3 4 4 4 4 4 4 4 4 5 5 5 4 4 4 3 3 4
1 2 4 7 8 11 13 15 16 16 16 15 15 14 13 11 9 7 7 6 5 4 4 4 4 4 4 4 4 4 3 3 3 3 3 3 3 3 3 4 5 5 5 4 4 4 3 3 4
2 2 4 6 8 10 11 14 15 15 16 15 15 14 13 11 10 8 7 6 5 4 4 4 4 4 3 3 3 2 2 2 1 1 1 2 2 2 2 3 4 4 4 4 3 3 3 3 3
2 3 5 6 8 9 11 13 14 14 15 15 14 14 13 11 10 9 7 6 5 4 3 3 3 3 2 2 2 1 1 1 1 0 1 0 1 1 1 2 2 3 3 3 3 3 3 3 3
2 3 5 6 7 9 11 12 13 14 14 14 14 14 13 12 11 9 8 6 5 4 3 2 2 1 2 1 1 1 1 1 1 2 1 1 0 1 1 1 1 2 2 2 2 2 2 2 3
3 3 4 6 6 8 9 10 12 12 12 12 12 13 13 12 10 9 8 7 5 3 3 2 1 1 1 1 1 1 1 2 2 2 3 2 1 1 1 1 1 1 1 1 1 1 2 2 2
4 4 5 6 6 7 8 9 10 11 11 11 11 12 12 12 10 9 8 7 6 4 3 2 2 2 2 2 2 2 2 1 3 4 4 3 2 2 2 2 2 1 1 0 1 0 1 1 1
5 5 6 7 5 5 7 8 9 10 10 10 10 10 11 11 11 9 8 8 6 5 4 4 3 2 3 3 3 2 2 2 2 3 4 4 4 4 4 3 2 2 2 1 1 1 1 1 0
6 6 7 7 6 5 5 6 8 10 9 8 8 9 10 10 10 9 9 8 8 7 5 4 4 3 3 3 3 3 3 3 3 4 4 5 5 5 5 3 3 2 2 2 2 2 2 2 1
8 7 8 7 6 5 4 5 7 9 10 7 6 7 8 9 9 9 9 9 9 8 6 5 4 4 4 4 4 3 3 3 4 4 5 5 6 6 6 5 4 4 4 3 3 3 3 3 2
9 8 8 7 7 6 5 5 7 8 8 6 6 6 7 8 9 9 9 9 9 8 7 6 5 4 4 4 3 3 3 4 4 5 6 6 7 7 7 7 6 5 5 4 4 4 4 4 3
11 10 9 9 8 7 5 4 5 6 6 6 5 6 8 9 9 9 10 10 9 9 8 6 5 4 4 5 5 5 4 4 4 5 6 7 7 7 8 8 7 6 6 6 6 6 6 5 5
14 12 12 11 10 8 6 5 5 6 5 6 5 6 9 10 9 10 11 11 10 8 8 6 4 3 4 5 5 6 5 5 4 5 6 7 8 8 8 8 8 8 7 7 7 8 7 7 7
15 14 13 13 12 10 8 6 6 6 6 6 6 7 8 10 11 10 11 11 10 8 7 7 6 5 4 5 5 5 5 5 5 5 6 7 8 9 9 9 9 9 9 9 9 9 9 9 8
16 16 15 14 14 12 10 8 7 7 7 7 7 7 8 9 10 11 11 10 9 7 7 7 7 7 6 5 6 6 6 6 6 7 8 8 9 10 10 10 10 10 10 10 10 11 11 10 10
17 17 17 16 15 14 12 10 8 8 7 7 7 7 7 9 9 10 10 9 9 8 9 9 8 8 6 6 5 6 6 7 8 8 8 9 10 12 12 12 11 12 12 12 12 12 13 12 12
19 19 18 17 17 16 14 12 10 9 8 7 7 8 7 9 9 10 11 10 10 10 10 11 10 7 7 7 6 6 6 7 8 7 8 10 11 12 13 13 13 13 13 13 14 14 14 14 13
21 21 19 18 18 18 16 14 11 9 8 8 8 8 8 8 10 11 12 10 10 10 10 10 9 7 7 6 6 6 7 8 8 8 9 10 11 12 13 14 15 14 14 14 15 15 15 16 15
22 22 20 19 19 18 17 16 12 11 9 9 9 8 8 9 11 12 12 11 10 10 9 9 8 8 7 7 6 6 8 8 8 9 10 11 12 13 14 15 16 16 16 16 16 16 16 16 17
24 23 22 21 20 18 18 16 13 12 10 10 10 9 10 11 12 12 12 11 11 11 9 9 8 8 7 7 7 8 9 9 9 10 11 12 13 14 15 16 17 18 18 18 18 18 17 18 18
25 24 23 23 22 21 20 17 14 12 11 11 11 11 11 12 13 13 13 12 12 11 10 9 8 8 7 7 8 9 9 9 10 11 12 13 13 14 15 16 16 17 18 18 18 19 19 19 20
26 25 25 24 23 22 21 18 14 13 12 12 12 13 12 12 13 13 12 12 12 12 10 10 9 9 8 8 9 9 9 9 10 11 12 13 14 14 15 15 16 18 19 19 20 20 20 20 20
27 26 26 25 25 23 21 18 15 14 13 12 12 13 13 12 13 13 12 12 12 12 10 10 10 10 9 9 9 10 10 10 10 11 12 12 13 13 14 15 16 18 19 20 20 21 21 21 22
29 27 26 26 25 23 22 18 16 15 13 12 13 13 14 14 14 13 13 13 12 12 10 11 11 11 11 10 10 10 11 12 12 12 12 12 12 13 14 15 16 17 19 20 21 22 23 23 23

GEFSSGP_500_meanwind_168.txt.gz
Wind_Speed
14 15 15 14 16 15 13 13 13 13 12 12 11 10 9 8 8 8 8 8 8 7 6 6 6 6 7 7 8 8 8 9 9 9 10 10 10 10 10 9 9 8 8 8 7 7 7 6 6
14 14 14 14 15 13 13 13 13 12 11 11 11 11 10 9 8 7 7 7 7 6 6 6 6 6 7 7 7 7 8 8 8 8 9 9 9 9 9 8 8 8 8 8 7 7 7 7 7
13 13 14 15 13 12 13 13 13 13 12 12 12 11 10 9 8 7 7 7 7 6 5 5 5 6 6 7 7 7 8 8 8 8 8 8 8 8 8 8 8 8 8 7 7 7 6 6 6
13 13 14 14 12 12 13 13 13 13 13 12 12 11 10 9 8 7 6 6 6 5 5 5 5 5 6 6 6 7 7 8 8 8 8 7 7 7 7 7 7 7 7 7 6 6 6 6 5
12 13 13 11 11 12 12 12 13 13 13 12 12 11 10 9 8 7 6 6 6 5 4 4 5 5 6 6 6 6 7 7 7 7 7 7 6 6 6 7 7 7 7 7 6 6 6 5 5
12 13 10 9 10 11 12 12 13 13 12 12 12 11 10 9 8 7 6 6 6 5 4 4 4 5 5 5 6 6 6 6 6 6 7 6 6 6 6 6 6 7 7 7 6 6 5 6 5
12 11 10 10 10 11 12 12 13 13 13 12 11 10 9 9 8 7 6 6 5 5 4 4 4 4 4 5 5 5 5 5 6 5 6 6 6 6 6 6 6 6 7 7 6 6 5 5 5
10 10 9 9 10 11 11 12 12 12 12 12 11 10 10 9 8 7 6 6 5 5 4 3 3 2 3 3 4 4 4 5 5 5 5 4 5 5 5 6 6 6 6 6 6 6 5 5 6
9 9 7 8 9 9 10 10 11 11 11 11 11 11 10 9 8 7 6 5 4 4 3 2 2 1 1 2 2 3 3 4 4 4 4 3 3 4 4 5 5 5 5 5 6 6 5 5 5
8 8 7 8 9 9 9 10 10 10 11 11 11 11 10 9 8 7 6 5 4 3 3 2 1 1 0 0 1 2 3 4 3 3 3 3 3 4 4 4 4 5 5 5 5 5 5 5 5
6 7 6 7 8 8 8 9 9 9 10 10 10 10 10 9 9 8 6 5 4 3 2 1 1 1 1 1 1 2 3 3 3 2 3 3 3 3 3 3 3 4 4 4 4 5 5 5 5
5 6 6 6 7 8 8 8 8 8 8 8 8 9 9 9 9 8 6 5 4 2 2 1 1 1 2 2 2 2 3 3 3 2 3 4 3 3 3 3 3 4 4 4 4 4 4 4 4
3 4 5 5 6 6 7 6 6 6 6 6 7 8 9 9 9 8 7 5 4 2 1 1 2 2 2 2 2 2 3 4 3 3 4 4 4 3 3 3 3 3 3 3 3 3 3 3 3
2 3 4 4 4 5 5 6 5 5 5 5 6 7 7 8 8 7 7 6 4 3 2 2 3 3 2 3 2 2 3 3 3 4 4 4 4 4 3 4 4 4 4 3 3 3 3 2 2
2 1 2 3 3 4 5 5 5 4 4 5 5 6 6 7 8 8 7 6 5 4 4 3 3 3 3 2 2 2 3 3 3 4 4 4 4 4 4 4 4 4 4 3 3 3 3 2 2
3 1 1 0 2 2 3 3 3 4 4 4 5 5 6 7 8 8 8 7 6 5 5 4 4 4 3 2 2 2 3 3 4 4 5 5 5 5 5 5 5 4 4 4 4 4 3 3 2
4 3 3 2 1 1 1 1 2 3 3 3 4 5 6 7 8 8 8 8 7 7 6 5 5 4 3 2 2 3 2 3 4 4 5 5 5 6 6 5 5 5 5 5 4 5 4 4 3
6 5 4 3 2 1 1 2 2 2 3 3 3 5 6 7 8 8 9 9 9 8 7 7 5 4 3 3 4 4 4 4 5 6 6 5 5 6 6 6 6 6 6 6 6 6 5 5 4
9 7 6 5 3 2 2 3 3 3 2 3 4 5 6 7 8 9 10 10 10 8 8 7 6 4 3 4 5 5 5 5 5 6 6 6 6 6 7 7 7 7 7 7 7 7 7 6 6
10 8 8 6 5 4 4 4 4 3 3 3 4 5 6 7 8 9 10 10 9 9 9 8 7 6 5 5 6 7 6 5 5 6 7 7 6 7 8 8 9 8 8 8 8 8 8 8 7
11 11 10 8 6 5 5 5 4 4 4 4 5 6 7 8 8 9 10 10 10 9 9 9 8 7 6 6 6 7 7 5 6 6 7 7 8 8 9 9 10 10 10 10 10 10 10 9 9
13 13 11 9 7 7 5 5 7 5 5 5 6 7 8 8 9 9 10 11 10 10 10 10 10 9 7 6 6 6 7 7 6 6 7 7 8 9 10 10 10 10 10 11 11 11 11 11 11
16 14 12 10 9 8 7 5 7 7 6 6 7 7 7 8 8 9 10 11 11 11 11 11 11 10 9 8 8 8 7 8 8 8 8 8 9 10 10 11 11 12 12 13 13 12 13 13 14
17 15 13 12 10 10 10 7 7 8 7 8 8 7 8 8 8 10 11 12 12 12 11 11 12 11 10 9 8 9 9 9 9 9 9 10 10 10 11 12 13 14 14 15 15 15 14 15 15
18 16 14 13 12 12 11 9 9 9 8 9 9 9 8 9 9 10 11 13 13 12 11 10 11 10 9 9 8 8 9 9 9 10 10 11 11 12 12 13 14 15 15 16 16 16 16 17 17
19 18 16 14 12 13 13 11 10 9 9 9 9 9 10 10 11 11 12 13 13 12 11 10 11 10 9 8 8 8 9 10 10 11 11 12 12 13 14 15 15 15 16 17 17 17 18 18 19
22 20 18 16 15 13 14 12 11 10 10 10 10 10 11 11 12 12 13 12 13 12 10 10 10 10 9 9 9 9 9 10 11 12 12 13 13 14 15 15 17 17 17 18 18 18 18 19 19
24 22 21 18 16 14 14 12 11 11 11 11 10 11 11 12 12 13 12 12 13 12 10 10 10 10 9 10 10 10 10 11 12 13 14 14 14 14 15 16 17 18 18 19 19 19 19 20 21
25 23 21 19 18 15 13 13 13 13 12 11 11 11 12 12 12 13 13 13 12 12 11 10 11 11 10 11 11 11 12 12 13 13 13 14 14 15 16 16 17 18 19 19 19 19 19 20 21
26 24 23 21 20 17 15 15 15 14 13 12 12 12 13 12 13 13 13 13 12 12 11 11 11 11 10 11 12 12 13 13 13 13 13 13 14 15 16 17 18 18 18 18 19 20 21 22 22

GEFSSGP_500_meanwind_174.txt.gz
Wind_Speed
18 17 17 18 20 14 10 9 8 7 6 5 4 4 3 3 3 3 3 4 5 4 4 4 3 3 2 2 2 2 3 3 3 4 4 4 5 5 6 6 6 6 7 7 7 7 7 7 7
17 15 18 21 17 12 11 9 8 8 6 5 5 5 4 3 3 2 2 3 4 4 3 3 3 2 2 1 2 2 2 2 2 3 3 3 4 4 5 5 6 6 6 6 7 7 7 6 6
16 16 20 19 13 11 11 10 9 8 7 6 5 5 5 4 3 3 3 3 4 3 3 3 2 2 2 1 2 1 1 1 2 2 3 3 3 3 4 5 5 5 6 6 6 6 6 6 6
16 18 18 14 10 11 11 10 9 8 7 6 6 6 6 4 3 3 3 2 3 3 3 2 2 2 2 2 1 1 1 1 2 2 2 3 3 3 4 4 5 5 5 6 6 6 6 5 5
15 16 15 13 10 10 10 9 8 7 6 6 6 6 6 5 4 3 3 2 2 2 2 2 2 2 2 1 1 1 1 1 1 2 2 2 2 3 4 4 4 4 5 5 6 5 5 5 5
15 15 13 10 9 9 9 9 9 8 7 7 7 7 6 5 4 3 2 2 2 2 2 2 1 1 1 1 1 1 1 1 1 2 2 2 2 3 4 4 3 4 5 5 5 5 5 5 5
14 12 12 8 9 9 9 9 9 9 9 8 8 7 7 6 4 3 2 1 1 1 2 1 1 1 2 2 1 1 1 0 1 1 2 2 3 3 3 4 4 4 5 5 5 5 5 5 6
12 9 11 7 8 8 9 9 9 10 10 9 8 8 7 6 5 3 2 1 1 2 2 2 2 2 2 2 2 2 2 1 1 0 1 2 2 2 3 3 3 4 4 4 4 5 5 5 5
10 10 9 6 6 8 8 9 9 9 10 10 10 9 8 7 6 4 3 2 2 2 3 3 3 3 3 3 3 2 2 2 2 1 1 1 1 1 2 2 3 3 3 4 4 5 5 5 5
8 7 4 3 3 5 8 9 10 10 9 10 10 9 9 8 7 5 4 3 3 3 3 3 4 4 4 4 3 3 2 2 2 2 1 1 0 1 1 1 2 3 3 4 4 4 5 4 4
5 4 2 1 2 3 6 8 8 10 10 9 9 9 10 9 7 6 5 5 5 4 4 4 4 5 5 5 4 4 3 3 3 3 2 1 1 1 1 1 1 2 3 3 4 4 4 4 4
4 1 1 1 2 3 4 6 7 8 9 9 9 9 10 9 8 7 6 6 5 5 5 6 6 6 6 5 4 4 4 3 2 2 1 1 1 0 0 1 2 2 2 3 3 4 3 3 3
2 1 1 2 3 2 2 5 7 7 8 8 9 10 10 10 9 9 8 7 7 6 6 6 6 6 6 6 5 5 4 4 3 2 1 1 1 1 1 1 1 1 1 2 3 2 2 2 2
4 3 1 1 2 3 3 3 7 7 9 9 9 10 10 10 10 10 9 9 8 7 7 7 7 7 7 7 6 5 4 3 3 2 1 2 2 1 1 1 1 1 1 1 2 2 1 1 1
4 2 1 1 3 4 4 3 5 8 9 9 10 10 10 10 10 10 10 10 9 8 8 7 7 7 7 7 6 5 4 3 3 2 2 2 2 2 2 2 2 2 2 2 2 1 1 1 1
3 1 2 3 3 6 7 7 6 9 9 10 10 10 10 10 10 11 11 11 11 10 10 9 8 8 7 7 6 5 4 3 4 3 3 3 3 3 3 2 3 3 3 3 3 3 2 2 2
2 2 5 4 5 5 6 9 9 9 8 10 10 10 10 10 10 11 12 12 12 11 10 10 10 9 8 7 5 5 4 4 4 4 4 4 4 4 4 4 4 4 4 4 4 4 3 4 4
3 6 7 6 6 6 7 10 11 8 9 10 9 9 11 11 11 11 12 13 13 12 11 10 10 10 9 7 6 5 5 5 5 5 5 5 5 5 5 5 4 4 5 5 5 5 5 5 5
8 7 7 9 7 6 7 8 10 9 9 10 10 9 10 11 11 12 12 13 13 12 12 11 10 10 9 8 7 6 6 6 6 6 6 5 5 5 5 5 5 5 6 6 6 6 6 6 6
11 7 7 9 8 7 7 8 9 8 9 11 11 10 10 10 11 12 12 13 14 14 13 12 11 10 10 10 8 7 7 7 6 6 6 7 6 7 7 6 7 7 7 7 7 8 8 8 8
11 9 8 9 9 8 6 8 11 11 10 11 11 10 9 10 11 11 12 13 13 13 13 12 12 11 10 10 10 9 9 8 8 8 7 8 8 8 7 7 7 8 8 9 10 10 10 10 10
11 10 11 10 9 7 8 12 15 13 9 9 11 11 11 10 11 11 12 13 14 14 14 13 13 12 11 11 11 10 10 9 9 7 7 7 8 8 8 8 9 9 10 10 10 11 11 11 12
13 13 12 11 10 9 8 12 15 12 10 8 9 10 11 12 11 12 13 14 14 14 14 13 13 12 12 12 12 10 9 9 8 7 7 7 7 8 8 8 9 10 10 11 12 12 12 12 13
15 13 11 9 9 10 9 9 15 13 10 9 10 11 11 12 12 12 13 14 15 15 15 14 14 13 13 12 11 10 9 8 8 8 8 9 9 9 9 10 10 11 11 12 12 13 13 13 14
16 13 11 9 9 10 9 10 14 13 13 13 12 12 12 12 12 12 13 14 15 15 15 15 14 13 13 12 11 10 9 9 9 9 9 9 9 10 10 11 12 12 12 12 13 14 15 15 15
17 15 12 9 10 11 10 10 14 15 15 14 12 12 13 12 12 12 14 14 15 15 15 15 14 13 13 12 11 10 10 10 9 10 10 10 11 12 12 13 13 14 14 14 15 16 17 17 17
18 17 14 13 13 13 13 12 15 15 15 14 12 12 12 13 12 13 14 15 16 16 16 15 15 14 14 13 12 11 10 10 10 10 11 12 12 13 14 14 14 14 15 15 16 16 17 18 18
20 17 16 18 16 13 13 13 15 15 14 14 13 13 13 13 12 13 14 15 15 14 16 16 15 14 14 13 11 11 11 11 12 12 12 12 13 13 14 14 14 15 15 16 16 17 17 18 19
22 22 20 18 17 13 13 15 14 14 14 15 15 14 15 14 14 13 14 14 15 16 16 16 15 14 14 13 13 12 12 13 13 13 13 13 13 13 13 14 15 16 16 17 17 18 18 19 20
22 23 22 22 20 18 15 17 15 13 14 16 16 16 16 14 13 14 15 15 15 16 16 16 15 15 14 14 14 14 14 14 14 14 14 14 14 14 14 15 16 17 17 18 18 19 19 20 20

GEFSSGP_500_meanwind_180.txt.gz
Wind_Speed
15 15 14 15 17 17 18 18 17 15 14 14 14 13 11 9 8 8 6 6 7 8 7 7 7 7 7 6 6 6 5 5 5 4 4 4 4 4 4 4 4 4 4 4 4 5 5 5 6
14 14 14 16 20 19 20 19 17 14 14 14 14 13 11 9 8 7 6 6 7 7 7 7 7 7 6 6 6 6 5 5 5 4 4 3 3 3 3 4 3 4 4 4 4 4 4 5 5
14 14 15 18 19 20 21 20 18 16 15 14 13 13 11 9 8 7 6 7 7 7 7 7 7 6 6 6 6 6 6 5 5 4 4 3 3 3 3 3 3 3 3 3 3 3 4 5 5
11 12 14 17 18 20 21 21 19 17 15 14 13 13 11 9 8 7 6 7 7 7 7 7 7 6 6 6 6 6 6 5 5 5 4 3 3 2 2 3 3 3 3 3 3 3 4 4 4
11 13 15 17 18 19 20 20 19 17 15 14 14 13 11 10 9 8 7 7 7 7 6 6 6 6 6 6 5 5 5 5 5 5 5 4 3 2 2 2 2 3 3 3 3 3 4 4 4
11 14 15 16 17 18 18 19 18 16 15 15 14 14 13 11 9 8 8 8 7 6 6 6 6 6 6 6 5 4 4 4 4 4 5 4 3 3 2 2 2 3 3 3 3 3 3 4 4
11 12 13 15 16 17 18 18 17 16 16 15 15 14 14 12 10 9 8 8 7 6 6 6 6 6 6 6 5 4 4 4 4 4 4 4 3 3 2 2 2 2 3 3 3 3 4 4 4
12 12 12 14 15 16 18 17 16 16 16 15 15 15 14 13 11 9 8 8 7 7 6 6 7 6 6 5 5 4 4 4 3 3 3 3 3 2 2 2 2 2 2 3 3 4 4 5 4
11 10 11 12 12 15 17 17 16 16 16 16 15 15 14 13 11 10 9 8 7 6 6 6 6 6 5 5 5 5 4 3 3 3 3 3 2 2 2 2 2 2 3 3 3 4 4 5 5
10 8 9 9 10 13 15 17 17 16 16 16 15 15 14 14 13 11 10 8 7 7 7 6 6 6 6 5 5 5 4 4 3 2 2 2 2 2 2 1 2 2 3 3 3 3 4 4 4
7 7 7 8 10 12 13 15 17 17 15 15 15 15 14 15 13 12 10 9 8 7 7 7 6 6 6 6 4 4 4 4 3 3 2 2 2 1 1 1 2 2 3 2 3 3 3 4 4
6 5 6 7 9 11 13 14 15 16 15 14 15 15 15 15 13 12 11 9 8 8 8 7 6 5 6 5 4 4 4 3 3 3 3 2 2 1 0 1 1 2 2 2 2 3 3 3 3
5 4 3 5 7 10 12 13 15 15 15 15 15 15 15 14 13 12 11 10 9 8 7 6 6 5 5 4 4 4 3 3 2 2 2 2 1 1 1 1 1 1 2 1 1 2 2 2 2
5 3 3 4 5 8 11 12 14 15 15 15 15 14 14 13 13 13 12 11 11 10 9 7 6 5 5 4 4 3 3 2 1 2 1 1 1 1 1 1 1 1 1 0 0 0 1 1 1
5 3 3 5 5 8 10 11 12 14 14 13 14 14 13 13 13 13 13 12 12 11 9 9 8 6 5 5 4 3 2 2 2 1 1 1 1 2 1 1 1 1 0 1 1 1 0 0 0
7 3 1 3 5 7 9 11 12 12 12 12 12 13 13 13 13 13 13 12 12 11 9 9 9 8 6 5 4 3 2 1 2 2 1 1 1 2 2 2 1 1 1 2 2 2 2 2 1
8 3 0 3 5 7 9 9 11 11 11 12 11 12 12 11 11 12 12 12 11 10 10 9 9 8 7 6 5 4 2 1 1 2 1 1 1 2 3 3 2 2 2 3 3 3 3 3 3
8 4 0 4 6 8 9 9 9 10 10 10 10 11 11 11 10 11 11 11 11 10 10 9 9 8 7 6 5 4 3 2 2 2 2 2 2 3 3 3 4 3 3 4 4 4 4 4 5
9 6 3 1 5 8 9 9 10 10 11 11 11 9 10 10 9 10 10 10 11 11 10 9 9 8 7 7 6 4 3 3 3 3 4 3 3 3 3 4 4 4 4 4 4 5 5 6 6
11 8 5 3 4 6 8 9 10 10 11 11 11 8 9 8 8 9 9 10 11 10 10 10 9 8 7 7 7 5 4 4 4 5 5 4 4 4 4 4 4 5 5 6 6 6 7 8 8
13 10 7 6 6 6 8 9 10 9 10 12 10 9 8 8 8 9 9 9 10 11 11 10 9 8 7 7 7 6 5 5 5 5 6 5 5 5 5 5 6 7 7 7 7 8 8 9 9
15 12 11 9 8 8 9 10 10 10 11 11 10 10 10 8 9 9 9 10 11 11 11 9 9 9 8 7 8 7 7 6 5 4 5 5 4 4 5 6 6 7 7 8 9 9 10 11 11
16 16 14 12 11 9 10 11 10 12 12 10 9 10 10 9 9 9 9 10 11 11 10 10 10 10 9 8 8 8 7 6 5 4 4 4 3 4 4 5 5 6 6 8 9 10 11 11 12
17 17 15 13 12 10 11 11 11 11 10 9 8 9 10 10 10 9 9 10 10 10 10 10 10 10 9 9 8 8 8 7 5 5 4 5 4 4 4 5 6 6 8 9 10 10 11 12 13
18 17 15 14 12 10 10 10 9 9 9 8 8 9 9 10 10 10 10 10 10 10 10 10 10 10 10 9 9 8 7 7 6 5 5 5 5 5 5 6 7 8 9 10 11 12 12 13 14
19 18 16 15 13 10 10 10 10 9 9 8 8 8 9 8 9 10 9 10 10 10 11 11 10 10 10 9 9 8 7 6 6 5 6 6 6 6 6 7 9 9 10 11 11 12 13 14 14
19 19 18 17 15 12 11 11 11 10 9 9 8 8 8 7 9 10 10 10 10 10 10 11 11 11 10 9 8 8 7 7 7 6 6 6 7 7 7 8 9 10 10 11 11 12 13 14 15
19 19 20 19 17 15 13 12 12 12 11 9 7 7 7 8 9 10 10 10 10 11 11 11 11 10 10 9 9 8 8 8 8 7 8 7 8 8 8 8 9 10 11 12 12 13 13 14 15
20 20 21 20 19 17 15 14 13 12 10 9 8 8 7 8 10 11 10 11 10 10 11 11 11 11 11 10 9 9 8 9 8 8 8 8 8 8 8 9 10 11 11 12 13 14 15 16 16
20 20 21 21 20 19 18 16 15 13 12 12 12 10 8 8 10 10 10 10 10 10 10 11 11 11 11 10 10 10 9 9 8 8 9 9 9 8 9 10 11 12 12 13 14 15 16 17 18

GEFSSGP_500_meanwind_186.txt.gz
Wind_Speed
17 17 17 17 17 17 18 19 20 19 17 16 15 14 13 12 10 10 10 9 8 7 8 8 9 10 10 10 10 10 9 9 9 9 8 8 8 8 8 8 8 7 7 6 6 6 6 6 6
17 17 17 17 18 18 19 20 20 19 18 16 15 14 13 12 12 10 10 9 7 7 7 8 9 9 10 10 10 9 9 9 9 9 8 8 8 7 7 7 7 7 7 7 6 6 5 6 6
17 17 17 17 18 19 20 20 20 19 17 16 16 15 13 12 11 10 9 9 7 7 7 8 8 9 9 9 9 9 9 9 9 8 8 7 7 7 7 7 7 7 7 6 6 6 6 6 6
16 17 17 17 18 19 20 21 20 19 17 16 16 15 13 12 10 10 9 8 7 7 7 8 8 9 8 9 8 8 9 9 9 8 8 7 7 7 7 7 7 7 6 6 6 6 6 6 6
16 16 17 17 18 19 20 20 20 20 17 15 15 14 13 11 10 9 9 8 6 7 8 8 8 8 8 8 8 8 8 8 8 8 8 7 7 7 7 7 6 6 6 5 5 6 6 6 6
15 15 16 17 18 19 20 20 20 19 16 15 15 13 12 11 9 9 8 8 7 7 8 8 8 8 8 8 8 7 7 7 7 7 7 7 7 7 6 6 6 6 5 5 5 5 5 6 6
13 14 15 17 18 19 20 20 20 19 17 16 15 14 12 11 9 9 8 8 8 8 8 8 8 8 8 7 7 7 7 7 7 6 7 7 7 6 6 6 6 6 5 5 5 5 5 6 6
11 12 15 17 18 19 20 20 19 18 17 16 15 14 13 11 10 9 8 8 8 9 8 8 8 8 7 7 7 6 7 6 6 6 6 6 6 6 6 5 5 5 5 5 5 5 5 6 6
10 11 15 17 18 19 19 20 20 19 17 17 16 14 13 11 10 9 9 8 8 8 8 8 7 7 7 7 7 6 6 5 5 5 5 5 6 5 5 5 5 5 5 5 5 6 6 6 6
9 11 14 16 17 18 19 19 19 19 18 17 16 15 13 12 10 10 9 9 8 8 8 8 8 7 6 6 6 6 5 5 5 5 4 5 5 5 5 5 5 5 6 6 5 6 6 6 6
7 10 12 14 16 17 18 19 19 18 17 17 16 15 14 12 11 10 9 9 9 8 7 7 7 7 6 5 5 5 5 5 5 5 4 4 4 5 5 5 5 5 5 5 5 5 5 5 5
6 8 11 14 15 17 17 18 18 17 17 16 16 15 14 13 11 10 10 10 9 8 8 7 7 6 5 5 4 4 4 5 5 5 4 4 3 4 4 4 4 4 5 4 4 4 4 4 4
4 7 10 12 15 16 17 17 17 17 16 15 15 15 14 14 13 12 11 10 9 8 8 7 7 6 5 4 4 4 3 3 4 4 4 3 3 3 3 3 3 3 3 3 3 3 2 2 3
4 6 9 12 14 15 16 16 16 16 15 15 15 15 14 13 13 12 11 10 10 9 8 7 7 6 5 4 3 3 3 3 2 2 3 2 2 2 3 3 3 3 3 2 2 1 1 1 1
2 5 7 9 11 13 14 14 15 15 14 13 13 14 13 13 13 12 11 10 10 9 9 8 7 6 5 4 4 3 3 1 1 2 2 2 1 1 1 2 2 2 1 1 0 0 0 1 1
1 3 5 6 8 10 11 12 14 13 13 12 12 12 13 13 12 12 12 11 10 9 9 8 7 6 5 4 3 3 3 2 1 1 2 1 1 0 1 1 1 1 1 1 1 1 2 1 2
3 2 2 4 5 7 8 9 12 13 12 11 11 11 12 12 12 12 12 11 10 10 9 8 7 6 5 4 4 3 2 2 1 1 2 2 2 2 2 3 3 3 3 3 2 3 3 3 4
5 3 2 1 3 4 5 7 9 11 10 10 10 11 11 11 11 11 11 10 10 10 9 8 7 6 5 4 4 3 2 2 3 2 3 3 3 3 4 4 4 5 4 4 4 4 4 5 5
8 7 5 3 1 1 3 5 7 9 9 9 9 10 9 9 10 10 10 10 10 10 9 8 7 6 5 4 4 3 3 3 3 4 4 4 4 4 4 5 5 5 6 5 5 5 6 6 7
10 9 8 6 4 3 3 4 5 7 8 9 9 9 9 9 10 10 10 11 10 10 9 8 7 6 5 5 4 4 3 3 3 4 4 4 5 5 6 5 5 5 6 6 6 6 7 8 9
13 12 11 8 6 5 4 4 5 6 7 7 8 8 8 8 10 10 11 11 11 10 9 9 8 7 6 5 5 5 4 4 4 4 5 5 6 6 5 5 5 6 6 7 7 8 9 9 10
16 14 13 11 9 7 6 5 4 5 6 6 6 7 8 8 10 10 11 11 10 9 9 9 8 8 7 6 6 5 5 5 4 4 4 5 5 4 4 5 6 7 7 8 9 10 10 11 12
18 17 15 13 12 10 8 7 5 5 6 5 5 6 8 8 8 9 10 10 10 10 9 8 8 8 8 7 6 6 5 5 5 5 5 4 4 4 5 5 6 7 8 9 10 10 11 12 13
20 19 18 16 15 13 11 10 6 6 5 5 5 6 7 8 8 8 9 9 10 11 9 8 8 8 7 7 6 6 6 6 5 6 5 5 5 5 6 6 7 7 8 9 10 11 12 13 14
23 21 20 19 17 15 12 11 8 6 5 5 5 6 7 8 8 9 9 10 11 11 10 9 8 8 7 7 7 7 7 6 5 5 6 6 6 6 7 7 8 9 9 10 11 12 13 14 15
24 23 22 20 19 17 15 13 10 7 6 6 6 6 7 7 8 9 9 10 11 10 10 9 9 8 8 7 7 8 8 7 7 6 6 7 7 7 8 8 9 10 10 10 11 13 14 15 15
25 25 23 22 20 19 17 14 11 9 7 7 7 6 7 8 9 9 9 11 10 10 9 9 9 8 8 8 8 8 8 8 7 8 7 6 7 8 8 9 9 9 10 11 12 13 13 14 15
26 25 25 24 22 20 18 15 12 11 9 8 7 7 8 8 9 9 10 10 10 11 10 10 10 9 8 8 8 8 8 8 7 7 7 7 7 8 8 9 9 10 11 12 12 13 15 15 16
27 26 25 24 23 21 19 16 13 11 10 8 8 7 7 8 9 9 10 10 10 10 10 10 11 10 9 8 9 8 8 8 8 8 8 8 8 9 9 10 10 11 12 13 14 15 15 16 17
28 27 26 24 23 21 20 17 14 12 11 10 9 8 7 9 9 10 11 11 11 11 10 11 11 11 10 9 9 9 9 9 9 8 8 9 9 10 10 10 11 12 13 14 15 15 16 17 17

GEFSSGP_500_meanwind_192.txt.gz
Wind_Speed
18 18 17 16 17 15 14 14 14 14 13 13 12 12 11 11 11 10 10 10 9 8 8 8 7 8 8 9 9 10 10 10 10 10 10 11 10 10 10 10 10 10 10 10 9 10 9 9 9
18 18 17 17 16 14 14 14 14 14 13 13 12 11 11 10 10 10 10 9 8 7 8 7 7 7 8 9 9 10 10 10 10 10 10 10 10 10 10 10 10 10 10 10 10 10 10 9 9
17 17 17 17 15 14 14 14 14 14 13 13 12 11 10 10 10 9 9 9 7 7 7 7 6 7 8 8 9 10 10 10 10 10 9 9 10 10 10 9 10 9 10 10 10 9 9 9 9
17 17 17 16 15 15 15 15 15 15 14 13 12 12 11 10 10 9 9 9 8 7 6 6 6 6 7 8 9 9 10 10 10 10 9 9 9 9 9 9 9 9 9 9 9 9 9 9 8
16 17 16 14 15 15 16 16 16 15 14 13 12 12 11 11 10 9 9 8 8 7 6 6 6 6 7 8 8 9 9 9 9 9 9 9 9 8 8 9 9 8 8 8 8 9 9 8 8
16 17 14 14 14 15 16 16 16 16 14 13 12 12 11 11 10 9 9 8 7 7 6 6 6 6 7 7 8 8 8 8 8 8 8 8 8 8 8 8 8 8 8 8 8 8 8 8 7
15 15 13 13 14 15 16 16 16 16 15 14 12 12 11 10 10 9 9 9 8 7 7 6 7 6 6 6 7 7 8 8 8 8 8 8 8 8 8 8 8 8 8 8 8 8 8 8 7
13 14 13 14 15 15 15 16 16 16 15 14 13 13 11 11 10 9 8 8 8 7 7 6 6 6 6 6 6 7 6 7 7 7 7 7 7 7 8 8 7 7 8 8 8 8 8 8 7
13 13 12 13 14 15 16 16 16 16 16 15 14 13 12 11 10 9 8 8 7 7 6 6 6 6 6 5 5 5 5 6 6 6 6 7 7 7 8 7 7 7 7 8 8 7 7 7 7
12 10 11 12 13 15 16 16 16 16 17 16 15 14 12 11 10 10 9 8 7 7 6 6 6 5 5 5 5 6 5 5 5 5 6 6 6 7 7 7 7 7 7 7 7 7 7 7 7
10 10 10 12 13 14 16 16 16 16 16 16 15 14 13 12 11 10 9 9 7 7 6 6 6 5 5 4 5 5 5 5 5 5 5 5 5 6 6 6 6 7 7 7 6 6 6 6 6
9 9 9 11 12 14 15 15 16 16 15 15 15 14 13 12 11 10 9 8 8 7 6 6 6 5 5 5 4 4 4 4 4 4 4 4 4 4 5 5 5 6 6 6 6 6 5 5 5
8 8 8 9 11 12 13 14 15 15 15 15 14 14 14 13 12 11 10 9 9 8 7 6 5 5 4 4 4 3 3 3 3 3 3 2 2 3 3 4 5 5 5 5 5 4 4 3 3
6 7 7 8 9 10 11 12 13 14 14 14 14 14 14 14 13 12 11 10 9 8 7 6 5 4 3 2 3 3 3 2 2 2 2 2 2 2 3 4 4 5 4 4 4 3 2 2 1
5 5 6 6 7 8 10 11 11 12 13 13 13 13 12 13 13 12 11 10 9 8 8 6 6 5 4 3 2 2 1 1 1 2 2 2 2 2 3 3 4 4 4 3 3 2 2 1 1
5 5 4 5 6 7 8 9 9 10 12 12 12 11 11 11 12 11 11 10 10 9 8 7 6 5 4 3 2 2 1 1 1 1 1 1 1 2 3 3 4 4 4 3 2 2 1 1 2
4 4 3 3 4 5 7 7 8 9 10 11 11 11 10 11 11 11 11 11 10 9 8 7 6 5 4 3 3 2 2 1 1 1 1 0 1 2 3 4 4 4 4 3 3 3 3 3 3
5 4 2 1 2 4 5 6 7 7 9 10 10 10 10 10 10 10 10 10 9 10 9 7 6 5 5 4 3 3 2 1 1 2 1 1 2 2 2 3 4 4 4 4 4 4 4 4 4
8 5 3 2 1 2 3 5 6 6 7 8 9 8 9 9 10 10 10 10 10 10 9 8 7 6 5 4 4 4 3 2 2 2 1 1 2 3 2 2 3 4 5 5 5 5 5 6 6
8 6 5 3 1 0 2 4 5 5 6 6 7 7 8 9 10 11 11 11 11 10 9 8 7 6 6 5 5 4 4 4 3 3 3 2 2 3 3 3 4 5 5 6 6 6 7 7 7
10 8 6 4 2 1 1 4 4 5 5 6 6 6 7 8 10 11 11 11 11 10 9 8 8 7 7 6 6 5 5 5 5 4 4 4 4 3 4 4 4 5 6 6 7 8 8 8 8
12 10 8 5 3 4 1 3 5 4 5 6 6 6 7 8 10 11 11 12 12 11 10 9 8 8 7 7 7 6 5 6 6 5 5 5 5 5 5 5 5 6 7 7 8 8 9 9 9
14 11 10 8 6 5 4 2 6 5 5 6 6 6 7 8 10 11 11 12 12 12 11 10 9 8 8 8 7 7 7 6 6 6 5 5 5 6 6 6 6 6 7 8 9 9 9 10 11
15 13 12 10 8 8 7 4 5 6 5 5 5 6 6 8 10 10 10 11 11 12 12 11 10 9 8 7 7 7 7 7 7 6 6 6 6 7 7 7 7 7 8 8 9 9 10 11 12
18 15 14 12 11 11 9 6 7 7 7 7 6 6 7 8 9 10 9 10 11 12 12 11 11 10 8 8 8 7 8 8 7 7 7 7 7 8 7 8 8 8 9 9 10 10 11 11 12
20 18 17 14 12 12 11 9 8 7 8 8 7 7 8 8 9 9 9 10 11 12 13 13 12 10 9 9 8 8 8 8 8 7 7 7 8 9 8 9 9 9 9 10 11 11 11 12 13
22 21 18 16 15 13 13 11 9 9 9 9 8 8 8 8 9 9 9 10 11 12 13 13 11 10 10 9 9 9 9 8 8 8 7 8 8 9 9 9 9 10 10 11 11 11 12 13 14
25 23 21 19 17 14 14 12 11 11 10 9 9 9 9 9 9 10 10 11 11 13 13 13 11 10 10 10 10 10 10 9 9 9 8 9 9 9 9 9 9 10 11 12 12 12 13 14 15
26 25 23 21 19 16 13 13 13 12 11 10 10 10 9 9 10 11 11 11 12 13 13 13 12 11 11 11 10 11 11 10 10 9 9 9 9 9 9 9 10 11 11 12 12 13 14 14 15
27 26 25 23 21 18 15 14 14 12 11 11 11 10 10 10 10 11 11 11 12 13 13 13 12 12 12 11 11 11 11 10 10 9 9 9 10 10 10 10 10 11 12 12 13 13 14 15 15

GEFSSGP_500_meanwind_198.txt.gz
Wind_Speed
18 19 20 21 19 12 10 10 9 8 7 6 6 6 6 5 5 5 6 7 7 7 7 7 6 5 5 5 5 6 6 7 7 7 7 7 8 8 9 10 9 10 10 10 10 10 10 9 9
18 18 22 21 13 10 10 9 9 8 7 7 6 6 6 6 6 6 6 7 7 7 7 7 6 5 5 5 5 6 6 7 6 7 7 8 8 8 9 9 10 10 10 10 11 10 10 8 8
20 21 22 13 9 10 10 10 9 8 8 8 7 7 7 7 7 6 6 7 7 7 7 7 6 6 5 5 6 6 6 6 6 6 7 7 8 8 8 9 10 10 10 11 11 10 10 9 9
21 24 17 10 10 11 11 10 10 9 8 8 8 7 7 7 7 6 6 6 7 7 7 7 6 6 5 5 5 5 6 6 6 6 6 7 7 7 8 8 9 9 10 10 10 10 10 9 9
23 21 13 11 12 12 12 11 10 10 9 9 8 8 8 7 7 7 7 7 7 7 7 6 6 5 5 4 5 5 5 5 6 6 6 6 6 7 7 8 8 9 9 9 9 9 9 9 8
22 16 10 11 11 11 11 11 11 11 10 9 9 8 8 8 8 8 7 7 7 7 7 7 6 5 5 4 4 4 5 5 6 6 6 6 6 7 7 7 8 8 8 8 8 8 8 8 8
18 12 9 10 11 11 11 11 12 12 11 11 10 9 9 8 8 8 7 7 7 8 8 7 6 5 4 4 4 4 4 5 5 6 6 6 6 6 6 6 7 7 8 8 8 8 8 8 8
14 10 8 9 10 11 11 11 12 13 13 12 11 10 9 9 9 9 9 9 8 8 8 7 6 6 5 4 3 4 4 5 5 5 5 5 6 5 6 6 6 7 7 7 8 8 8 7 7
11 8 6 7 9 10 11 12 13 14 14 14 13 12 11 10 10 10 10 9 9 8 8 8 7 6 5 4 4 3 4 4 5 5 5 5 5 5 5 5 5 6 6 7 7 7 7 7 6
9 7 4 5 8 10 12 13 14 15 15 15 14 13 12 11 11 11 11 10 10 9 8 8 7 7 6 5 4 3 3 4 4 4 4 4 4 4 4 5 5 5 6 6 6 6 6 6 5
6 6 5 5 7 10 12 14 14 14 15 15 14 14 14 12 11 11 11 11 10 9 8 7 7 7 7 6 4 3 3 3 3 3 3 3 3 4 4 4 5 5 5 5 5 5 5 4 4
5 6 6 6 8 9 11 12 12 13 15 15 15 14 14 14 13 12 11 11 10 10 9 8 7 7 6 5 5 4 3 3 3 3 3 2 2 2 3 3 3 4 4 4 4 4 3 3 4
5 6 7 7 8 8 9 11 12 13 14 14 15 15 15 15 14 13 12 12 11 10 10 9 8 7 7 6 5 4 4 4 4 3 3 3 1 1 1 2 2 3 3 3 3 2 3 3 3
4 5 6 7 7 8 7 10 13 13 14 14 15 15 16 16 15 14 13 12 12 11 10 9 9 8 7 6 5 5 4 4 4 4 4 3 2 1 1 1 2 2 2 2 1 1 1 2 1
4 4 5 7 8 8 9 10 12 13 13 14 14 15 15 15 15 14 14 13 12 11 11 10 9 8 7 6 5 5 5 4 4 4 4 3 3 2 1 1 1 2 2 2 1 1 1 1 1
3 3 3 6 7 7 9 9 11 12 13 14 14 14 15 14 14 15 14 14 13 12 12 11 10 9 7 7 6 6 5 5 4 4 4 3 3 2 1 1 1 2 2 2 2 1 1 2 2
0 1 1 5 6 5 6 7 9 11 12 13 14 14 15 14 14 15 15 14 14 13 13 11 10 9 7 7 7 7 6 5 5 4 4 4 3 2 2 1 2 2 3 3 3 2 2 3 3
3 3 3 4 5 3 5 6 9 11 12 13 13 14 14 14 13 14 14 15 15 14 13 12 9 8 7 7 7 7 6 6 5 5 4 4 3 2 2 2 2 2 3 3 4 4 4 4 5
6 5 5 6 6 3 4 7 8 10 11 12 12 12 13 13 13 14 14 14 15 15 13 12 11 9 8 7 7 6 6 6 6 5 5 5 4 3 3 3 2 3 3 4 5 6 6 6 6
8 6 6 6 7 4 5 6 8 11 12 11 12 11 12 13 14 14 14 15 15 15 14 12 12 10 9 8 7 6 6 7 6 6 4 4 4 4 4 4 4 5 5 6 7 7 8 8 8
10 8 8 8 7 4 7 9 9 10 12 12 11 11 12 12 13 13 14 14 15 15 15 13 12 11 9 8 7 7 7 7 7 6 5 4 4 4 5 5 5 6 6 7 7 8 8 9 9
11 10 10 9 7 4 7 10 11 11 11 12 11 11 12 12 12 13 13 13 14 15 15 14 12 12 12 10 9 8 7 7 7 6 5 5 5 5 6 6 5 6 7 7 8 8 9 9 10
13 12 11 9 8 6 7 9 13 10 10 11 11 10 11 12 12 12 13 13 14 14 15 15 14 13 12 11 10 9 8 8 7 7 6 5 6 6 6 6 6 7 7 8 8 9 9 10 11
15 12 11 11 10 9 7 8 12 10 9 9 10 9 10 10 11 12 12 13 14 14 14 15 14 14 13 11 11 11 10 9 8 7 6 6 6 6 7 7 7 8 8 8 9 9 10 11 11
16 13 11 10 9 9 7 8 12 14 12 12 11 10 10 10 11 11 12 12 13 14 14 14 14 13 12 12 11 11 11 10 9 8 7 7 7 7 8 8 8 9 9 9 9 9 10 10 11
18 16 14 11 9 9 8 10 13 16 15 13 12 10 10 10 11 11 12 12 13 14 14 14 14 13 13 12 11 11 11 11 10 9 8 8 8 8 8 9 9 10 10 10 10 10 11 11 12
19 19 15 14 12 13 12 10 13 17 17 15 14 12 11 10 10 11 12 13 13 14 14 14 14 13 13 13 13 12 12 11 11 10 9 9 9 9 9 10 10 10 10 11 10 11 11 12 12
21 19 18 18 16 14 13 12 14 16 17 15 14 13 12 11 10 11 11 13 13 13 14 14 14 14 14 14 14 13 13 12 12 11 10 10 10 10 11 10 11 11 10 10 11 12 12 12 12
23 21 21 20 18 15 15 14 14 17 16 16 15 12 12 12 12 11 12 13 13 13 13 14 14 15 15 15 14 14 13 13 13 12 11 11 11 11 11 11 11 11 11 11 12 12 13 13 14
23 23 21 22 22 19 17 16 15 15 15 17 15 13 13 12 13 13 13 13 12 13 13 14 15 15 15 15 15 15 14 14 13 12 12 12 12 12 12 11 12 12 12 12 12 12 13 14 14

GEFSSGP_500_meanwind_204.txt.gz
Wind_Speed
18 18 18 18 20 19 17 18 17 16 14 14 14 14 13 11 10 9 9 9 10 10 10 9 9 8 7 7 7 7 8 8 8 8 8 8 8 8 9 9 10 10 11 11 11 11 11 11 11
17 18 18 20 21 19 19 19 17 15 14 14 13 13 12 11 10 9 9 9 10 10 10 9 9 8 8 8 8 8 8 7 7 7 7 7 7 8 8 9 9 10 10 10 11 10 10 10 10
18 19 20 21 21 20 20 20 18 17 15 14 13 13 11 11 11 10 10 10 10 10 9 9 8 8 9 8 8 8 8 7 7 7 7 7 7 7 8 8 9 9 10 10 10 9 10 10 10
16 19 21 21 20 21 21 20 19 17 15 14 14 13 11 11 11 10 10 10 10 9 9 8 8 9 9 8 8 8 8 7 7 7 7 7 7 7 7 7 8 8 9 10 10 9 10 9 10
16 18 20 21 20 21 21 20 19 17 15 14 14 13 12 12 11 11 11 11 11 10 10 9 9 9 8 8 8 7 7 7 7 7 7 7 7 7 7 7 7 8 9 10 10 10 10 10 10
14 16 18 19 20 20 21 20 19 17 16 15 14 13 13 13 12 11 11 11 11 10 10 9 9 9 8 7 7 7 8 8 7 7 7 7 7 7 7 7 7 8 9 9 10 10 10 10 10
14 15 17 18 18 19 20 19 18 18 17 15 15 14 14 14 13 11 11 10 10 10 10 10 9 9 8 7 7 7 7 8 7 7 7 6 6 6 6 7 7 7 8 8 9 10 10 9 9
13 14 16 17 17 18 19 19 19 19 18 17 16 16 15 15 14 12 11 11 11 11 10 10 9 9 8 8 7 7 7 7 7 6 6 6 6 6 6 6 6 7 7 8 8 9 9 8 8
12 13 15 16 17 18 19 19 20 20 19 19 18 17 15 15 14 13 12 12 11 11 10 10 9 9 8 8 7 6 6 6 6 6 6 5 5 5 5 5 6 6 7 7 7 7 7 7 7
10 12 14 15 16 17 19 19 20 20 19 19 19 18 16 15 15 14 13 13 12 11 10 10 9 9 8 7 7 6 5 5 5 5 5 5 4 4 5 5 5 5 6 6 6 6 6 6 6
8 11 13 14 15 17 19 19 19 20 19 19 19 18 16 16 16 15 15 14 13 11 10 9 9 9 8 7 7 7 6 5 5 4 4 4 4 4 4 4 4 5 5 5 5 4 5 5 5
8 10 13 15 16 17 18 18 19 19 19 19 18 18 17 16 16 16 15 14 13 12 10 9 9 8 8 7 7 7 6 5 5 5 4 3 3 3 3 3 3 4 4 4 4 4 4 4 3
7 9 12 15 17 17 17 17 18 19 18 18 17 17 17 16 16 16 15 14 14 13 11 10 9 9 8 7 6 6 6 5 4 4 3 2 2 2 3 3 4 3 3 2 2 3 3 3 3
5 7 10 13 16 16 17 16 16 17 18 18 17 17 17 16 16 16 15 14 14 13 12 11 10 9 9 8 6 6 5 5 4 4 3 3 2 2 3 3 4 3 2 2 1 1 2 2 2
6 6 7 10 13 14 15 15 16 16 17 17 17 17 17 16 16 16 16 15 14 14 12 11 10 9 8 8 7 6 6 5 5 4 3 3 3 2 2 3 3 3 2 2 1 1 1 1 1
6 5 5 6 9 12 13 14 15 16 16 17 17 16 16 16 15 15 15 15 15 14 13 11 10 9 8 8 8 7 6 5 5 4 3 3 3 3 3 4 3 3 3 2 1 1 1 0 1
5 4 3 4 7 10 11 11 12 14 16 16 16 16 15 15 15 15 15 15 15 15 14 11 10 9 8 7 7 7 6 6 5 4 3 3 3 3 3 3 2 3 3 3 2 2 2 2 3
5 3 2 1 5 8 9 10 11 12 15 16 15 15 14 14 14 14 15 15 15 15 14 12 11 10 8 7 7 7 6 6 5 3 2 2 2 2 2 2 1 2 2 2 3 3 3 4 4
5 3 2 2 5 7 7 8 9 11 13 14 14 14 14 14 13 14 14 15 15 14 13 12 11 10 10 8 7 7 6 6 5 4 3 2 2 1 1 0 1 2 2 2 3 4 5 5 6
7 5 4 3 6 7 8 8 7 9 11 12 13 13 13 13 13 13 13 14 14 14 14 13 12 11 10 9 7 6 6 5 5 4 3 2 1 0 1 1 2 2 3 3 4 5 6 7 7
10 8 5 5 6 7 7 7 7 7 9 10 11 11 12 12 13 13 13 13 14 14 13 12 12 11 11 10 8 7 6 5 4 4 3 2 1 1 1 2 2 3 4 4 5 5 6 7 7
13 11 8 7 8 8 8 7 5 6 7 8 10 10 10 11 12 13 13 13 13 13 13 12 12 12 11 10 9 8 6 5 5 4 3 2 2 2 2 3 3 4 4 5 6 6 7 7 8
14 12 11 9 8 8 7 7 5 5 6 7 9 9 9 10 11 11 12 12 12 12 12 12 12 12 11 10 10 9 7 6 5 5 4 3 3 3 4 4 4 5 6 6 7 7 8 8 9
17 15 14 12 11 10 8 8 6 6 6 7 8 8 9 10 10 10 11 12 12 12 12 12 12 12 11 10 9 10 8 6 5 4 4 4 4 4 5 5 5 6 7 7 8 8 9 9 10
19 17 16 15 14 10 9 10 8 7 6 6 7 8 8 9 9 9 10 11 11 11 11 12 12 12 12 11 10 9 9 7 6 5 5 5 5 5 5 5 6 7 7 8 8 8 8 8 9
19 18 17 16 15 11 9 11 9 8 8 7 6 7 8 8 9 8 9 10 10 10 11 11 12 12 12 11 10 10 9 8 7 5 5 5 5 5 5 6 6 7 7 7 8 8 8 8 9
21 19 18 17 16 13 11 11 9 7 6 7 7 8 8 8 9 9 8 9 9 9 10 11 11 12 11 12 11 10 10 9 8 7 6 6 6 6 6 6 6 7 8 9 9 9 9 9 10
23 20 21 20 18 16 14 11 10 8 8 7 8 9 9 8 8 8 8 8 7 8 9 10 11 11 12 12 11 11 12 11 9 8 7 7 7 7 7 7 7 8 9 10 10 9 10 10 11
25 23 23 21 20 18 16 14 11 11 9 8 9 9 11 9 9 9 9 9 8 8 9 10 10 11 12 12 12 12 12 12 11 10 9 8 7 7 7 7 8 8 9 9 9 9 10 11 11
26 24 23 23 23 21 19 16 14 13 11 11 10 10 11 10 10 10 10 10 9 9 9 10 11 11 11 12 12 12 13 13 12 11 10 9 9 9 8 8 8 8 9 9 9 9 10 11 11